     2              OBSERVATION DATA    GPS                 RINEX VERSION / TYPE
ASHTORIN MIT 11                                             PGM / RUN BY / DATE
                                                            COMMENT
Original Marker Name: sm01                                  COMMENT
Campaign Name: STRC/NBC 1997                                COMMENT
4-Character Station Name: SM01                              COMMENT
6-Character Antenna Code: DMRCHT                            COMMENT
Vertical Measurement Point: BCR                             COMMENT
Vertical Offset to Rinex Ref. Point: 0.0349                 COMMENT
Radial Measurement Point: ECF                               COMMENT
Radial Offset to Rinex Ref. Point: 0.1896                   COMMENT
Antenna Height from Field Measurement: 0.9825 m             COMMENT
Additional Antenna Identification Info.:                    COMMENT
Turborogue and Ashtech Choke Ring                           COMMENT
Original XYZ: 0.0000 0.0000 0.0000                          COMMENT
New XYZ position is based on association with SCEC monument COMMENT
E1C2U9Q8+0011. Position of that monument is believed to be  COMMENT
valid to within 1 m horizontally; vertical accuracy         COMMENT
should be no worse than 3-times this value.                 COMMENT
                                                            COMMENT
Revised Rinex header created by UCSD GPS archive for        COMMENT
GSAC on 05-Apr-1999 (1999:095) 17:36:55 GMT                 COMMENT
For assistance contact dagnew@ucsd.edu or hjohnson@ucsd.edu COMMENT
                                                            COMMENT
LDGO                                                        MARKER NAME
EDM San Miguel 01                                           MARKER NUMBER
TIT CICESE (ENSENADA)                                       OBSERVER / AGENCY
495 ASHTECH Z12-XII3 1F371D0                                REC # / TYPE / VERS
759 DORNE-MARGOL. TYPE T                                    ANT # / TYPE
 -2369297.0000 -4893538.0000  3325510.0000                  APPROX POSITION XYZ
        0.9291        0.0000        0.0000                  ANTENNA: DELTA H/E/N
     1     1     0                                          WAVELENGTH FACT L1/2
     7    L1    L2    C1    P1    P2    D1    D2            # / TYPES OF OBSERV
    30                                                      INTERVAL
  1997     3    14    21    13    0.000000                  TIME OF FIRST OBS
  1997     3    14    23    59   30.000000                  TIME OF LAST OBS
     0                                                      # OF SATELLITES
                                                            END OF HEADER
 97  3 14 21 13  0.0000000  0  5 27  2 26  4  7                      0.000000000
    231763.83319    167125.49757  22319434.881    22319434.3675   22319440.0385
        -0.000          -0.000
      7273.55219      5412.44358  21552196.053    21552195.4965   21552201.2395
        -0.000          -0.000
     53006.80219     38188.24057  23104054.247    23104054.1155   23104059.8595
        -0.000          -0.000
   -235635.18119   -164312.41356  22971845.627    22971845.2625   22971851.5825
        -0.000          -0.000
     19406.20719     14246.14359  20454224.966    20454224.1355   20454229.6315
        -0.000          -0.000
 97  3 14 21 13 30.0000000  0  6 27  2 26  4  7  9                   0.000416827
    312753.735 9    230234.49047  22334847.696    22334846.2284   22334851.9484
        -0.000          -0.000
     10340.090 9      7801.95648  21552779.955    21552779.1114   21552784.8014
        -0.000          -0.000
     72345.984 9     53257.72347  23107734.724    23107734.3384   23107739.9784
        -0.000          -0.000
   -347565.177 9   -251530.49746  22950545.910    22950546.1874   22950552.2464
        -0.000          -0.000
     26853.673 9     20049.37749  20455642.291    20455641.3844   20455646.8794
        -0.000          -0.000
   -344342.89819   -251087.91555  24255601.528    24255601.4965   24255607.8605
        -0.000          -0.000
 97  3 14 21 14  0.0000000  0  6 27  2 26  4  7  9                   0.000000258
   -248674.964 9   -207242.47247  22228010.857    22228009.9194   22228015.6724
        -0.000          -0.000
   -629157.266 9   -490507.67648  21431087.753    21431086.8674   21431092.5124
        -0.000          -0.000
   -550630.064 9   -432178.17147  22989186.139    22989185.9674   22989191.5654
        -0.000          -0.000
  -1102088.893 9   -839470.98146  22806965.503    22806965.0374   22806971.2434
        -0.000          -0.000
   -608063.471 9   -474691.24249  20334821.513    20334820.7164   20334826.2524
        -0.000          -0.000
  -1098714.238 9   -838909.68445  24112050.457    24112049.1464   24112055.7314
        -0.000          -0.000
 97  3 14 21 14 30.0000000  0  6 27  2 26  4  7  9                   0.000000230
   -152988.816 9   -132681.85647  22246219.119    22246218.4134   22246224.2024
        -0.000          -0.000
   -611667.448 9   -476879.23848  21434415.981    21434415.1134   21434420.7284
        -0.000          -0.000
   -516364.991 9   -405478.10846  22995706.479    22995706.3744   22995712.0924
        -0.000          -0.000
  -1199634.620 9   -915480.56646  22788402.838    22788402.6774   22788408.9234
        -0.000          -0.000
   -585817.927 9   -457357.04149  20339054.698    20339053.9264   20339059.4694
        -0.000          -0.000
  -1196155.542 8   -914837.93445  24093507.549    24093506.8024   24093513.1844
        -0.000          -0.000
 97  3 14 21 15  0.0000000  0  6 27  2 26  4  7  9                   0.000000215
    -56978.723 9    -57868.84147  22264489.112    22264488.5354   22264494.3654
        -0.000          -0.000
   -593982.576 9   -463098.83348  21437781.286    21437780.4534   21437786.0884
        -0.000          -0.000
   -481625.667 9   -378408.52646  23002317.157    23002317.1964   23002322.7654
        -0.000          -0.000
  -1296967.266 9   -991324.11846  22769881.031    22769880.9194   22769887.1304
        -0.000          -0.000
   -563203.605 9   -439735.48549  20343358.049    20343357.2774   20343362.8154
        -0.000          -0.000
  -1293459.66419   -990659.42045  24074990.850    24074990.3015   24074996.8034
        -0.000          -0.000
 97  3 14 21 15 30.0000000  0  6 27  2 26  4  7  9                   0.000000196
     39320.055 9     17169.13647  22282814.112    22282813.5794   22282819.4434
        -0.000          -0.000
   -576151.574 9   -449204.54548  21441174.367    21441173.5944   21441179.2374
        -0.000          -0.000
   -446458.469 9   -351005.55547  23009009.294    23009009.3744   23009014.9214
        -0.000          -0.000
  -1394106.492 9  -1067016.95146  22751395.954    22751395.9374   22751402.1104
        -0.000          -0.000
   -540264.561 9   -421860.88949  20347723.180    20347722.4354   20347727.9704
        -0.000          -0.000
  -1390663.687 9  -1066402.78545  24056493.395    24056492.9964   24056499.6134
        -0.000          -0.000
 97  3 14 21 16  0.0000000  0  6 27  2 26  4  7  9                   0.000000168
    135927.916 9     92447.94147  22301198.013    22301197.4824   22301203.3494
        -0.000          -0.000
   -558188.225 9   -435207.12948  21444592.691    21444591.9384   21444597.5894
        -0.000          -0.000
   -410873.222 9   -323276.81747  23015781.001    23015781.0364   23015786.7084
        -0.000          -0.000
  -1491044.106 9  -1142552.68446  22732949.312    22732949.2974   22732955.4654
        -0.000          -0.000
   -516998.806 9   -403731.72149  20352150.509    20352149.7804   20352155.3334
        -0.000          -0.000
  -1487777.657 9  -1142075.93145  24038013.302    24038012.8114   24038019.4564
        -0.000          -0.000
 97  3 14 21 16 30.0000000  0  6 27  2 26  4  7  9                   0.000000132
    232852.538 9    167973.57647  22319642.149    22319641.6744   22319647.5444
        -0.000          -0.000
   -540104.056 9   -421115.56648  21448033.999    21448033.2654   21448038.8774
        -0.000          -0.000
   -374888.083 9   -295236.45447  23022628.789    23022628.8064   23022634.4404
        -0.000          -0.000
  -1587775.464 9  -1217927.71947  22714541.903    22714541.9804   22714548.0084
        -0.000          -0.000
   -493403.650 9   -385345.87649  20356640.483    20356639.7714   20356645.3244
        -0.000          -0.000
  -1584804.562 9  -1217681.26845  24019549.728    24019549.2424   24019555.7054
        -0.000          -0.000
 97  3 14 21 17  0.0000000  0  6 27  2 26  4  7  9                   0.000000093
    330126.032 9    243771.05647  22338152.715    22338152.2494   22338158.1074
        -0.000          -0.000
   -521894.957 9   -406926.66348  21451499.100    21451498.3774   21451503.9744
        -0.000          -0.000
   -338496.082 9   -266879.06947  23029553.991    23029554.0214   23029559.6684
        -0.000          -0.000
  -1684295.433 9  -1293138.02647  22696174.776    22696174.8554   22696180.8324
        -0.000          -0.000
   -469443.061 9   -366675.27749  20361200.049    20361199.3454   20361204.8924
        -0.000          -0.000
  -1681717.727 9  -1293197.98545  24001107.840    24001107.3194   24001113.7524
        -0.000          -0.000
 97  3 14 21 17 30.0000000  0  6 27  2 26  4  7  9                   0.000000069
    427796.591 9    319877.95247  22356738.874    22356738.4124   22356744.3004
        -0.000          -0.000
   -503513.575 9   -392603.51748  21454996.966    21454996.2454   21455001.8374
        -0.000          -0.000
   -301662.921 9   -238177.93747  23036563.175    23036563.1994   23036568.8364
        -0.000          -0.000
  -1780576.327 9  -1368162.04347  22677853.127    22677853.2194   22677859.1294
        -0.000          -0.000
   -445075.002 9   -347687.17249  20365837.200    20365836.4754   20365842.0234
        -0.000          -0.000
  -1778488.195 9  -1368603.46545  23982692.982    23982692.6384   23982698.9494
        -0.000          -0.000
 97  3 14 21 18  0.0000000  0  6 27  2 26  4  7  9                   0.000000053
    525845.660 9    396279.78047  22375397.044    22375396.6054   22375402.4734
        -0.000          -0.000
   -484960.350 9   -378146.45048  21458527.476    21458526.7714   21458532.4194
        -0.000          -0.000
   -264413.978 9   -209152.78647  23043651.504    23043651.5224   23043657.2014
        -0.000          -0.000
  -1876648.947 9  -1443023.76847  22659571.179    22659571.2354   22659577.1204
        -0.000          -0.000
   -420321.174 9   -328398.46549  20370547.745    20370547.0244   20370552.5704
        -0.000          -0.000
  -1875127.360 9  -1443906.66246  23964303.164    23964302.7784   23964309.1554
        -0.000          -0.000
 97  3 14 21 18 30.0000000  0  6 27  2 26  4  7  9                   0.000000046
    624241.779 9    472952.02647  22394121.248    22394120.8134   22394126.7274
        -0.000          -0.000
   -466222.041 9   -363545.17848  21462093.255    21462092.5724   21462098.2434
        -0.000          -0.000
   -226762.402 9   -179813.92747  23050816.348    23050816.4024   23050822.1424
        -0.000          -0.000
  -1972527.356 9  -1517734.18047  22641326.152    22641326.2764   22641332.0624
        -0.000          -0.000
   -395194.752 9   -308819.42649  20375329.179    20375328.4544   20375333.9814
        -0.000          -0.000
  -1971626.795 9  -1519100.96246  23945939.998    23945939.6614   23945945.8424
        -0.000          -0.000
 97  3 14 21 19  0.0000000  0  6 27  2 26  4  7  9                   0.000000040
    722951.159 9    549868.38747  22412904.984    22412904.5894   22412910.5674
        -0.000          -0.000
   -447284.410 9   -348788.58148  21465697.009    21465696.3374   21465701.9914
        -0.000          -0.000
   -188722.574 9   -150172.51246  23058055.007    23058055.0614   23058060.8924
        -0.000          -0.000
  -2068224.540 9  -1592303.36047  22623115.714    22623115.7934   22623121.5214
        -0.000          -0.000
   -369708.950 9   -288960.35249  20380179.035    20380178.2964   20380183.8074
        -0.000          -0.000
  -2067991.530 9  -1594190.31246  23927602.500    23927602.1854   23927608.2694
        -0.000          -0.000
 97  3 14 21 19 30.0000000  0  6 27  2 26  4  7  9                   0.000000035
    821937.017 9    627000.16947  22431741.352    22431740.9994   22431747.0094
        -0.000          -0.000
   -428138.415 9   -333869.62948  21469340.406    21469339.7254   21469345.3624
        -0.000          -0.000
   -150324.892 9   -120252.26346  23065361.825    23065361.8624   23065367.7374
        -0.000          -0.000
  -2163748.332 9  -1666737.45447  22604938.245    22604938.2774   22604943.9094
        -0.000          -0.000
   -343903.182 9   -268851.95349  20385089.667    20385088.9474   20385094.4704
        -0.000          -0.000
  -2164234.248 9  -1669184.57746  23909288.131    23909287.9244   23909293.9444
        -0.000          -0.000
 97  3 14 21 20  0.0000000  0  6 27  2 26  4  7  9                   0.000000033
    921164.532 9    704320.26247  22450623.767    22450623.3774   22450629.4824
        -0.000          -0.000
   -408814.561 9   -318812.08648  21473017.663    21473017.0004   21473022.6254
        -0.000          -0.000
   -111587.411 9    -90067.23146  23072733.323    23072733.3594   23072739.2644
        -0.000          -0.000
  -2259100.489 9  -1741037.79547  22586793.337    22586793.4184   22586798.9954
        -0.000          -0.000
   -317808.927 9   -248518.75949  20390055.232    20390054.5194   20390060.0584
        -0.000          -0.000
  -2260354.289 9  -1744083.24546  23890997.061    23890996.8274   23891002.9324
        -0.000          -0.000
 97  3 14 21 20 30.0000000  0  6 27  2 26  4  7  9                   0.000000014
   1020606.788 9    781807.68247  22469547.011    22469546.6664   22469552.7874
        -0.000          -0.000
   -389344.553 9   -303640.66048  21476722.707    21476722.0354   21476727.7004
        -0.000          -0.000
    -72508.661 9    -59616.27747  23080169.937    23080169.9614   23080175.8234
        -0.000          -0.000
  -2354284.596 9  -1815207.19847  22568680.392    22568680.5284   22568686.0304
        -0.000          -0.000
   -291441.733 9   -227972.88949  20395072.786    20395072.0354   20395077.5534
        -0.000          -0.000
  -2356365.438 9  -1818897.05346  23872726.753    23872726.5164   23872732.6444
        -0.000          -0.000
 97  3 14 21 21  0.0000000  0  6 27  2 26  4  7  9                  -0.000000018
   1120292.024 9    859484.43647  22488516.501    22488516.1534   22488522.3074
        -0.000          -0.000
   -369737.068 9   -288362.10648  21480453.971    21480453.3024   21480458.9284
        -0.000          -0.000
    -33063.560 9    -28879.85347  23087676.232    23087676.2244   23087682.0044
        -0.000          -0.000
  -2449275.566 9  -1889226.10347  22550604.220    22550604.4314   22550609.8684
        -0.000          -0.000
   -264784.057 9   -207200.66649  20400145.561    20400144.8334   20400150.3444
        -0.000          -0.000
  -2452256.629 9  -1893617.42046  23854479.246    23854479.0084   23854485.1644
        -0.000          -0.000
 97  3 14 21 21 30.0000000  0  6 27  2 26  4  7  9                  -0.000000057
   1220251.797 9    937375.12347  22507538.265    22507537.9564   22507544.1264
        -0.000          -0.000
   -350015.323 9   -272994.51348  21484206.946    21484206.2344   21484211.8714
        -0.000          -0.000
      6771.382 9      2160.34547  23095256.669    23095256.6864   23095262.3524
        -0.000          -0.000
  -2544048.749 9  -1963075.30847  22532569.523    22532569.6664   22532575.0584
        -0.000          -0.000
   -237818.169 9   -186188.27849  20405277.044    20405276.3314   20405281.8324
        -0.000          -0.000
  -2548017.022 9  -1968235.84946  23836256.705    23836256.4224   23836262.6164
        -0.000          -0.000
 97  3 14 21 22  0.0000000  0  6 27  2 26  4  7  9                  -0.000000099
   1320525.245 9   1015510.22847  22526619.749    22526619.4264   22526625.6334
        -0.000          -0.000
   -330157.272 9   -257520.71248  21487985.797    21487985.0984   21487990.7124
        -0.000          -0.000
     47039.217 9     33537.84947  23102919.385    23102919.4114   23102925.0824
        -0.000          -0.000
  -2638569.740 9  -2036727.99047  22514582.793    22514582.9394   22514588.3024
        -0.000          -0.000
   -210496.687 9   -164898.80549  20410476.201    20410475.4924   20410480.9864
        -0.000          -0.000
  -2643617.292 9  -2042729.48846  23818064.597    23818064.3374   23818070.4624
        -0.000          -0.000
 97  3 14 21 22 30.0000000  0  6 27  2 26  4  7  9                  -0.000000130
   1421150.501 9   1093919.47047  22545768.278    22545767.9404   22545774.0784
        -0.000          -0.000
   -310124.413 9   -241910.70448  21491797.961    21491797.2684   21491802.8794
        -0.000          -0.000
     87748.051 9     65258.98647  23110666.025    23110666.0394   23110671.7064
        -0.000          -0.000
  -2732818.719 9  -2110168.72847  22496647.749    22496647.9054   22496653.2964
        -0.000          -0.000
   -182773.641 9   -143296.42449  20415751.677    20415750.9704   20415756.4624
        -0.000          -0.000
  -2739034.316 9  -2117080.35846  23799907.387    23799907.0774   23799913.2114
        -0.000          -0.000
 97  3 14 21 23  0.0000000  0  6 27  2 26  4  7  9                  -0.000000143
   1522142.560 9   1172614.51947  22564986.572    22564986.1954   22564992.2674
        -0.000          -0.000
   -289900.236 9   -226151.61248  21495646.502    21495645.8144   21495651.4314
        -0.000          -0.000
    128887.080 9     97315.34547  23118494.544    23118494.5594   23118500.2034
        -0.000          -0.000
  -2826784.442 9  -2183388.74547  22478766.638    22478766.8044   22478772.1504
        -0.000          -0.000
   -154645.365 9   -121378.27949  20421104.308    20421103.6244   20421109.1144
        -0.000          -0.000
  -2834263.089 9  -2191284.54746  23781786.021    23781785.6634   23781791.7384
        -0.000          -0.000
 97  3 14 21 23 30.0000000  0  6 27  2 26  4  7  9                  -0.000000131
   1623492.981 9   1251588.81147  22584273.027    22584272.6634   22584278.6854
        -0.000          -0.000
   -269459.812 9   -210224.01648  21499536.231    21499535.5514   21499541.1694
        -0.000          -0.000
    170437.416 9    129692.21247  23126401.323    23126401.3564   23126407.0654
        -0.000          -0.000
  -2920470.655 9  -2256390.94647  22460938.777    22460938.8764   22460944.2064
        -0.000          -0.000
   -126122.566 9    -99152.71249  20426532.073    20426531.3664   20426536.8374
        -0.000          -0.000
  -2929302.218 9  -2265340.95046  23763700.607    23763700.2234   23763706.3514
        -0.000          -0.000
 97  3 14 21 24  0.0000000  0  6 27  2 26  4  7  9                  -0.000000103
   1725155.778 9   1330806.51947  22603618.884    22603618.5504   22603624.5734
        -0.000          -0.000
   -248805.185 9   -194129.51148  21503466.725    21503466.0404   21503471.6654
        -0.000          -0.000
    212353.446 9    162354.01947  23134377.679    23134377.7344   23134383.4854
        -0.000          -0.000
  -3013914.958 9  -2329204.66647  22443156.969    22443157.0464   22443162.2994
        -0.000          -0.000
    -97245.848 9    -76651.37149  20432027.193    20432026.4824   20432031.9604
        -0.000          -0.000
  -3024173.942 9  -2339266.90546  23745647.095    23745646.7114   23745652.8094
        -0.000          -0.000
 97  3 14 21 24 30.0000000  0  6 27  2 26  4  7  9                  -0.000000078
   1827090.161 9   1410235.86046  22623016.456    22623016.1414   22623022.1024
        -0.000          -0.000
   -227972.560 9   -177896.30948  21507431.033    21507430.3364   21507436.0034
        -0.000          -0.000
    254598.000 9    195271.82547  23142416.603    23142416.6684   23142422.4274
        -0.000          -0.000
  -3107151.026 9  -2401856.11847  22425414.766    22425414.8384   22425420.0934
        -0.000          -0.000
    -68056.894 9    -53906.72649  20437581.644    20437580.9474   20437586.4564
        -0.000          -0.000
  -3118907.586 9  -2413085.27146  23727619.855    23727619.5314   23727625.4764
        -0.000          -0.000
 97  3 14 21 25  0.0000000  0  6 27  2 26  4  7  9                  -0.000000057
   1929288.347 9   1489870.75246  22642464.225    22642463.9184   22642469.8304
        -0.000          -0.000
   -206953.066 9   -161517.48648  21511430.883    21511430.2074   21511435.9374
        -0.000          -0.000
    297188.874 9    228459.50247  23150521.450    23150521.4974   23150527.1464
        -0.000          -0.000
  -3200168.638 9  -2474337.34547  22407714.111    22407714.1534   22407719.4164
        -0.000          -0.000
    -38565.982 9    -30926.79249  20443193.589    20443192.8924   20443198.4114
        -0.000          -0.000
  -3213501.453 9  -2486794.70946  23709619.142    23709618.7724   23709624.7294
        -0.000          -0.000
 97  3 14 21 25 30.0000000  0  6 27  2 26  4  7  9                  -0.000000042
   2031737.691 9   1569701.36946  22661959.773    22661959.4524   22661965.3964
        -0.000          -0.000
   -185742.470 9   -144989.76048  21515467.167    21515466.4824   21515472.2384
        -0.000          -0.000
    340133.863 9    261923.10247  23158693.724    23158693.8004   23158699.3884
        -0.000          -0.000
  -3292972.797 9  -2546652.24447  22390053.997    22390054.0284   22390059.3834
        -0.000          -0.000
     -8768.619 9     -7708.06649  20448863.859    20448863.1564   20448868.6714
        -0.000          -0.000
  -3307943.354 9  -2560385.73646  23691647.280    23691646.8744   23691652.9444
        -0.000          -0.000
 97  3 14 21 26  0.0000000  0  6 27  2 26  4  7  9                  -0.000000040
   2134435.360 9   1649725.46346  22681502.586    22681502.2124   22681508.2404
        -0.000          -0.000
   -164352.530 9   -128322.28848  21519537.577    21519536.8954   21519542.6034
        -0.000          -0.000
    383441.179 9    295669.04147  23166934.965    23166935.0244   23166940.6304
        -0.000          -0.000
  -3385553.952 9  -2618793.36347  22372436.285    22372436.3554   22372441.8414
        -0.000          -0.000
     21352.267 9     15762.75849  20454595.713    20454595.0184   20454600.5124
        -0.000          -0.000
  -3402223.282 9  -2633850.55846  23673706.304    23673705.9444   23673712.0234
        -0.000          -0.000
 97  3 14 21 26 30.0000000  0  6 27  2 26  4  7  9                  -0.000000046
   2237401.419 9   1729958.70246  22701096.379    22701095.9694   22701102.1614
        -0.000          -0.000
   -142782.902 9   -111514.79848  21523642.172    21523641.4834   21523647.1314
        -0.000          -0.000
    427128.041 9    329710.73247  23175248.367    23175248.4194   23175253.9814
        -0.000          -0.000
  -3477888.953 9  -2690742.67847  22354865.420    22354865.4994   22354871.1064
        -0.000          -0.000
     51806.734 9     39493.51549  20460391.027    20460390.3364   20460395.7894
        -0.000          -0.000
  -3496332.573 9  -2707182.39846  23655797.787    23655797.4734   23655803.4664
        -0.000          -0.000
 97  3 14 21 27  0.0000000  0  6 27  2 26  4  7  9                  -0.000000048
   2340639.837 9   1810404.15046  22720741.998    22720741.6374   22720747.8604
        -0.000          -0.000
   -121032.146 9    -94566.16648  21527781.265    21527780.5584   21527786.1414
        -0.000          -0.000
    471185.809 9    364041.44947  23183632.276    23183632.3754   23183637.9874
        -0.000          -0.000
  -3569966.396 9  -2762491.30347  22337343.606    22337343.6994   22337349.3554
        -0.000          -0.000
     82591.614 9     63481.73649  20466249.254    20466248.5414   20466253.9584
        -0.000          -0.000
  -3590259.896 9  -2780372.47946  23637923.997    23637923.6764   23637929.4924
        -0.000          -0.000
 97  3 14 21 27 30.0000000  0  6 27  2 26  4  7  9                  -0.000000040
   2444167.208 9   1891074.76446  22740442.572    22740442.2194   22740448.5174
        -0.000          -0.000
    -99093.636 9    -77471.23148  21531956.112    21531955.3874   21531960.9034
        -0.000          -0.000
    515606.987 9    398655.32347  23192085.413    23192085.5044   23192091.1434
        -0.000          -0.000
  -3661771.784 9  -2834027.93447  22319873.659    22319873.7134   22319879.3854
        -0.000          -0.000
    113728.388 9     87744.15949  20472174.401    20472173.6694   20472179.0624
        -0.000          -0.000
  -3683988.004 9  -2853407.30546  23620088.183    23620087.8234   23620093.6534
        -0.000          -0.000
 97  3 14 21 28  0.0000000  0  6 27  2 26  4  7  9                  -0.000000026
   2547971.232 9   1971960.97246  22760195.869    22760195.4844   22760201.8354
        -0.000          -0.000
    -76989.750 9    -60247.43148  21536162.356    21536161.6354   21536167.0934
        -0.000          -0.000
    560363.766 9    433530.70547  23200602.292    23200602.3174   23200608.1864
        -0.000          -0.000
  -3753311.297 9  -2905357.39347  22302454.275    22302454.3324   22302459.9154
        -0.000          -0.000
    145184.513 9    112255.42349  20478160.286    20478159.5754   20478164.9424
        -0.000          -0.000
  -3777540.426 9  -2926305.24646  23602285.761    23602285.4184   23602291.2374
        -0.000          -0.000
 97  3 14 21 28 30.0000000  0  6 27  2 26  4  7  9                  -0.000000001
   2652055.479 9   2053065.52246  22780002.528    22780002.1724   22780008.4554
        -0.000          -0.000
    -54706.001 9    -42883.47648  21540402.888    21540402.1404   21540407.5844
        -0.000          -0.000
    605467.914 9    468676.77046  23209185.268    23209185.3054   23209191.2214
        -0.000          -0.000
  -3844568.252 9  -2976466.67847  22285088.673    22285088.7444   22285094.3024
        -0.000          -0.000
    176951.051 9    137008.57349  20484205.296    20484204.5704   20484209.9404
        -0.000          -0.000
  -3870917.638 9  -2999066.65746  23584516.647    23584516.3094   23584521.9754
        -0.000          -0.000
 97  3 14 21 29  0.0000000  0  6 27  2 26  4  7  9                   0.000000026
   2756400.226 9   2134373.04846  22799858.809    22799858.4164   22799864.5984
        -0.000          -0.000
    -32244.644 9    -25381.13248  21544677.141    21544676.3914   21544681.8554
        -0.000          -0.000
    650918.946 9    504093.13546  23217834.182    23217834.2874   23217840.2154
        -0.000          -0.000
  -3935547.228 9  -3047359.35147  22267775.923    22267775.9704   22267781.5114
        -0.000          -0.000
    209025.130 9    162001.35949  20490308.788    20490308.0554   20490313.4204
        -0.000          -0.000
  -3964116.573 9  -3071689.15546  23566781.431    23566781.0764   23566786.6264
        -0.000          -0.000
 97  3 14 21 29 30.0000000  0  6 27  2 26  4  7  9                   0.000000045
   2861003.621 9   2215882.12246  22819764.283    22819763.8764   22819769.9024
        -0.000          -0.000
     -9587.189 9     -7725.98448  21548988.684    21548987.9364   21548993.4714
        -0.000          -0.000
    696733.784 9    539792.97846  23226552.483    23226552.5324   23226558.4274
        -0.000          -0.000
  -4026242.685 9  -3118031.09647  22250517.069    22250517.1784   22250522.7374
        -0.000          -0.000
    241409.806 9    187236.16849  20496471.355    20496470.6394   20496475.9924
        -0.000          -0.000
  -4057144.805 9  -3144178.64046  23549078.674    23549078.3624   23549083.8784
        -0.000          -0.000
 97  3 14 21 30  0.0000000  0  6 27  2 26  4  7  9                   0.000000054
   2965860.441 9   2297588.67446  22839717.997    22839717.5724   22839723.4904
        -0.000          -0.000
     13268.335 9     10083.50348  21553337.875    21553337.1254   21553342.7854
        -0.000          -0.000
    742936.684 9    575795.21247  23235344.656    23235344.6854   23235350.5784
        -0.000          -0.000
  -4116640.997 9  -3188471.30547  22233314.715    22233314.8674   22233320.4814
        -0.000          -0.000
    274092.689 9    212703.35049  20502690.710    20502690.0034   20502695.3564
        -0.000          -0.000
  -4150004.880 9  -3216537.08046  23531407.996    23531407.6654   23531413.2464
        -0.000          -0.000
 97  3 14 21 30 30.0000000  0  6 27  2 26  4  7  9                   0.000000040
   3070957.290 9   2379482.24946  22859717.355    22859716.9474   22859722.8004
        -0.000          -0.000
     36309.705 9     28037.80448  21557722.420    21557721.7304   21557727.4654
        -0.000          -0.000
    789518.024 9    612092.33447  23244208.880    23244208.9494   23244214.7194
        -0.000          -0.000
  -4206757.447 9  -3258691.87547  22216166.134    22216166.2584   22216171.8984
        -0.000          -0.000
    307074.415 9    238403.39249  20508966.943    20508966.2284   20508971.5734
        -0.000          -0.000
  -4242698.731 9  -3288765.99546  23513768.877    23513768.5074   23513774.1444
        -0.000          -0.000
 97  3 14 21 31  0.0000000  0  6 27  2 26  4  7  9                   0.000000031
   3176331.797 9   2461592.19146  22879769.507    22879769.1154   22879774.9634
        -0.000          -0.000
     59577.251 9     46168.34648  21562150.088    21562149.3954   21562155.1324
        -0.000          -0.000
    836492.553 9    648695.84447  23253147.925    23253147.9614   23253153.6934
        -0.000          -0.000
  -4296578.752 9  -3328682.46447  22199073.751    22199073.8314   22199079.4874
        -0.000          -0.000
    340396.358 9    264368.54549  20515307.928    20515307.1984   20515312.5484
        -0.000          -0.000
  -4335184.444 9  -3360832.75446  23496169.392    23496169.1104   23496174.6204
        -0.000          -0.000
 97  3 14 21 31 30.0000000  0  6 27  2 26  4  7  9                   0.000000004
   3281942.066 9   2543885.84346  22899866.539    22899866.0734   22899872.0494
        -0.000          -0.000
     83032.852 9     64445.42948  21566613.608    21566612.9254   21566618.6094
        -0.000          -0.000
    883797.259 9    685556.62046  23262149.730    23262149.7384   23262155.5184
        -0.000          -0.000
  -4386142.890 9  -3398472.66147  22182030.274    22182030.3204   22182035.9964
        -0.000          -0.000
    374016.753 9    290566.25349  20521705.699    20521704.9794   20521710.3334
        -0.000          -0.000
  -4427502.859 9  -3432769.13546  23478601.780    23478601.5034   23478607.0144
        -0.000          -0.000
 97  3 14 21 32  0.0000000  0  6 27  2 26  4  7  9                  -0.000000020
   3387800.130 9   2626372.58346  22920010.687    22920010.2384   22920016.2444
        -0.000          -0.000
    106671.110 9     82864.83448  21571111.866    21571111.1704   21571116.8234
        -0.000          -0.000
    931430.794 9    722673.63546  23271214.021    23271214.0944   23271219.9104
        -0.000          -0.000
  -4475432.924 9  -3468049.27347  22165038.940    22165038.9734   22165044.6794
        -0.000          -0.000
    407943.801 9    317002.91749  20528161.859    20528161.1104   20528166.4374
        -0.000          -0.000
  -4519620.298 9  -3504548.90846  23461072.357    23461072.0384   23461077.6704
        -0.000          -0.000
 97  3 14 21 32 30.0000000  0  7 27  2 26  4 24  7  9                0.000000032
   3493920.216 9   2709063.49946  22940204.618    22940204.1574   22940210.2434
        -0.000          -0.000
    130515.367 9    101444.77148  21575649.365    21575648.6404   21575654.2774
        -0.000          -0.000
    979388.787 9    760043.47446  23280340.138    23280340.2464   23280346.0594
        -0.000          -0.000
  -4564437.805 9  -3537403.68147  22148101.858    22148101.8884   22148107.5574
        -0.000          -0.000
  -1083053.61218   -236043.94652         0.000           0.0005          0.0005
        -0.000          -0.000
    442198.220 9    343694.67949  20534680.222    20534679.4774   20534684.7814
        -0.000          -0.000
  -4611504.616 9  -3576147.03946  23443587.386    23443587.0724   23443592.6434
        -0.000          -0.000
 97  3 14 21 33  0.0000000  0  7 27  2 26  4 24  7  9                0.000000037
   3600234.149 9   2791905.48146  22960435.507    22960434.9624   22960441.1874
        -0.000          -0.000
    154508.220 9    120140.48448  21580215.083    21580214.3684   21580219.9914
        -0.000          -0.000
   1027607.662 9    797616.60546  23289515.927    23289516.0534   23289521.8264
        -0.000          -0.000
  -4653201.877 9  -3606570.44247  22131210.576    22131210.6024   22131216.2684
        -0.000          -0.000
  -1190866.437 8   -320053.85753         0.000           0.0004   24531284.6735
        -0.000          -0.000
    476708.497 9    370585.80549  20541247.299    20541246.5414   20541251.8594
        -0.000          -0.000
  -4703223.365 9  -3647616.15946  23426133.936    23426133.6364   23426139.1144
        -0.000          -0.000
 97  3 14 21 33 30.0000000  0  7 27  2 26  4 24  7  9                0.000000039
   3706782.178 9   2874929.85446  22980710.984    22980710.4454   22980716.6534
        -0.000          -0.000
    178676.556 9    138972.94548  21584814.199    21584813.4844   21584819.0824
        -0.000          -0.000
   1076143.755 9    835436.90947  23298752.128    23298752.2394   23298757.9974
        -0.000          -0.000
  -4741660.376 9  -3675499.09547  22114377.396    22114377.4354   22114383.1384
        -0.000          -0.000
  -1298721.44718   -404096.70045  24510747.751    24510747.6725   24510757.2594
        -0.000          -0.000
    511508.364 9    397702.59149  20547869.481    20547868.7564   20547874.0994
        -0.000          -0.000
  -4794735.934 9  -3718924.61346  23408719.662    23408719.2814   23408724.9154
        -0.000          -0.000
 97  3 14 21 34  0.0000000  0  7 27  2 26  4 24  7  9                0.000000036
   3813587.333 9   2958154.58446  23001035.355    23001034.7964   23001041.0314
        -0.000          -0.000
    203037.087 9    157955.17248  21589449.831    21589449.1154   21589454.7264
        -0.000          -0.000
   1125023.582 9    873525.06746  23308053.760    23308053.8194   23308059.6944
        -0.000          -0.000
  -4829795.167 9  -3744175.51147  22097605.847    22097605.8864   22097611.5344
        -0.000          -0.000
  -1406613.981 8   -488168.62345  24490216.299    24490215.0974   24490223.6754
        -0.000          -0.000
    546618.152 9    425060.87849  20554550.687    20554549.9114   20554555.3034
        -0.000          -0.000
  -4886031.872 9  -3790064.24746  23391346.475    23391346.0784   23391351.8604
        -0.000          -0.000
 97  3 14 21 34 30.0000000  0  7 27  2 26  4 24  7  9                0.000000034
   3920685.823 9   3041607.89146  23021415.564    23021415.0064   23021421.2904
        -0.000          -0.000
    227640.185 9    177126.40348  21594131.632    21594130.9444   21594136.5754
        -0.000          -0.000
   1174288.016 9    911912.89846  23317428.531    23317428.5404   23317434.4574
        -0.000          -0.000
  -4917567.935 9  -3812569.83447  22080903.237    22080903.2494   22080908.8524
        -0.000          -0.000
  -1514513.320 8   -572245.87745  24469683.604    24469682.9404   24469692.2874
        -0.000          -0.000
    582080.936 9    452694.21449  20561298.984    20561298.2294   20561303.6594
        -0.000          -0.000
  -4977095.338 9  -3861022.74946  23374017.471    23374017.1544   23374023.0384
        -0.000          -0.000
 97  3 14 21 35  0.0000000  0  7 27  2 26  4 24  7  9                0.000000007
   4028041.919 9   3125261.92946  23041844.773    23041844.2144   23041850.5484
        -0.000          -0.000
    252442.844 9    196453.13948  21598851.419    21598850.7174   21598856.3884
        -0.000          -0.000
   1223903.643 9    950574.39346  23326870.014    23326870.0144   23326876.0854
        -0.000          -0.000
  -5005019.339 9  -3880713.73747  22064261.815    22064261.8094   22064267.3404
        -0.000          -0.000
  -1622454.492 8   -656355.70945  24449142.922    24449142.2714   24449152.0404
        -0.000          -0.000
    617848.669 9    480565.17249  20568105.330    20568104.6174   20568110.0444
        -0.000          -0.000
  -5067971.071 9  -3931834.97646  23356724.267    23356723.9274   23356729.9434
        -0.000          -0.000
 97  3 14 21 35 30.0000000  0  7 27  2 26  4 24  7  9               -0.000000022
   4135680.791 9   3209136.30846  23062327.675    23062327.1634   23062333.5784
        -0.000          -0.000
    277460.427 9    215947.34548  21603612.124    21603611.4214   21603617.0654
        -0.000          -0.000
   1273881.643 9    989518.26746  23336380.485    23336380.4704   23336386.5744
        -0.000          -0.000
  -5092138.580 9  -3948598.81747  22047683.574    22047683.6064   22047689.0574
        -0.000          -0.000
  -1730410.975 8   -740477.47845  24428599.380    24428598.4034   24428608.4774
        -0.000          -0.000
    653937.424 9    508686.28549  20574972.864    20574972.1334   20574977.5094
        -0.000          -0.000
  -5158632.502 9  -4002480.20046  23339471.862    23339471.5404   23339477.6104
        -0.000          -0.000
 97  3 14 21 36  0.0000000  0  7 27  2 26  4 24  7  9               -0.000000036
   4243604.439 9   3293232.58946  23082864.751    23082864.3264   23082870.8384
        -0.000          -0.000
    302705.429 9    235618.76248  21608416.148    21608415.4354   21608421.0384
        -0.000          -0.000
   1324217.799 9   1028741.22146  23345959.125    23345959.1494   23345965.2444
        -0.000          -0.000
  -5178925.107 9  -4016224.64047  22031168.710    22031168.6994   22031174.1294
        -0.000          -0.000
  -1838366.610 8   -824598.58645  24408056.049    24408055.3044   24408065.0434
        -0.000          -0.000
    690344.382 9    537055.34649  20581900.904    20581900.1474   20581905.4864
        -0.000          -0.000
  -5249068.351 9  -4072949.63046  23322262.526    23322262.1544   23322268.2694
        -0.000          -0.000
 97  3 14 21 36 30.0000000  0  7 27  2 26  4 24  7  9               -0.000000035
   4351767.463 9   3377515.39746  23103447.414    23103447.0274   23103453.6464
        -0.000          -0.000
    328134.426 9    255433.55448  21613255.174    21613254.4454   21613260.0184
        -0.000          -0.000
   1374857.180 9   1068200.46446  23355595.414    23355595.3784   23355601.5754
        -0.000          -0.000
  -5265424.306 9  -4083626.56847  22014708.420    22014708.4454   22014713.8634
        -0.000          -0.000
  -1946339.512 8   -908733.17045  24387509.412    24387508.7484   24387518.4264
        -0.000          -0.000
    727002.743 9    565620.30949  20588876.796    20588876.0484   20588881.3444
        -0.000          -0.000
  -5339306.433 9  -4143264.97546  23305090.716    23305090.3924   23305096.4414
        -0.000          -0.000
 97  3 14 21 37  0.0000000  0  7 27  2 26  4 24  7  9               -0.000000021
   4460138.336 9   3461960.16246  23124069.669    23124069.3204   23124076.0984
        -0.000          -0.000
    353713.191 9    275365.04848  21618122.695    21618121.9554   21618127.5284
        -0.000          -0.000
   1425763.660 9   1107867.82446  23365282.518    23365282.5214   23365288.7204
        -0.000          -0.000
  -5351672.623 9  -4150833.00347  21998295.872    21998295.9474   21998301.3214
        -0.000          -0.000
  -2054345.985 8   -992893.89545  24366956.403    24366955.8474   24366965.6384
        -0.000          -0.000
    763885.392 9    594360.03949  20595895.328    20595894.5594   20595899.8284
        -0.000          -0.000
  -5429357.351 9  -4213434.49046  23287954.558    23287954.2154   23287960.1914
        -0.000          -0.000
 97  3 14 21 37 30.0000000  0  7 27  2 26  4 24  7  9                0.000000002
   4568705.177 9   3546557.61846  23144729.340    23144728.8674   23144735.7974
        -0.000          -0.000
    379447.632 9    295417.84548  21623019.796    21623019.0654   21623024.6034
        -0.000          -0.000
   1476932.775 9   1147739.84746  23375019.697    23375019.7014   23375025.8474
        -0.000          -0.000
  -5437660.434 9  -4217836.45647  21981932.961    21981932.9954   21981938.3614
        -0.000          -0.000
  -2162378.231 9  -1077074.70845  24346398.534    24346398.0394   24346407.5804
        -0.000          -0.000
    801000.372 9    623280.80149  20602958.057    20602957.3104   20602962.5884
        -0.000          -0.000
  -5519214.457 9  -4283452.95746  23270855.267    23270854.9424   23270860.9844
        -0.000          -0.000
 97  3 14 21 38  0.0000000  0  7 27  2 26  4 24  7  9                0.000000024
   4677447.105 9   3631291.51746  23165422.402    23165421.9824   23165428.8164
        -0.000          -0.000
    405340.420 9    315594.03548  21627947.017    21627946.2744   21627951.8274
        -0.000          -0.000
   1528353.269 9   1187807.75146  23384804.714    23384804.7264   23384810.8914
        -0.000          -0.000
  -5523389.108 9  -4284637.97847  21965619.316    21965619.3584   21965624.6954
        -0.000          -0.000
  -2270440.342 9  -1161278.81945  24325834.954    24325834.5954   24325843.9404
        -0.000          -0.000
    838350.042 9    652384.43849  20610065.427    20610064.6794   20610069.9984
        -0.000          -0.000
  -5608883.650 9  -4353325.00946  23253791.763    23253791.4354   23253797.4784
        -0.000          -0.000
 97  3 14 21 38 30.0000000  0  7 27  2 26  4 24  7  9                0.000000047
   4786372.360 9   3716168.27746  23186150.386    23186149.9524   23186156.7364
        -0.000          -0.000
    431420.354 9    335916.05348  21632909.826    21632909.1294   21632914.6484
        -0.000          -0.000
   1580036.752 9   1228080.55646  23394639.828    23394639.8484   23394645.9944
        -0.000          -0.000
  -5608839.614 9  -4351222.75647  21949358.543    21949358.5854   21949363.9554
        -0.000          -0.000
  -2378522.000 9  -1245498.13745  24305267.606    24305267.2844   24305276.6124
        -0.000          -0.000
    875965.333 9    681695.05149  20617223.401    20617222.6644   20617227.9764
        -0.000          -0.000
  -5698345.878 9  -4423035.80446  23236767.614    23236767.2914   23236773.2154
        -0.000          -0.000
 97  3 14 21 39  0.0000000  0  7 27  2 26  4 24  7  9                0.000000062
   4895485.577 9   3801191.50246  23206914.104    23206913.6984   23206920.3894
        -0.000          -0.000
    457702.766 9    356395.84548  21637911.204    21637910.5064   21637916.0344
        -0.000          -0.000
   1632006.600 9   1268576.49946  23404529.414    23404529.4214   23404535.5514
        -0.000          -0.000
  -5693991.655 9  -4417574.96247  21933154.615    21933154.6434   21933160.0304
        -0.000          -0.000
  -2486614.655 9  -1329726.02545  24284698.090    24284697.8144   24284706.8674
        -0.000          -0.000
    913883.442 9    711241.62849  20624439.042    20624438.2794   20624443.5784
        -0.000          -0.000
  -5787584.040 9  -4492571.99346  23219786.063    23219785.7874   23219791.6944
        -0.000          -0.000
 97  3 14 21 39 30.0000000  0  7 27  2 26  4 24  7  9                0.000000071
   5004800.034 9   3886371.53046  23227716.161    23227715.7264   23227722.3404
        -0.000          -0.000
    484202.207 9    377044.75148  21642953.911    21642953.1954   21642958.6984
        -0.000          -0.000
   1684274.425 9   1309304.65846  23414475.631    23414475.6864   23414481.8094
        -0.000          -0.000
  -5778804.179 9  -4483662.60647  21917015.260    21917015.2964   21917020.6894
        -0.000          -0.000
  -2594712.388 9  -1413957.88045  24264127.667    24264127.2944   24264136.3764
        -0.000          -0.000
    952105.356 9    741024.93449  20631712.458    20631711.7034   20631716.9904
        -0.000          -0.000
  -5876581.387 9  -4561920.53146  23202850.576    23202850.2714   23202856.1444
        -0.000          -0.000
 97  3 14 21 40  0.0000000  0  7 27  2 26  4 24  7  9                0.000000084
   5114347.791 9   3971733.35946  23248562.559    23248562.0954   23248568.7554
        -0.000          -0.000
    510934.710 9    397875.26148  21648040.966    21648040.2534   21648045.7574
        -0.000          -0.000
   1736858.418 9   1350279.16446  23424482.106    23424482.1784   23424488.3094
        -0.000          -0.000
  -5863259.643 9  -4549472.02447  21900943.884    21900943.9224   21900949.3034
        -0.000          -0.000
  -2702806.005 9  -1498186.53545  24243558.002    24243557.7544   24243566.6294
        -0.000          -0.000
    990644.919 9    771055.75749  20639046.312    20639045.5564   20639050.8414
        -0.000          -0.000
  -5965325.741 9  -4631071.94146  23185963.056    23185962.7624   23185968.4964
        -0.000          -0.000
 97  3 14 21 40 30.0000000  0  7 27  2 26  4 24  7  9                0.000000097
   5224122.147 9   4057271.75046  23269451.993    23269451.5144   23269458.2074
        -0.000          -0.000
    537877.924 9    418869.96148  21653168.093    21653167.3644   21653172.8374
        -0.000          -0.000
   1789758.111 9   1391499.67446  23434548.633    23434548.6704   23434554.8594
        -0.000          -0.000
  -5947361.932 9  -4615006.24847  21884939.786    21884939.8114   21884945.0874
        -0.000          -0.000
  -2810906.592 9  -1582420.64145  24222987.125    24222986.9754   24222995.5414
        -0.000          -0.000
   1029469.281 9    801308.50049  20646434.282    20646433.5324   20646438.8474
        -0.000          -0.000
  -6053822.885 9  -4700030.72946  23169122.628    23169122.3404   23169127.9784
        -0.000          -0.000
 97  3 14 21 41  0.0000000  0  7 27  2 26  4 24  7  9                0.000000096
   5334107.691 9   4142974.70646  23290381.600    23290381.1254   23290387.8704
        -0.000          -0.000
    565009.024 9    440011.06748  21658330.983    21658330.2704   21658335.7624
        -0.000          -0.000
   1842968.039 9   1432961.92746  23444674.219    23444674.2604   23444680.4084
        -0.000          -0.000
  -6031103.890 9  -4680259.69147  21869004.263    21869004.2834   21869009.4764
        -0.000          -0.000
  -2919013.883 9  -1666659.96445  24202414.946    24202414.6584   24202423.2104
        -0.000          -0.000
   1068553.648 9    831763.84649  20653871.755    20653871.0034   20653876.3644
        -0.000          -0.000
  -6142084.810 9  -4768806.20246  23152326.931    23152326.6284   23152332.2984
        -0.000          -0.000
 97  3 14 21 41 30.0000000  0  7 27  2 26  4 24  7  9                0.000000094
   5444326.875 9   4228859.71346  23311355.542    23311355.0844   23311361.8934
        -0.000          -0.000
    592359.324 9    461322.97648  21663535.585    21663534.8874   21663540.4184
        -0.000          -0.000
   1896501.671 9   1474676.40446  23454861.382    23454861.4174   23454867.4264
        -0.000          -0.000
  -6114448.832 9  -4745203.77247  21853144.276    21853144.2934   21853149.4294
        -0.000          -0.000
  -3027100.322 9  -1750883.04045  24181846.852    24181846.4464   24181854.9774
        -0.000          -0.000
   1107908.378 9    862429.86149  20661360.682    20661359.9384   20661365.3294
        -0.000          -0.000
  -6230097.853 9  -4837387.75846  23135578.535    23135578.2324   23135583.9104
        -0.000          -0.000
 97  3 14 21 42  0.0000000  0  7 27  2 26  4 24  7  9                0.000000079
   5554747.969 9   4314902.05846  23332367.931    23332367.5384   23332374.4124
        -0.000          -0.000
    619910.678 9    482791.55048  21668778.456    21668777.7774   21668783.3214
        -0.000          -0.000
   1950334.028 9   1516623.67646  23465105.334    23465105.3654   23465111.3514
        -0.000          -0.000
  -6197430.849 9  -4809865.05347  21837353.303    21837353.3354   21837358.5344
        -0.000          -0.000
  -3135174.388 9  -1835096.49845  24161281.074    24161280.5344   24161289.2214
        -0.000          -0.000
   1147511.981 9    893289.80949  20668896.973    20668896.2414   20668901.6584
        -0.000          -0.000
  -6317887.780 9  -4905795.46946  23118872.691    23118872.4174   23118877.9494
        -0.000          -0.000
 97  3 14 21 42 30.0000000  0  7 27  2 26  4 24  7  9                0.000000058
   5665373.470 9   4401103.67346  23353419.288    23353418.9544   23353425.8914
        -0.000          -0.000
    647691.110 9    504438.62448  21674064.975    21674064.2774   21674069.8244
        -0.000          -0.000
   2004481.323 9   1558816.33746  23475409.325    23475409.3624   23475415.2814
        -0.000          -0.000
  -6280009.104 9  -4874211.71447  21821639.106    21821639.1444   21821644.4404
        -0.000          -0.000
  -3243198.090 9  -1919270.71945  24140724.741    24140724.2544   24140732.8744
        -0.000          -0.000
   1187389.759 9    924363.40049  20676485.462    20676484.7084   20676490.1284
        -0.000          -0.000
  -6405420.911 9  -4974003.05746  23102215.711    23102215.4584   23102220.9734
        -0.000          -0.000
 97  3 14 21 43  0.0000000  0  7 27  2 26  4 24  7  9                0.000000025
   5776203.349 9   4487464.54446  23374509.537    23374509.1644   23374516.1654
        -0.000          -0.000
    675707.620 9    526269.65148  21679396.371    21679395.6574   21679401.2244
        -0.000          -0.000
   2058923.967 9   1601239.14246  23485769.464    23485769.5104   23485775.4344
        -0.000          -0.000
  -6362187.237 9  -4938246.59348  21806001.068    21806001.1104   21806006.4584
        -0.000          -0.000
  -3351172.342 9  -2003406.40245  24120177.825    24120177.4594   24120185.9604
        -0.000          -0.000
   1227562.124 9    955666.53649  20684129.980    20684129.2354   20684134.6684
        -0.000          -0.000
  -6492702.985 9  -5042015.02546  23085606.514    23085606.2474   23085611.7254
        -0.000          -0.000
 97  3 14 21 43 30.0000000  0  7 27  2 26  4 24  7  9                0.000000003
   5887266.887 9   4574007.49046  23395644.363    23395643.8924   23395650.9294
        -0.000          -0.000
    703972.637 9    548294.32248  21684775.024    21684774.2734   21684779.9034
        -0.000          -0.000
   2113664.484 9   1643894.05546  23496186.299    23496186.3294   23496192.2234
        -0.000          -0.000
  -6443962.335 9  -5001967.41448  21790439.811    21790439.8324   21790445.1684
        -0.000          -0.000
  -3459082.442 8  -2087492.10345  24099643.126    24099642.6754   24099651.0724
        -0.000          -0.000
   1268047.829 9    987213.84149  20691834.169    20691833.4324   20691838.8444
        -0.000          -0.000
  -6579710.404 9  -5109812.98646  23069049.527    23069049.2694   23069054.6774
        -0.000          -0.000
 97  3 14 21 44  0.0000000  0  7 27  2 26  4 24  7  9               -0.000000005
   5998545.903 9   4660718.33546  23416820.072    23416819.6434   23416826.7224
        -0.000          -0.000
    732464.328 9    570495.62748  21690196.778    21690196.0304   21690201.7084
        -0.000          -0.000
   2168689.172 9   1686770.38546  23506657.209    23506657.2194   23506663.0804
        -0.000          -0.000
  -6525364.179 9  -5065397.39048  21774949.552    21774949.5464   21774954.8964
        -0.000          -0.000
  -3566942.909 8  -2171539.12945  24079117.809    24079117.4244   24079125.7444
        -0.000          -0.000
   1308828.971 9   1018991.35549  20699594.606    20699593.8494   20699599.2524
        -0.000          -0.000
  -6666443.698 9  -5177397.33446  23052544.784    23052544.5254   23052549.8404
        -0.000          -0.000
 97  3 14 21 44 30.0000000  0  7 27  2 26  4 24  7  9               -0.000000003
   6110030.743 9   4747589.57846  23438034.964    23438034.5764   23438041.5964
        -0.000          -0.000
    761164.892 9    592859.68448  21695658.335    21695657.5594   21695663.2884
        -0.000          -0.000
   2223985.874 9   1729858.70046  23517179.862    23517179.7864   23517185.7074
        -0.000          -0.000
  -6606413.139 9  -5128552.38948  21759526.405    21759526.4134   21759531.7984
        -0.000          -0.000
  -3674770.584 9  -2255560.62345  24058598.793    24058598.4494   24058606.6704
        -0.000          -0.000
   1349897.454 9   1050992.76649  20707409.697    20707408.9194   20707414.3344
        -0.000          -0.000
  -6752910.505 9  -5244774.03347  23036090.796    23036090.4964   23036095.8254
        -0.000          -0.000
 97  3 14 21 45  0.0000000  0  7 27  2 26  4 24  7  9                0.000000021
   6221732.240 9   4834629.63846  23459291.188    23459290.7514   23459297.7874
        -0.000          -0.000
    790076.033 9    615387.83748  21701159.963    21701159.1904   21701164.9174
        -0.000          -0.000
   2279559.402 9   1773162.71146  23527755.107    23527755.0344   23527761.0334
        -0.000          -0.000
  -6687113.428 9  -5191435.70148  21744169.613    21744169.5854   21744175.0244
        -0.000          -0.000
  -3782559.026 8  -2339551.55545  24038087.333    24038086.9194   24038095.1684
        -0.000          -0.000
   1391249.681 9   1083215.28149  20715278.752    20715277.9824   20715283.4064
        -0.000          -0.000
  -6839103.815 9  -5311937.59946  23019688.759    23019688.4214   23019693.7664
        -0.000          -0.000
 97  3 14 21 45 30.0000000  0  7 27  2 26  4 24  7  9                0.000000053
   6333610.065 9   4921807.07346  23480580.872    23480580.4534   23480587.6164
        -0.000          -0.000
    819179.409 9    638065.77948  21706698.197    21706697.3964   21706703.1454
        -0.000          -0.000
   2335399.427 9   1816674.38046  23538381.124    23538381.1274   23538387.0514
        -0.000          -0.000
  -6767486.768 9  -5254064.24748  21728874.994    21728875.0034   21728880.4774
        -0.000          -0.000
  -3890330.553 9  -2423529.30345  24017579.031    24017578.6864   24017586.9224
        -0.000          -0.000
   1432843.045 9   1115625.69548  20723193.676    20723192.9324   20723198.3654
        -0.000          -0.000
  -6925043.628 9  -5378903.67847  23003334.922    23003334.6034   23003339.8874
        -0.000          -0.000
 97  3 14 21 46  0.0000000  0  7 27  2 26  4 24  7  9                0.000000078
   6445636.098 9   5009100.01446  23501898.771    23501898.3444   23501905.5574
        -0.000          -0.000
    848483.221 9    660899.90648  21712274.520    21712273.7264   21712279.4794
        -0.000          -0.000
   2391511.965 9   1860398.40246  23549059.070    23549059.0364   23549064.9844
        -0.000          -0.000
  -6847535.382 9  -5316439.75448  21713642.191    21713642.2084   21713647.6834
        -0.000          -0.000
  -3998098.857 8  -2507504.54645  23997071.377    23997071.0844   23997079.2954
        -0.000          -0.000
   1474661.501 9   1148211.50249  20731151.488    20731150.7434   20731156.1684
        -0.000          -0.000
  -7010736.538 9  -5445677.32547  22987028.062    22987027.7224   22987033.1034
        -0.000          -0.000
 97  3 14 21 46 30.0000000  0  7 27  2 26  4 24  7  9                0.000000106
   6557834.298 9   5096527.11746  23523249.421    23523249.0934   23523256.2144
        -0.000          -0.000
    878014.922 9    683911.60548  21717894.181    21717893.4254   21717899.1624
        -0.000          -0.000
   2447923.316 9   1904355.25846  23559793.785    23559793.8144   23559799.6794
        -0.000          -0.000
  -6927214.042 9  -5378526.99648  21698479.806    21698479.8154   21698485.2844
        -0.000          -0.000
  -4105831.911 9  -2591452.32245  23976570.330    23976570.1564   23976578.3174
        -0.000          -0.000
   1516729.272 9   1180991.58149  20739156.736    20739155.9914   20739161.4054
        -0.000          -0.000
  -7096151.486 9  -5512234.40447  22970774.023    22970773.7444   22970779.0694
        -0.000          -0.000
 97  3 14 21 47  0.0000000  0  7 27  2 26  4 24  7  9                0.000000082
   6670113.728 9   5184017.50846  23544615.598    23544615.1024   23544622.3284
        -0.000          -0.000
    907699.220 9    707042.21348  21723542.862    21723542.1254   21723547.9004
        -0.000          -0.000
   2504546.408 9   1948477.12746  23570568.793    23570568.7854   23570574.6734
        -0.000          -0.000
  -7006587.561 9  -5440376.46248  21683375.561    21683375.5714   21683380.9964
        -0.000          -0.000
  -4213607.548 9  -2675433.29045  23956061.382    23956060.9554   23956069.1894
        -0.000          -0.000
   1558946.806 9   1213888.36349  20747190.521    20747189.7694   20747195.1594
        -0.000          -0.000
  -7181373.235 9  -5578640.94547  22954556.864    22954556.5714   22954561.8614
        -0.000          -0.000
 97  3 14 21 47 30.0000000  0  7 27  2 26  4 24  7  9                0.000000070
   6782573.844 9   5271648.69646  23566016.154    23566015.6674   23566022.8324
        -0.000          -0.000
    937632.332 9    730366.69948  21729238.885    21729238.1514   21729243.9744
        -0.000          -0.000
   2561470.453 9   1992833.47346  23581401.152    23581401.1064   23581407.0364
        -0.000          -0.000
  -7085563.502 9  -5501916.12948  21668346.966    21668346.9464   21668352.3504
        -0.000          -0.000
  -4321333.110 9  -2759375.22045  23935561.856    23935561.3764   23935569.4844
        -0.000          -0.000
   1601404.309 9   1246972.12949  20755269.976    20755269.2264   20755274.5774
        -0.000          -0.000
  -7266304.424 9  -5644821.04747  22938394.880    22938394.5804   22938399.9544
        -0.000          -0.000
 97  3 14 21 48  0.0000000  0  7 27  2 26  4 24  7  9                0.000000049
   6895186.081 9   5359398.41846  23587445.533    23587445.0814   23587452.3084
        -0.000          -0.000
    967758.564 9    753841.66948  21734971.730    21734971.0424   21734976.8604
        -0.000          -0.000
   2618628.628 9   2037372.27546  23592278.050    23592278.0564   23592283.8204
        -0.000          -0.000
  -7164177.518 9  -5563173.77448  21653387.231    21653387.2124   21653392.5904
        -0.000          -0.000
  -4429040.830 9  -2843303.25345  23915065.669    23915065.1354   23915073.4264
        -0.000          -0.000
   1644067.013 9   1280215.79249  20763388.420    20763387.6764   20763393.0244
        -0.000          -0.000
  -7350982.845 9  -5710804.20047  22922281.129    22922280.8654   22922286.1954
        -0.000          -0.000
 97  3 14 21 48 30.0000000  0  7 27  2 26  4 24  7  9                0.000000031
   7007974.442 9   5447285.38546  23608908.518    23608908.0934   23608915.1774
        -0.000          -0.000
    998083.850 9    777471.74048  21740742.536    21740741.8484   21740747.6124
        -0.000          -0.000
   2676003.750 9   2082080.12046  23603196.267    23603196.2674   23603202.0524
        -0.000          -0.000
  -7242413.431 9  -5624136.79848  21638499.441    21638499.4394   21638504.8124
        -0.000          -0.000
  -4536702.553 9  -2927195.44345  23894578.295    23894577.8874   23894585.9574
        -0.000          -0.000
   1686951.515 9   1313632.28648  20771549.059    20771548.3164   20771553.6774
        -0.000          -0.000
  -7435405.201 9  -5776587.83747  22906216.227    22906215.8774   22906221.1454
        -0.000          -0.000
 97  3 14 21 49  0.0000000  0  7 27  2 26  4 24  7  9                0.000000014
   7120937.998 9   5535308.86945  23630404.813    23630404.4014   23630411.4194
        -0.000          -0.000
   1028608.117 9    801256.87248  21746551.192    21746550.4864   21746556.2054
        -0.000          -0.000
   2733570.647 9   2126937.39346  23614150.944    23614150.9534   23614156.6454
        -0.000          -0.000
  -7320292.676 9  -5684821.88848  21623679.490    21623679.4784   21623684.8794
        -0.000          -0.000
  -4644334.584 9  -3011064.48845  23874096.622    23874096.1774   23874104.1504
        -0.000          -0.000
   1730044.329 9   1347211.10348  20779749.368    20779748.5904   20779753.9524
        -0.000          -0.000
  -7519597.298 9  -5842192.02447  22890194.917    22890194.6384   22890199.9324
        -0.000          -0.000
 97  3 14 21 49 30.0000000  0  7 27  2 26  4 24  7  9                0.000000007
   7234093.695 9   5623482.06645  23651937.618    23651937.2244   23651944.1894
        -0.000          -0.000
   1059335.270 9    825200.09848  21752398.407    21752397.7084   21752403.4264
        -0.000          -0.000
   2791334.305 9   2171948.01046  23625143.034    23625143.0254   23625148.8024
        -0.000          -0.000
  -7397797.502 9  -5745215.23948  21608930.771    21608930.7494   21608936.1544
        -0.000          -0.000
  -4751916.128 9  -3094894.20546  23853624.587    23853624.1094   23853631.8974
        -0.000          -0.000
   1773382.631 9   1380981.20748  20787996.335    20787995.5804   20788000.9344
        -0.000          -0.000
  -7603531.237 9  -5907595.08647  22874222.892    22874222.5654   22874227.7644
        -0.000          -0.000
 97  3 14 21 50  0.0000000  0  7 27  2 26  4 24  7  9                0.000000002
   7347428.195 9   5711794.58345  23673504.562    23673504.1144   23673511.1244
        -0.000          -0.000
   1090266.014 9    849301.95848  21758284.306    21758283.6244   21758289.3534
        -0.000          -0.000
   2849290.328 9   2217108.51546  23636171.752    23636171.7694   23636177.4944
        -0.000          -0.000
  -7474923.645 9  -5805313.50748  21594254.055    21594254.0694   21594259.4324
        -0.000          -0.000
  -4859442.599 9  -3178680.98646  23833163.020    23833162.5854   23833170.1524
        -0.000          -0.000
   1816977.221 9   1414951.01348  20796292.119    20796291.3674   20796296.7094
        -0.000          -0.000
  -7687200.763 9  -5972792.07947  22858301.089    22858300.7384   22858306.0054
        -0.000          -0.000
 97  3 14 21 50 30.0000000  0  7 27  2 26  4 24  7  9                0.000000010
   7460955.264 9   5800257.16845  23695108.074    23695107.6484   23695114.6104
        -0.000          -0.000
   1121441.147 9    873594.25248  21764216.738    21764216.0274   21764221.7764
        -0.000          -0.000
   2907482.079 9   2262452.69146  23647245.364    23647245.3534   23647251.0274
        -0.000          -0.000
  -7551635.689 9  -5865089.10648  21579656.178    21579656.1954   21579661.5384
        -0.000          -0.000
  -4966889.008 9  -3262405.38746  23812716.561    23812716.1804   23812723.6494
        -0.000          -0.000
   1860857.086 9   1449143.11448  20804642.216    20804641.4464   20804646.7834
        -0.000          -0.000
  -7770569.970 9  -6037755.07247  22842436.433    22842436.0914   22842441.3294
        -0.000          -0.000
 97  3 14 21 51  0.0000000  0  7 27  2 26  4 24  7  9                0.000000020
   7574663.355 9   5888860.78745  23716746.057    23716745.5594   23716752.6304
        -0.000          -0.000
   1152844.348 9    898064.27148  21770192.574    21770191.8604   21770197.6154
        -0.000          -0.000
   2965936.550 9   2308001.59546  23658368.893    23658368.8324   23658374.6094
        -0.000          -0.000
  -7627921.361 9  -5924532.46048  21565139.476    21565139.5054   21565144.7924
        -0.000          -0.000
  -5074266.595 9  -3346076.15746  23792283.216    23792282.8964   23792290.2984
        -0.000          -0.000
   1905031.719 9   1483564.90548  20813048.419    20813047.6374   20813052.9584
        -0.000          -0.000
  -7853611.054 9  -6102462.37347  22826634.271    22826633.9404   22826639.1484
        -0.000          -0.000
 97  3 14 21 51 30.0000000  0  7 27  2 26  4 24  7  9                0.000000028
   7688530.509 9   5977588.34945  23738414.467    23738414.0274   23738420.7734
        -0.000          -0.000
   1184454.074 9    922695.20648  21776207.712    21776206.9964   21776212.7604
        -0.000          -0.000
   3024655.600 9   2353756.66146  23669542.750    23669542.6964   23669548.5704
        -0.000          -0.000
  -7703784.206 9  -5983646.34148  21550703.229    21550703.2394   21550708.4864
        -0.000          -0.000
  -5181570.268 9  -3429689.32246  23771864.011    23771863.6114   23771870.9674
        -0.000          -0.000
   1949496.147 9   1518212.50548  20821509.748    20821508.9394   20821514.2734
        -0.000          -0.000
  -7936306.773 9  -6166900.56047  22810897.780    22810897.4644   22810902.7064
        -0.000          -0.000
 97  3 14 21 52  0.0000000  0  7 27  2 26  4 24  7  9                0.000000053
   7802581.588 9   6066459.23845  23760117.781    23760117.3224   23760124.1204
        -0.000          -0.000
   1216309.712 9    947517.76748  21782269.687    21782268.9594   21782274.7174
        -0.000          -0.000
   3083672.471 9   2399743.79446  23680773.287    23680773.2624   23680779.1024
        -0.000          -0.000
  -7779208.029 9  -6042418.12748  21536350.552    21536350.5754   21536355.7844
        -0.000          -0.000
  -5288783.730 9  -3513232.18646  23751461.910    23751461.4654   23751468.9354
        -0.000          -0.000
   1994249.359 9   1553085.13348  20830025.974    20830025.1944   20830030.5364
        -0.000          -0.000
  -8018653.431 9  -6231066.77047  22795227.757    22795227.4224   22795232.5684
        -0.000          -0.000
 97  3 14 21 52 30.0000000  0  7 27  2 26  4 24  7  9                0.000000076
   7916795.857 9   6155457.30745  23781852.107    23781851.6174   23781858.3614
        -0.000          -0.000
   1248389.012 9    972514.60848  21788374.195    21788373.4734   21788379.2084
        -0.000          -0.000
   3142978.979 9   2445956.62646  23692058.949    23692058.9784   23692064.8444
        -0.000          -0.000
  -7854208.179 9  -6100859.77248  21522078.503    21522078.5054   21522083.7154
        -0.000          -0.000
  -5395927.741 9  -3596720.94246  23731072.913    23731072.6014   23731080.0674
        -0.000          -0.000
   2039253.197 9   1588153.05048  20838589.909    20838589.1554   20838594.4864
        -0.000          -0.000
  -8100688.026 9  -6294989.78247  22779616.945    22779616.6004   22779621.9044
        -0.000          -0.000
 97  3 14 21 53  0.0000000  0  7 27  2 26  4 24  7  9                0.000000091
   8031147.940 9   6244562.74745  23803612.716    23803612.2524   23803618.8284
        -0.000          -0.000
   1280663.671 9    997663.68248  21794515.963    21794515.1814   21794520.9354
        -0.000          -0.000
   3202533.905 9   2492363.01346  23703392.005    23703392.0134   23703397.8184
        -0.000          -0.000
  -7928827.339 9  -6159004.53848  21507878.913    21507878.9164   21507884.1754
        -0.000          -0.000
  -5503016.994 9  -3680167.02346  23710694.346    23710694.1284   23710701.5514
        -0.000          -0.000
   2084461.399 9   1623380.22148  20847192.745    20847191.9494   20847197.2534
        -0.000          -0.000
  -8182454.458 9  -6358703.85547  22764057.336    22764057.0324   22764062.2384
        -0.000          -0.000
 97  3 14 21 53 30.0000000  0  7 27  2 26  4 24  7  9                0.000000129
   8145672.471 9   6333802.56046  23825406.110    23825405.6344   23825412.1094
        -0.000          -0.000
   1313200.941 9   1023017.38448  21800707.650    21800706.8754   21800712.6624
        -0.000          -0.000
   3262349.193 9   2538972.27946  23714774.549    23714774.5134   23714780.3504
        -0.000          -0.000
  -8003038.395 9  -6216831.30748  21493756.978    21493756.9924   21493762.2704
        -0.000          -0.000
  -5609999.255 9  -3763529.74246  23690336.274    23690335.9734   23690343.4774
        -0.000          -0.000
   2129893.318 9   1658781.71848  20855838.153    20855837.3744   20855842.6844
        -0.000          -0.000
  -8263944.662 9  -6422202.67547  22748550.285    22748549.9174   22748555.1364
        -0.000          -0.000
 97  3 14 21 54  0.0000000  0  7 27  2 26  4 24  7  9                0.000000146
   8260312.341 9   6423132.25346  23847221.501    23847220.9624   23847227.5524
        -0.000          -0.000
   1345965.228 9   1048547.97848  21806942.560    21806941.7484   21806947.5454
        -0.000          -0.000
   3322363.001 9   2585736.24346  23726194.806    23726194.8274   23726200.6874
        -0.000          -0.000
  -8076874.162 9  -6274365.64448  21479706.502    21479706.5094   21479711.7474
        -0.000          -0.000
  -5716924.208 9  -3846847.81246  23669989.120    23669988.8484   23669996.3464
        -0.000          -0.000
   2175496.021 9   1694316.28548  20864516.045    20864515.2874   20864520.5854
        -0.000          -0.000
  -8345216.760 9  -6485531.55847  22733084.667    22733084.3334   22733089.5984
        -0.000          -0.000
 97  3 14 21 54 30.0000000  0  7 27  2 26  4 24  7  9                0.000000150
   8375083.075 9   6512563.90346  23869061.767    23869061.1334   23869067.7604
        -0.000          -0.000
   1378966.427 9   1074263.18148  21813222.479    21813221.6914   21813227.5134
        -0.000          -0.000
   3382585.371 9   2632662.71846  23737654.816    23737654.8534   23737660.7494
        -0.000          -0.000
  -8150299.975 9  -6331580.54248  21465734.026    21465734.0324   21465739.2524
        -0.000          -0.000
  -5823763.101 9  -3930098.80546  23649658.409    23649658.0824   23649665.5914
        -0.000          -0.000
   2221302.266 9   1730009.45448  20873232.706    20873231.9424   20873237.1854
        -0.000          -0.000
  -8426224.728 9  -6548654.61547  22717669.294    22717668.9264   22717674.2414
        -0.000          -0.000
 97  3 14 21 55  0.0000000  0  7 27  2 26  4 24  7  9                0.000000137
   8489964.845 9   6602082.07746  23890923.159    23890922.5194   23890929.2054
        -0.000          -0.000
   1412179.479 9   1100143.46348  21819542.668    21819541.9054   21819547.7504
        -0.000          -0.000
   3442978.731 9   2679722.43546  23749147.298    23749147.2574   23749153.3504
        -0.000          -0.000
  -8223330.003 9  -6388487.03248  21451836.802    21451836.8324   21451841.9854
        -0.000          -0.000
  -5930538.437 9  -4013300.30046  23629339.633    23629339.4184   23629346.8284
        -0.000          -0.000
   2267291.337 9   1765845.08748  20881984.162    20881983.3844   20881988.6484
        -0.000          -0.000
  -8506965.211 9  -6611569.24447  22702304.767    22702304.4214   22702309.7784
        -0.000          -0.000
 97  3 14 21 55 30.0000000  0  7 27  2 26  4 24  7  9                0.000000126
   8604998.556 9   6691718.66146  23912813.431    23912812.7944   23912819.5334
        -0.000          -0.000
   1445646.163 9   1126221.37948  21825911.181    21825910.4174   21825916.2604
        -0.000          -0.000
   3503594.592 9   2726955.52546  23760682.048    23760682.0434   23760688.1374
        -0.000          -0.000
  -8295896.718 9  -6445032.49948  21438027.790    21438027.8224   21438032.8984
        -0.000          -0.000
  -6037215.965 9  -4096425.57246  23609039.437    23609039.2234   23609046.6014
        -0.000          -0.000
   2313520.527 9   1801867.82248  20890781.268    20890780.5034   20890785.7944
        -0.000          -0.000
  -8587366.663 9  -6674219.70047  22687004.792    22687004.4844   22687009.8814
        -0.000          -0.000
 97  3 14 21 56  0.0000000  0  7 27  2 26  4 24  7  9                0.000000107
   8720168.521 9   6781461.40646  23934729.529    23934728.9824   23934735.7714
        -0.000          -0.000
   1479343.754 9   1152479.22748  21832323.655    21832322.8974   21832328.6814
        -0.000          -0.000
   3564430.052 9   2774359.72846  23772258.508    23772258.4894   23772264.7324
        -0.000          -0.000
  -8368002.350 9  -6501218.68048  21424306.561    21424306.5614   21424311.5894
        -0.000          -0.000
  -6143814.468 9  -4179489.25846  23588754.247    23588754.0754   23588761.4144
        -0.000          -0.000
   2359977.143 9   1838067.77548  20899621.694    20899620.9234   20899626.2054
        -0.000          -0.000
  -8667420.247 9  -6736599.07447  22671771.013    22671770.6904   22671776.2334
        -0.000          -0.000
 97  3 14 21 56 30.0000000  0  7 27  2 26  4 24  7  9                0.000000101
   8835490.211 9   6871322.37245  23956674.568    23956673.9304   23956680.8384
        -0.000          -0.000
   1513280.188 9   1178923.18448  21838781.533    21838780.7774   21838786.5504
        -0.000          -0.000
   3625508.545 9   2821953.31746  23783881.326    23783881.3514   23783887.7304
        -0.000          -0.000
  -8439640.905 9  -6557040.90648  21410674.180    21410674.1794   21410679.2014
        -0.000          -0.000
  -6250313.709 9  -4262475.60546  23568487.980    23568487.9054   23568495.1894
        -0.000          -0.000
   2406669.969 9   1874451.79348  20908506.993    20908506.2034   20908511.5274
        -0.000          -0.000
  -8747106.408 9  -6798692.16147  22656607.214    22656606.9074   22656612.4114
        -0.000          -0.000
 97  3 14 21 57  0.0000000  0  7 27  2 26  4 24  7  9                0.000000081
   8950909.263 8   6961259.19245  23978638.032    23978637.4544   23978644.4424
        -0.000          -0.000
   1547432.803 9   1205535.60048  21845280.520    21845279.7974   21845285.5374
        -0.000          -0.000
   3686774.346 9   2869692.86046  23795539.858    23795539.9004   23795546.2944
        -0.000          -0.000
  -8510861.211 9  -6612537.22448  21397121.333    21397121.3814   21397126.4384
        -0.000          -0.000
  -6356751.805 9  -4345414.30346  23548233.406    23548233.3674   23548240.4544
        -0.000          -0.000
   2453549.666 9   1910981.42748  20917427.867    20917427.1074   20917432.4984
        -0.000          -0.000
  -8826474.367 9  -6860537.30447  22641504.032    22641503.6944   22641509.2104
        -0.000          -0.000
 97  3 14 21 57 30.0000000  0  7 27  2 26  4 24  7  9                0.000000072
   9066457.427 8   7051296.62545  24000626.127    24000625.5624   24000632.6494
        -0.000          -0.000
   1581859.468 9   1232361.55948  21851831.751    21851831.0124   21851836.7264
        -0.000          -0.000
   3748266.652 9   2917608.90946  23807241.616    23807241.6104   23807248.0124
        -0.000          -0.000
  -8581622.607 9  -6667675.94848  21383655.875    21383655.9234   21383661.0114
        -0.000          -0.000
  -6463069.903 9  -4428259.49746  23528001.599    23528001.5344   23528008.5384
        -0.000          -0.000
   2500669.132 9   1947697.89348  20926394.417    20926393.6494   20926399.0814
        -0.000          -0.000
  -8905480.340 9  -6922100.35647  22626469.566    22626469.2714   22626474.8504
        -0.000          -0.000
 97  3 14 21 58  0.0000000  0  7 27  2 26  4 24  7  9                0.000000072
   9182117.459 8   7141421.22345  24022635.481    24022635.0664   24022642.2064
        -0.000          -0.000
   1616533.207 9   1259380.03848  21858429.968    21858429.2144   21858434.9424
        -0.000          -0.000
   3809946.004 9   2965670.70046  23818978.899    23818978.8634   23818985.2004
        -0.000          -0.000
  -8651973.268 9  -6722494.62248  21370268.584    21370268.6514   21370273.7384
        -0.000          -0.000
  -6569290.315 9  -4511028.56946  23507788.394    23507788.2774   23507795.2924
        -0.000          -0.000
   2547992.364 9   1984573.13048  20935399.771    20935398.9954   20935404.4244
        -0.000          -0.000
  -8984171.368 9  -6983418.03647  22611495.275    22611494.8784   22611500.3894
        -0.000          -0.000
 97  3 14 21 58 30.0000000  0  7 27  2 26  4 24  7  9                0.000000060
   9297850.442 8   7231602.67345  24044658.794    24044658.2694   24044665.6414
        -0.000          -0.000
   1651402.217 9   1286550.68648  21865065.304    21865064.5714   21865070.3434
        -0.000          -0.000
   3871749.769 9   3013829.43646  23830739.870    23830739.8324   23830746.1174
        -0.000          -0.000
  -8721973.050 9  -6777039.88448  21356948.106    21356948.1524   21356953.2714
        -0.000          -0.000
  -6675459.689 9  -4593757.88446  23487584.951    23487584.9234   23487591.7914
        -0.000          -0.000
   2595476.712 9   2021573.91648  20944435.809    20944435.0194   20944440.3924
        -0.000          -0.000
  -9062599.093 9  -7044530.50947  22596570.924    22596570.5004   22596576.0974
        -0.000          -0.000
 97  3 14 21 59  0.0000000  0  7 27  2 26  4 24  7  9                0.000000051
   9413688.019 8   7321865.62145  24066702.071    24066701.5594   24066708.7994
        -0.000          -0.000
   1686490.660 9   1313892.31148  21871742.380    21871741.6284   21871747.4824
        -0.000          -0.000
   3933697.313 9   3062100.20646  23842528.075    23842528.0514   23842534.3504
        -0.000          -0.000
  -8791590.783 9  -6831287.44648  21343700.320    21343700.3644   21343705.4884
        -0.000          -0.000
  -6781553.812 9  -4676428.55346  23467395.835    23467395.7704   23467402.6694
        -0.000          -0.000
   2643155.725 9   2058726.39348  20953508.912    20953508.1284   20953513.4354
        -0.000          -0.000
  -9140742.646 9  -7105421.56947  22581700.695    22581700.2944   22581705.8454
        -0.000          -0.000
 97  3 14 21 59 30.0000000  0  7 27  2 26  4 24  7  9                0.000000047
   9529638.525 8   7412216.56045  24088766.747    24088766.2754   24088773.4464
        -0.000          -0.000
   1721768.956 9   1341381.87748  21878455.591    21878454.8414   21878460.7474
        -0.000          -0.000
   3995804.223 9   3110495.15446  23854346.593    23854346.5994   23854352.9664
        -0.000          -0.000
  -8860828.387 9  -6885238.80148  21330524.822    21330524.8554   21330530.0104
        -0.000          -0.000
  -6887583.308 9  -4759048.86746  23447218.998    23447218.8884   23447225.8804
        -0.000          -0.000
   2691018.814 9   2096022.30548  20962616.963    20962616.1534   20962621.4424
        -0.000          -0.000
  -9218607.525 9  -7166095.48647  22566883.490    22566883.1124   22566888.5654
        -0.000          -0.000
 97  3 14 22  0  0.0000000  0  7 27  2 26  4 24  7  9                0.000000045
   9645709.129 8   7502661.08645  24110854.227    24110853.8534   24110861.1414
        -0.000          -0.000
   1757227.505 9   1369011.90148  21885203.044    21885202.3604   21885208.2944
        -0.000          -0.000
   4058074.854 9   3159017.67146  23866196.370    23866196.3864   23866202.7194
        -0.000          -0.000
  -8929677.469 9  -6938887.41448  21317423.217    21317423.2454   21317428.4354
        -0.000          -0.000
  -6993551.639 9  -4841621.52746  23427053.857    23427053.6484   23427060.7604
        -0.000          -0.000
   2739062.997 9   2133459.33048  20971759.404    20971758.6144   20971763.9194
        -0.000          -0.000
  -9296196.750 9  -7226554.59247  22552118.748    22552118.3834   22552123.8794
        -0.000          -0.000
 97  3 14 22  0 30.0000000  0  7 27  2 26  4 24  7  9                0.000000059
   9761929.125 8   7593222.01845  24132970.145    24132969.9734   24132977.2364
        -0.000          -0.000
   1792910.239 9   1396816.60648  21891993.319    21891992.6094   21891998.4964
        -0.000          -0.000
   4120561.622 9   3207708.62746  23878087.281    23878087.3144   23878093.5464
        -0.000          -0.000
  -8998063.540 9  -6992175.23048  21304409.750    21304409.7944   21304414.9904
        -0.000          -0.000
  -7099399.164 9  -4924100.04946  23406911.804    23406911.6124   23406918.6244
        -0.000          -0.000
   2787338.005 9   2171076.22048  20980945.801    20980945.0144   20980950.3654
        -0.000          -0.000
  -9373441.610 9  -7286745.37147  22537419.509    22537419.1604   22537424.6004
        -0.000          -0.000
 97  3 14 22  1  0.0000000  0  7 27  2 26  4 24  7  9                0.000000060
   9878262.864 8   7683871.57445  24155107.691    24155107.4874   24155114.9134
        -0.000          -0.000
   1828803.292 9   1424785.19848  21898823.616    21898822.8604   21898828.7054
        -0.000          -0.000
   4183257.002 9   3256562.11546  23890017.982    23890018.0044   23890024.1034
        -0.000          -0.000
  -9065977.784 9  -7045095.39548  21291486.093    21291486.1014   21291491.2824
        -0.000          -0.000
  -7205130.500 9  -5006488.03146  23386791.895    23386791.5914   23386798.5824
        -0.000          -0.000
   2835815.104 9   2208850.58148  20990170.711    20990169.9084   20990175.2864
        -0.000          -0.000
  -9450343.971 9  -7346669.27447  22522785.455    22522785.1204   22522790.5244
        -0.000          -0.000
 97  3 14 22  1 30.0000000  0  7 27  2 26  4 24  7  9                0.000000082
   9994752.531 8   7774642.65145  24177275.042    24177274.7204   24177282.3224
        -0.000          -0.000
   1864954.540 9   1452954.98248  21905702.934    21905702.1884   21905708.0664
        -0.000          -0.000
   4246197.058 9   3305606.28146  23901995.136    23901995.0434   23902001.3134
        -0.000          -0.000
  -9133371.976 9  -7097610.32348  21278661.372    21278661.3894   21278666.5524
        -0.000          -0.000
  -7310690.887 9  -5088742.81946  23366704.488    23366704.1374   23366711.0454
        -0.000          -0.000
   2884532.797 9   2246812.42048  20999441.377    20999440.5804   20999445.9344
        -0.000          -0.000
  -9526845.480 9  -7406280.81647  22508227.682    22508227.3494   22508232.8594
        -0.000          -0.000
 97  3 14 22  2  0.0000000  0  7 27  2 26  4 24  7  9                0.000000110
  10111381.464 8   7865522.23445  24199468.773    24199468.6574   24199476.1464
        -0.000          -0.000
   1901378.958 9   1481337.63048  21912634.250    21912633.5394   21912639.4664
        -0.000          -0.000
   4309359.292 9   3354823.56346  23914014.481    23914014.4524   23914020.5944
        -0.000          -0.000
  -9200236.205 9  -7149712.29648  21265937.507    21265937.5484   21265942.6794
        -0.000          -0.000
  -7416062.911 9  -5170850.82246  23346652.842    23346652.5094   23346659.4874
        -0.000          -0.000
   2933496.295 9   2284965.79748  21008758.850    21008758.0494   21008763.4384
        -0.000          -0.000
  -9602939.341 9  -7465574.72547  22493747.509    22493747.2334   22493752.6024
        -0.000          -0.000
 97  3 14 22  2 30.0000000  0  7 27  2 26  4 24  7  9                0.000000107
  10228083.539 8   7956458.82945  24221676.388    24221676.3724   24221683.9914
        -0.000          -0.000
   1938024.863 9   1509892.85048  21919607.781    21919607.0224   21919613.0504
        -0.000          -0.000
   4372677.843 9   3404162.64146  23926063.471    23926063.4514   23926069.6994
        -0.000          -0.000
  -9266626.067 9  -7201444.63348  21253303.905    21253303.9044   21253309.0624
        -0.000          -0.000
  -7521296.003 9  -5252850.56846  23326627.610    23326627.2724   23326634.2344
        -0.000          -0.000
   2982642.104 9   2323261.22848  21018110.954    21018110.1554   21018115.5564
        -0.000          -0.000
  -9678680.085 9  -7524593.45347  22479334.564    22479334.1914   22479339.6754
        -0.000          -0.000
 97  3 14 22  3  0.0000000  0  7 27  2 26  4 24  7  9                0.000000082
  10344869.491 8   8047460.77045  24243900.056    24243900.0374   24243907.5894
        -0.000          -0.000
   1974908.346 9   1538633.19448  21926626.404    21926625.6834   21926631.7404
        -0.000          -0.000
   4436160.081 9   3453629.27746  23938143.809    23938143.8184   23938150.1134
        -0.000          -0.000
  -9332538.002 9  -7252804.56348  21240761.245    21240761.2674   21240766.4344
        -0.000          -0.000
  -7626379.963 9  -5334734.10946  23306630.808    23306630.4264   23306637.4634
        -0.000          -0.000
   3031981.297 9   2361707.34948  21027499.854    21027499.0954   21027504.5134
        -0.000          -0.000
  -9754064.280 9  -7583334.37647  22464989.451    22464989.1414   22464994.4804
        -0.000          -0.000
 97  3 14 22  3 30.0000000  0  7 27  2 26  4 24  7  9                0.000000080
  10461792.262 8   8138569.32245  24266149.871    24266149.5544   24266157.2774
        -0.000          -0.000
   2012078.088 9   1567596.60448  21933699.621    21933698.8564   21933704.9114
        -0.000          -0.000
   4499846.327 9   3503254.87046  23950263.027    23950263.0374   23950269.2954
        -0.000          -0.000
  -9397943.890 9  -7303770.16648  21228314.951    21228314.9534   21228320.1184
        -0.000          -0.000
  -7731271.229 9  -5416467.49746  23286670.585    23286670.2334   23286677.3424
        -0.000          -0.000
   3081569.899 9   2400347.80548  21036936.228    21036935.4834   21036940.9314
        -0.000          -0.000
  -9829057.440 9  -7641770.59647  22450718.748    22450718.4014   22450723.7324
        -0.000          -0.000
 97  3 14 22  4  0.0000000  0  7 27  2 26  4 24  7  9                0.000000057
  10578784.800 8   8229732.25045  24288412.914    24288412.5824   24288420.3014
        -0.000          -0.000
   2049487.006 9   1596746.39048  21940818.322    21940817.5584   21940823.5844
        -0.000          -0.000
   4563686.426 9   3553000.34546  23962411.521    23962411.5884   23962417.6964
        -0.000          -0.000
  -9462896.736 9  -7354382.74548  21215954.834    21215954.8104   21215959.9774
        -0.000          -0.000
  -7836030.605 9  -5498098.12446  23266735.410    23266735.1154   23266742.2464
        -0.000          -0.000
   3131351.083 9   2439138.33748  21046409.295    21046408.5054   21046413.9814
        -0.000          -0.000
  -9903725.638 9  -7699953.57647  22436509.759    22436509.4584   22436514.8784
        -0.000          -0.000
 97  3 14 22  4 30.0000000  0  7 27  2 26  4 24  7  9                0.000000061
  10695918.332 8   8321005.05145  24310702.801    24310702.5104   24310710.1334
        -0.000          -0.000
   2087201.887 9   1626134.58648  21947995.228    21947994.4904   21948000.4844
        -0.000          -0.000
   4627754.461 9   3602923.44546  23974603.384    23974603.3564   23974609.4624
        -0.000          -0.000
  -9527326.864 9  -7404588.02248  21203694.174    21203694.1684   21203699.2924
        -0.000          -0.000
  -7940594.111 9  -5579576.11146  23246837.549    23246837.2504   23246844.4644
        -0.000          -0.000
   3181391.018 9   2478130.49348  21055931.591    21055930.8324   21055936.2924
        -0.000          -0.000
  -9978001.681 9  -7757831.00347  22422375.469    22422375.1424   22422380.5654
        -0.000          -0.000
 97  3 14 22  5  0.0000000  0  7 27  2 26  4 24  7  9                0.000000070
  10813147.546 8   8412352.39345  24333010.917    24333010.4184   24333018.0424
        -0.000          -0.000
   2125172.092 9   1655721.73948  21955220.684    21955219.9684   21955225.9154
        -0.000          -0.000
   4691997.999 9   3652983.31246  23986828.585    23986828.6144   23986834.5834
        -0.000          -0.000
  -9591290.989 9  -7454430.17548  21191522.270    21191522.2444   21191527.3324
        -0.000          -0.000
  -8045010.186 9  -5660939.21946  23226967.775    23226967.4554   23226974.6584
        -0.000          -0.000
   3231637.965 9   2517283.95348  21065493.283    21065492.5134   21065498.0064
        -0.000          -0.000
 -10051938.001 9  -7815443.69247  22408305.793    22408305.5124   22408310.9384
        -0.000          -0.000
 97  3 14 22  5 30.0000000  0  7 27  2 26  4 24  7  9                0.000000066
  10930449.000 8   8503756.03545  24355332.576    24355332.1644   24355339.8324
        -0.000          -0.000
   2163371.590 9   1685487.55748  21962489.869    21962489.1354   21962495.0474
        -0.000          -0.000
   4756381.656 9   3703152.34346  23999080.452    23999080.4424   23999086.3904
        -0.000          -0.000
  -9654814.605 9  -7503929.07848  21179434.157    21179434.1234   21179439.1804
        -0.000          -0.000
  -8149309.537 9  -5742211.38446  23207120.180    23207119.9054   23207127.1474
        -0.000          -0.000
   3282059.641 9   2556573.56448  21075088.218    21075087.4514   21075092.9104
        -0.000          -0.000
 -10125571.365 9  -7872820.31947  22394293.887    22394293.5534   22394298.9184
        -0.000          -0.000
 97  3 14 22  6  0.0000000  0  7 27  2 26  4 24  7  9                0.000000050
  11047842.228 8   8595231.17145  24377671.725    24377671.4594   24377679.2514
        -0.000          -0.000
   2201825.385 9   1715451.53448  21969807.376    21969806.6394   21969812.5614
        -0.000          -0.000
   4820918.442 9   3753440.71145  24011361.401    24011361.3814   24011367.3184
        -0.000          -0.000
  -9717846.549 9  -7553044.85648  21167439.549    21167439.5174   21167444.5644
        -0.000          -0.000
  -8253456.327 9  -5823364.65146  23187301.636    23187301.4164   23187308.6154
        -0.000          -0.000
   3332680.216 9   2596018.16348  21084721.025    21084720.2524   21084725.6394
        -0.000          -0.000
 -10198869.909 9  -7929936.05347  22380345.665    22380345.3204   22380350.5654
        -0.000          -0.000
 97  3 14 22  6 30.0000000  0  7 27  2 26  4 24  7  9                0.000000040
  11165345.055 8   8686791.72745  24400031.911    24400031.5404   24400039.3564
        -0.000          -0.000
   2240529.408 9   1745610.48748  21977172.528    21977171.7914   21977177.7444
        -0.000          -0.000
   4885609.575 9   3803849.33845  24023671.832    24023671.7184   24023677.7804
        -0.000          -0.000
  -9780382.505 9  -7601774.14948  21155539.316    21155539.2854   21155544.3334
        -0.000          -0.000
  -8357438.238 9  -5904389.46046  23167514.462    23167514.2644   23167521.4534
        -0.000          -0.000
   3383499.244 9   2635617.39848  21094391.574    21094390.7874   21094396.1424
        -0.000          -0.000
 -10271810.452 9  -7986772.80747  22366465.539    22366465.1984   22366470.4204
        -0.000          -0.000
 97  3 14 22  7  0.0000000  0  7 27  2 26  4 24  7  9                0.000000021
  11282939.254 8   8778423.46145  24422409.569    24422409.1284   24422416.9634
        -0.000          -0.000
   2279461.178 9   1775946.90748  21984581.030    21984580.2824   21984586.2464
        -0.000          -0.000
   4950434.142 9   3854361.93945  24036007.612    24036007.5084   24036013.6704
        -0.000          -0.000
  -9842437.968 9  -7650129.03248  21143730.451    21143730.4604   21143735.5264
        -0.000          -0.000
  -8461282.410 9  -5985306.93246  23147753.506    23147753.3044   23147760.3644
        -0.000          -0.000
   3434486.297 9   2675347.56248  21104094.072    21104093.2904   21104098.6714
        -0.000          -0.000
 -10344417.930 9  -8043350.05047  22352648.836    22352648.5034   22352653.6424
        -0.000          -0.000
 97  3 14 22  7 30.0000000  0  7 27  2 26  4 24  7  9                0.000000015
  11400657.054 8   8870151.52545  24444810.709    24444810.2004   24444818.0684
        -0.000          -0.000
   2318666.101 9   1806496.18348  21992041.519    21992040.7874   21992046.7264
        -0.000          -0.000
   5015434.183 9   3905011.29945  24048376.723    24048376.5264   24048382.9014
        -0.000          -0.000
  -9903960.008 9  -7698068.25948  21132023.149    21132023.1754   21132028.2514
        -0.000          -0.000
  -8564949.850 9  -6066086.68046  23128026.276    23128025.9914   23128033.0714
        -0.000          -0.000
   3485676.101 9   2715235.72148  21113835.120    21113834.3674   21113839.7984
        -0.000          -0.000
 -10416636.658 9  -8099624.34847  22338906.080    22338905.6974   22338910.8584
        -0.000          -0.000
 97  3 14 22  8  0.0000000  0  6  2 26  4 24  7  9                  -0.000000236
   2358132.698 9   1837249.35248  21999551.833    21999551.0874   21999556.9614
        -0.000          -0.000
   5080616.706 9   3955802.80145  24060780.566    24060780.3884   24060786.6214
        -0.000          -0.000
  -9964960.520 9  -7745601.10948  21120415.125    21120415.1514   21120420.2094
        -0.000          -0.000
  -8668443.839 9  -6146731.28146  23108332.053    23108331.7654   23108338.6844
        -0.000          -0.000
   3537055.164 9   2755271.34848  21123612.211    21123611.4684   21123616.9094
        -0.000          -0.000
 -10488439.166 9  -8155574.33347  22325242.440    22325242.0774   22325247.2174
        -0.000          -0.000
 97  3 14 22  8 30.0000000  0  6  2 26  4 24  7  9                  -0.000000145
   2397988.542 9   1868305.83348  22007136.221    22007135.4474   22007141.2774
        -0.000          -0.000
   5146111.462 9   4006837.64045  24073243.684    24073243.5504   24073249.8494
        -0.000          -0.000
 -10025342.898 9  -7792652.29348  21108924.756    21108924.7854   21108929.7974
        -0.000          -0.000
  -8771653.232 9  -6227154.11246  23088691.926    23088691.5724   23088698.5154
        -0.000          -0.000
   3588736.160 9   2795542.25048  21133446.781    21133446.0004   21133451.4854
        -0.000          -0.000
 -10559696.379 9  -8211099.41347  22311682.628    22311682.2934   22311687.4194
        -0.000          -0.000
 97  3 14 22  9  0.0000000  0  6  2 26  4 24  7  9                  -0.000000088
   2437995.155 9   1899479.80247  22014749.236    22014748.5264   22014754.3394
        -0.000          -0.000
   5211669.842 9   4057922.04245  24085718.926    24085718.8244   24085725.2864
        -0.000          -0.000
 -10085349.544 9  -7839410.70048  21097505.872    21097505.8814   21097510.8964
        -0.000          -0.000
  -8874809.262 9  -6307535.35346  23069061.945    23069061.6024   23069068.4574
        -0.000          -0.000
   3640481.865 9   2835863.57548  21143293.581    21143292.8434   21143298.4084
        -0.000          -0.000
 -10630650.107 9  -8266388.00447  22298180.545    22298180.2114   22298185.3334
        -0.000          -0.000
 97  3 14 22  9 30.0000000  0  6  2 26  4 24  7  9                  -0.000000050
   2478149.052 9   1930768.53347  22022390.346    22022389.6074   22022395.3884
        -0.000          -0.000
   5277280.110 9   4109046.89445  24098204.119    24098204.0904   24098210.5154
        -0.000          -0.000
 -10144999.819 9  -7885891.41748  21086154.799    21086154.8294   21086159.7994
        -0.000          -0.000
  -8977904.432 9  -6387869.18446  23049443.513    23049443.1834   23049450.0414
        -0.000          -0.000
   3692290.648 9   2876234.05848  21153152.411    21153151.6684   21153157.2474
        -0.000          -0.000
 -10701292.916 9  -8321434.32447  22284737.704    22284737.3674   22284742.4434
        -0.000          -0.000
 97  3 14 22 10  0.0000000  0  6  2 26  4 24  7  9                  -0.000000020
   2518489.490 9   1962202.62047  22030066.866    22030066.1434   22030071.9484
        -0.000          -0.000
   5342963.828 9   4160228.94546  24110703.399    24110703.3474   24110709.6984
        -0.000          -0.000
 -10204251.714 9  -7932061.70748  21074879.563    21074879.5744   21074884.5604
        -0.000          -0.000
  -9080897.994 9  -6468123.84246  23029844.553    23029844.1114   23029850.9634
        -0.000          -0.000
   3744207.333 9   2916688.61248  21163031.811    21163031.0784   21163036.6094
        -0.000          -0.000
 -10771603.092 9  -8376221.45247  22271358.141    22271357.7904   22271362.8804
        -0.000          -0.000
 97  3 14 22 10 30.0000000  0  6  2 26  4 24  7  9                   0.000000005
   2559047.678 9   1993806.37847  22037784.810    22037784.0804   22037789.9444
        -0.000          -0.000
   5408719.443 9   4211467.03745  24123216.335    24123216.2544   24123222.7154
        -0.000          -0.000
 -10263067.150 9  -7977891.89848  21063687.321    21063687.3234   21063692.3214
        -0.000          -0.000
  -9183750.683 9  -6548268.72546  23010272.260    23010271.8804   23010278.7384
        -0.000          -0.000
   3796261.362 9   2957250.19148  21172937.437    21172936.7114   21172942.1944
        -0.000          -0.000
 -10841586.691 9  -8430754.10847  22258040.677    22258040.2904   22258045.4134
        -0.000          -0.000
 97  3 14 22 11  0.0000000  0  6  2 26  4 24  7  9                   0.000000014
   2599837.840 9   2025590.90747  22045546.877    22045546.1764   22045552.0744
        -0.000          -0.000
   5474556.156 9   4262768.32146  24135744.634    24135744.5424   24135751.1464
        -0.000          -0.000
 -10321412.048 9  -8023355.43148  21052584.628    21052584.6094   21052589.6194
        -0.000          -0.000
  -9286435.097 9  -6628282.48646  22990731.993    22990731.6084   22990738.4564
        -0.000          -0.000
   3848477.572 9   2997938.14448  21182873.878    21182873.1324   21182878.6164
        -0.000          -0.000
 -10911233.664 9  -8485024.45547  22244787.198    22244786.8844   22244792.0384
        -0.000          -0.000
 97  3 14 22 11 30.0000000  0  6  2 26  4 24  7  9                   0.000000001
   2640874.306 9   2057567.35647  22053355.890    22053355.1804   22053361.0924
        -0.000          -0.000
   5540483.102 9   4314139.91846  24148290.146    24148290.0874   24148296.6144
        -0.000          -0.000
 -10379258.886 9  -8068430.86248  21041576.646    21041576.6704   21041581.6654
        -0.000          -0.000
  -9388950.920 9  -6708164.87246  22971223.758    22971223.3734   22971230.2034
        -0.000          -0.000
   3900870.140 9   3038763.51348  21192843.853    21192843.1104   21192848.6164
        -0.000          -0.000
 -10980537.540 9  -8539027.45547  22231599.069    22231598.7344   22231603.9664
        -0.000          -0.000
 97  3 14 22 12  0.0000000  0  6  2 26  4 24  7  9                  -0.000000013
   2682193.404 9   2089764.03547  22061218.721    22061218.0174   22061223.9004
        -0.000          -0.000
   5606535.594 9   4365609.32846  24160859.617    24160859.5754   24160866.1334
        -0.000          -0.000
 -10436567.522 9  -8113086.92148  21030671.138    21030671.1694   21030676.1544
        -0.000          -0.000
  -9491262.022 9  -6787887.74846  22951754.478    22951754.1124   22951760.9654
        -0.000          -0.000
   3953479.201 9   3079757.58748  21202855.074    21202854.3394   21202859.8264
        -0.000          -0.000
 -11049458.878 9  -8592732.36847  22218483.734    22218483.4344   22218488.6674
        -0.000          -0.000
 97  3 14 22 12 30.0000000  0  6  2 26  4 24  7  9                  -0.000000030
   2723757.212 9   2122151.39447  22069128.077    22069127.3614   22069133.2764
        -0.000          -0.000
   5672687.240 9   4417156.04146  24173447.844    24173447.7414   24173454.4534
        -0.000          -0.000
 -10493392.217 9  -8157365.87948  21019857.769    21019857.7954   21019862.7174
        -0.000          -0.000
  -9593412.585 9  -6867485.52946  22932315.819    22932315.4484   22932322.2854
        -0.000          -0.000
   4006265.848 9   3120890.03248  21212900.109    21212899.3054   21212904.7994
        -0.000          -0.000
 -11118020.022 9  -8646156.61447  22205437.026    22205436.6864   22205441.9024
        -0.000          -0.000
 97  3 14 22 13  0.0000000  0  6  2 26  4 24  7  9                  -0.000000020
   2765601.626 9   2154757.40447  22077090.804    22077090.0794   22077096.0154
        -0.000          -0.000
   5738986.964 9   4468818.09246  24186064.222    24186064.1364   24186071.0704
        -0.000          -0.000
 -10549694.506 9  -8201237.77048  21009143.792    21009143.8224   21009148.7254
        -0.000          -0.000
  -9695371.577 9  -6946934.03846  22912913.575    22912913.2404   22912920.0584
        -0.000          -0.000
   4059260.936 9   3162184.89448  21222984.713    21222983.9344   21222989.4434
        -0.000          -0.000
 -11186162.152 9  -8699254.36247  22192469.995    22192469.6734   22192474.8514
        -0.000          -0.000
 97  3 14 22 13 30.0000000  0  6  2 26  4 24  7  9                  -0.000000010
   2807671.383 9   2187539.02447  22085096.429    22085095.7164   22085101.6524
        -0.000          -0.000
   5805384.564 9   4520556.43546  24198699.261    24198699.1794   24198706.0514
        -0.000          -0.000
 -10605532.595 9  -8244747.94548  20998518.172    20998518.1884   20998523.0664
        -0.000          -0.000
  -9797197.564 9  -7026278.91146  22893536.672    22893536.3254   22893543.1844
        -0.000          -0.000
   4112385.678 9   3203580.79448  21233093.956    21233093.1864   21233098.7374
        -0.000          -0.000
 -11253941.229 9  -8752069.20547  22179572.039    22179571.7224   22179576.8294
        -0.000          -0.000
 97  3 14 22 14  0.0000000  0  6  2 26  4 24  7  9                   0.000000037
   2850011.420 9   2220531.23747  22093153.558    22093152.8094   22093158.6774
        -0.000          -0.000
   5871917.690 9   4572400.37146  24211360.132    24211360.1244   24211367.0084
        -0.000          -0.000
 -10660870.207 9  -8287868.13948  20987987.764    20987987.7794   20987992.6454
        -0.000          -0.000
  -9898840.939 9  -7105481.50246  22874194.586    22874194.2654   22874201.1234
        -0.000          -0.000
   4165670.893 9   3245101.73448  21243233.763    21243232.9764   21243238.5434
        -0.000          -0.000
 -11321305.837 9  -8804561.08647  22166752.998    22166752.6674   22166757.8094
        -0.000          -0.000
 97  3 14 22 14 30.0000000  0  6  2 26  4 24  7  9                   0.000000058
   2892554.151 9   2253681.39647  22101249.179    22101248.4144   22101254.2604
        -0.000          -0.000
   5938524.638 9   4624301.82646  24224035.179    24224035.0294   24224042.0114
        -0.000          -0.000
 -10715745.711 9  -8330628.24848  20977545.254    20977545.2784   20977550.1544
        -0.000          -0.000
 -10000344.828 9  -7184575.39146  22854879.044    22854878.6664   22854885.5184
        -0.000          -0.000
   4219045.038 9   3286691.97648  21253390.543    21253389.7444   21253395.2794
        -0.000          -0.000
 -11388318.773 9  -8856778.93847  22154000.850    22154000.5354   22154005.6594
        -0.000          -0.000
 97  3 14 22 15  0.0000000  0  6  2 26  4 24  7  9                   0.000000061
   2935344.118 9   2287024.20147  22109391.859    22109391.1174   22109397.0014
        -0.000          -0.000
   6005253.570 9   4676298.34646  24236733.405    24236733.2684   24236740.1784
        -0.000          -0.000
 -10770084.986 9  -8372970.52448  20967204.805    20967204.8464   20967209.7314
        -0.000          -0.000
 -10101651.703 9  -7263515.77146  22835600.960    22835600.5334   22835607.4694
        -0.000          -0.000
   4272538.235 9   3328374.98448  21263570.005    21263569.2074   21263574.7014
        -0.000          -0.000
 -11454939.043 9  -8908690.81247  22141323.468    22141323.1014   22141328.2404
        -0.000          -0.000
 97  3 14 22 15 30.0000000  0  6  2 26  4 24  7  9                   0.000000047
   2978397.158 9   2320571.99947  22117584.648    22117583.8654   22117589.7874
        -0.000          -0.000
   6072114.352 9   4728397.60746  24249456.661    24249456.6004   24249463.4234
        -0.000          -0.000
 -10823862.894 9  -8414875.36548  20956971.209    20956971.2514   20956976.1514
        -0.000          -0.000
 -10202742.141 9  -7342287.49746  22816364.082    22816363.6514   22816370.6114
        -0.000          -0.000
   4326172.318 9   3370167.76948  21273776.185    21273775.4024   21273780.9054
        -0.000          -0.000
 -11521146.232 9  -8960280.81447  22128724.753    22128724.3934   22128729.4684
        -0.000          -0.000
 97  3 14 22 16  0.0000000  0  6  2 26  4 24  7  9                   0.000000035
   3021758.865 9   2354360.31747  22125836.137    22125835.3734   22125841.3394
        -0.000          -0.000
   6139142.385 9   4780627.20246  24262211.754    24262211.7204   24262218.4464
        -0.000          -0.000
 -10877024.872 9  -8456300.26148  20946854.868    20946854.8944   20946859.8104
        -0.000          -0.000
 -10303553.890 9  -7420842.04746  22797180.207    22797179.7514   22797186.7614
        -0.000          -0.000
   4380016.463 9   3412124.23748  21284022.378    21284021.5884   21284027.0744
        -0.000          -0.000
 -11586870.463 9  -9011494.48047  22116217.841    22116217.4514   22116222.5464
        -0.000          -0.000
 97  3 14 22 16 30.0000000  0  7  2 26  4  5 24  7  9                0.000000028
   3065399.937 9   2388366.32347  22134140.704    22134139.9544   22134145.9964
        -0.000          -0.000
   6206312.942 9   4832967.84146  24274993.864    24274993.9314   24275000.5634
        -0.000          -0.000
 -10929595.600 9  -8497264.44748  20936851.019    20936851.0304   20936855.9424
        -0.000          -0.000
  -3331740.32618  -2346489.21555  24673342.565    24673341.7715   24673348.9225
        -0.000          -0.000
 -10404112.082 9  -7499199.04046  22778044.558    22778044.1584   22778051.1734
        -0.000          -0.000
   4434047.389 9   3454226.25448  21294304.149    21294303.3804   21294308.8564
        -0.000          -0.000
 -11652136.141 9  -9062350.83447  22103798.135    22103797.7594   22103802.8334
        -0.000          -0.000
 97  3 14 22 17  0.0000000  0  7  2 26  4  5 24  7  9                0.000000028
   3109306.272 9   2422579.03047  22142495.760    22142495.0304   22142501.1314
        -0.000          -0.000
   6273580.141 9   4885383.79346  24287794.448    24287794.4704   24287801.1374
        -0.000          -0.000
 -10981613.510 9  -8537797.86648  20926952.283    20926952.3024   20926957.2144
        -0.000          -0.000
  -3412553.151 8  -2409460.13345  24657964.310    24657963.5174   24657970.4064
        -0.000          -0.000
 -10504464.627 9  -7577395.78546  22758948.066    22758947.6594   22758954.7014
        -0.000          -0.000
   4488245.885 9   3496458.83648  21304617.862    21304617.0804   21304622.4944
        -0.000          -0.000
 -11716966.328 9  -9112867.83647  22091461.291    22091460.9004   22091466.0034
        -0.000          -0.000
 97  3 14 22 17 30.0000000  0  7  2 26  4  5 24  7  9                0.000000036
   3153493.238 9   2457010.40947  22150904.254    22150903.5494   22150909.6164
        -0.000          -0.000
   6340938.253 9   4937870.58146  24300612.327    24300612.2964   24300618.9434
        -0.000          -0.000
 -11033083.923 9  -8577904.66248  20917157.742    20917157.7534   20917162.6704
        -0.000          -0.000
  -3493372.655 8  -2472436.26545  24642585.028    24642584.2644   24642590.7214
        -0.000          -0.000
 -10604581.475 9  -7655408.85746  22739896.426    22739896.0384   22739903.0804
        -0.000          -0.000
   4542647.963 9   3538850.05948  21314970.244    21314969.4544   21314974.8424
        -0.000          -0.000
 -11781324.067 9  -9163016.70747  22079214.295    22079213.9084   22079219.0054
        -0.000          -0.000
 97  3 14 22 18  0.0000000  0  7  2 26  4  5 24  7  9                0.000000035
   3197941.125 9   2491645.09947  22159362.443    22159361.7034   22159367.7334
        -0.000          -0.000
   6408360.442 9   4990407.28446  24313442.469    24313442.4344   24313448.9334
        -0.000          -0.000
 -11084040.967 9  -8617611.43348  20907460.896    20907460.9364   20907465.8764
        -0.000          -0.000
  -3574242.822 8  -2535451.89945  24627195.857    24627195.1374   24627201.4844
        -0.000          -0.000
 -10704479.077 9  -7733251.09946  22720886.453    22720885.9984   22720893.0924
        -0.000          -0.000
   4597220.982 9   3581374.48748  21325355.183    21325354.4044   21325359.7624
        -0.000          -0.000
 -11845240.556 9  -9212821.74047  22067051.327    22067050.9694   22067056.0754
        -0.000          -0.000
 97  3 14 22 18 30.0000000  0  7  2 26  4  5 24  7  9                0.000000058
   3242682.285 9   2526508.31447  22167876.412    22167875.6694   22167881.6874
        -0.000          -0.000
   6475876.076 9   5043016.82146  24326290.307    24326290.2304   24326296.7634
        -0.000          -0.000
 -11134458.634 9  -8656897.91048  20897866.707    20897866.7284   20897871.7634
        -0.000          -0.000
  -3655129.381 8  -2598480.29445  24611803.337    24611802.6744   24611809.2174
        -0.000          -0.000
 -10804133.104 9  -7810903.53746  22701922.791    22701922.3974   22701929.4904
        -0.000          -0.000
   4651978.457 9   3624042.64148  21335775.229    21335774.4414   21335779.7794
        -0.000          -0.000
 -11908710.048 9  -9262278.47447  22054973.373    22054973.0304   22054978.0914
        -0.000          -0.000
 97  3 14 22 19  0.0000000  0  7  2 26  4  5 24  7  9                0.000000071
   3287681.811 9   2561572.85647  22176439.599    22176438.8214   22176444.7754
        -0.000          -0.000
   6543446.276 9   5095668.86146  24339148.470    24339148.4184   24339155.0234
        -0.000          -0.000
 -11184381.801 9  -8695799.05748  20888366.614    20888366.6454   20888371.7434
        -0.000          -0.000
  -3736101.039 8  -2661574.99645  24596394.631    24596393.8614   24596400.9354
        -0.000          -0.000
 -10903565.929 9  -7888383.61647  22683001.244    22683000.9054   22683007.9454
        -0.000          -0.000
   4706881.589 9   3666824.29948  21346222.929    21346222.1484   21346227.5414
        -0.000          -0.000
 -11971766.485 9  -9311413.34447  22042974.161    22042973.8474   22042978.8024
        -0.000          -0.000
 97  3 14 22 19 30.0000000  0  7  2 26  4  5 24  7  9                0.000000064
   3332921.511 9   2596824.55047  22185048.417    22185047.6314   22185053.4994
        -0.000          -0.000
   6611072.349 9   5148364.44146  24352017.408    24352017.2994   24352023.9184
        -0.000          -0.000
 -11233823.704 9  -8734325.19448  20878958.119    20878958.1584   20878963.2684
        -0.000          -0.000
  -3817184.372 8  -2724756.71445  24580964.803    24580964.1334   24580971.3424
        -0.000          -0.000
 -11002765.398 9  -7965681.84747  22664124.126    22664123.8244   22664130.8254
        -0.000          -0.000
   4761903.814 9   3709698.75748  21356693.260    21356692.4804   21356697.9174
        -0.000          -0.000
 -12034420.146 9  -9360234.35647  22031051.536    22031051.1914   22031056.1824
        -0.000          -0.000
 97  3 14 22 20  0.0000000  0  7  2 26  4  5 24  7  9                0.000000048
   3378409.520 9   2632269.72347  22193704.563    22193703.7684   22193709.5964
        -0.000          -0.000
   6678767.834 9   5201114.10046  24364899.492    24364899.3814   24364906.0804
        -0.000          -0.000
 -11282761.457 9  -8772458.49548  20869645.549    20869645.5954   20869650.6814
        -0.000          -0.000
  -3898370.685 9  -2788018.68745  24565515.400    24565514.8794   24565521.9614
        -0.000          -0.000
 -11101736.783 9  -8042802.36347  22645290.505    22645290.1724   22645297.2144
        -0.000          -0.000
   4817043.531 9   3752664.76648  21367185.934    21367185.1864   21367190.6404
        -0.000          -0.000
 -12096692.122 9  -9408757.95948  22019201.579    22019201.2344   22019206.2344
        -0.000          -0.000
 97  3 14 22 20 30.0000000  0  7  2 26  4  5 24  7  9                0.000000027
   3424141.051 9   2667904.66647  22202406.955    22202406.1644   22202412.0204
        -0.000          -0.000
   6746525.469 9   5253912.21346  24377793.427    24377793.2854   24377800.0274
        -0.000          -0.000
 -11331196.784 9  -8810200.28948  20860428.598    20860428.6364   20860433.6724
        -0.000          -0.000
  -3979644.735 9  -2851349.03745  24550049.497    24550048.8854   24550056.1054
        -0.000          -0.000
 -11200489.405 9  -8119752.41247  22626498.453    22626498.1314   22626505.1974
        -0.000          -0.000
   4872306.967 9   3795727.17848  21377702.245    21377701.4854   21377706.9204
        -0.000          -0.000
 -12158580.449 9  -9456982.61248  22007424.596    22007424.2674   22007429.2934
        -0.000          -0.000
 97  3 14 22 21  0.0000000  0  7  2 26  4  5 24  7  9               -0.000000009
   3470110.422 9   2703724.92247  22211154.691    22211153.9184   22211159.7954
        -0.000          -0.000
   6814337.906 9   5306753.00146  24390697.699    24390697.6014   24390704.4194
        -0.000          -0.000
 -11379128.694 9  -8847549.81948  20851307.461    20851307.4804   20851312.5094
        -0.000          -0.000
  -4061005.161 9  -2914746.72845  24534567.079    24534566.5434   24534573.6654
        -0.000          -0.000
 -11299034.531 9  -8196540.77847  22607745.951    22607745.6434   22607752.6924
        -0.000          -0.000
   4927686.629 9   3838880.15848  21388240.676    21388239.9304   21388245.3284
        -0.000          -0.000
 -12220073.568 9  -9504899.31448  21995722.891    21995722.5784   21995727.6224
        -0.000          -0.000
 97  3 14 22 21 30.0000000  0  7  2 26  4  5 24  7  9               -0.000000000
   3516386.598 9   2739784.25747  22219960.720    22219959.9724   22219965.8934
        -0.000          -0.000
   6882270.337 9   5359687.29846  24403624.863    24403624.7324   24403631.6104
        -0.000          -0.000
 -11426465.873 9  -8884435.91248  20842299.513    20842299.5264   20842304.5554
        -0.000          -0.000
  -4142343.662 9  -2978127.33845  24519088.885    24519088.1894   24519095.5314
        -0.000          -0.000
 -11397324.160 9  -8273130.06347  22589042.026    22589041.6924   22589048.7694
        -0.000          -0.000
   4983246.361 9   3882173.45548  21398813.364    21398812.6204   21398817.9934
        -0.000          -0.000
 -12281115.581 9  -9552464.49948  21984107.011    21984106.6804   21984111.7354
        -0.000          -0.000
 97  3 14 22 22  0.0000000  0  7  2 26  4  5 24  7  9               -0.000000002
   3562881.934 9   2776014.36247  22228808.477    22228807.7574   22228813.6834
        -0.000          -0.000
   6950223.395 9   5412637.66746  24416555.944    24416555.8304   24416562.6504
        -0.000          -0.000
 -11473293.496 9  -8920924.95548  20833388.487    20833388.5054   20833393.4934
        -0.000          -0.000
  -4223739.359 9  -3041552.51045  24503599.779    24503599.0324   24503606.1844
        -0.000          -0.000
 -11495474.238 9  -8349610.58947  22570364.664    22570364.3224   22570371.3764
        -0.000          -0.000
   5038903.997 9   3925543.03248  21409404.694    21409403.9484   21409409.3084
        -0.000          -0.000
 -12341799.163 9  -9599750.39548  21972559.321    21972558.9644   21972563.9944
        -0.000          -0.000
 97  3 14 22 22 30.0000000  0  7  2 26  4  5 24  7  9               -0.000000011
   3609609.089 9   2812425.11547  22237700.339    22237699.6214   22237705.6134
        -0.000          -0.000
   7018213.288 8   5465616.71745  24429493.883    24429493.7534   24429500.6434
        -0.000          -0.000
 -11519613.597 9  -8957018.52148  20824574.060    20824574.0874   20824579.0164
        -0.000          -0.000
  -4305187.993 9  -3105018.90245  24488100.564    24488099.8224   24488106.8924
        -0.000          -0.000
 -11593469.928 9  -8425970.81047  22551716.666    22551716.3524   22551723.3724
        -0.000          -0.000
   5094663.644 9   3968992.10748  21420015.449    21420014.6724   21420020.0114
        -0.000          -0.000
 -12402089.707 9  -9646730.02548  21961086.475    21961086.1174   21961091.1904
        -0.000          -0.000
 97  3 14 22 23  0.0000000  0  7  2 26  4  5 24  7  9                0.000000008
   3656628.680 9   2849063.72947  22246647.906    22246647.1874   22246653.1934
        -0.000          -0.000
   7086306.979 9   5518676.65745  24442451.594    24442451.5634   24442458.4324
        -0.000          -0.000
 -11565354.067 9  -8992660.42848  20815869.927    20815869.9534   20815874.8304
        -0.000          -0.000
  -4386638.982 9  -3168487.13145  24472600.951    24472600.1914   24472607.3324
        -0.000          -0.000
 -11691235.969 9  -8502152.10247  22533112.396    22533112.1214   22533119.0534
        -0.000          -0.000
   5150583.222 9   4012565.79648  21430656.575    21430655.8164   21430661.1524
        -0.000          -0.000
 -12461926.785 9  -9693356.31148  21949699.867    21949699.5094   21949704.5754
        -0.000          -0.000
 97  3 14 22 23 30.0000000  0  7  2 26  4  5 24  7  9                0.000000034
   3703905.531 9   2885902.80547  22255644.495    22255643.7284   22255649.6644
        -0.000          -0.000
   7154467.507 9   5571788.69645  24455422.162    24455422.0734   24455428.8674
        -0.000          -0.000
 -11610554.539 9  -9027881.55748  20807268.597    20807268.5684   20807273.4644
        -0.000          -0.000
  -4468132.099 9  -3231988.22445  24457093.442    24457092.7474   24457099.4844
        -0.000          -0.000
 -11788783.420 9  -8578163.05247  22514549.746    22514549.4124   22514556.3014
        -0.000          -0.000
   5206637.069 9   4056244.10948  21441323.306    21441322.5214   21441327.8384
        -0.000          -0.000
 -12521341.818 9  -9739653.72748  21938393.590    21938393.2364   21938398.2424
        -0.000          -0.000
 97  3 14 22 24  0.0000000  0  7  2 26  4  5 24  7  9                0.000000039
   3751404.254 9   2922914.77647  22264683.244    22264682.4514   22264688.3564
        -0.000          -0.000
   7222671.291 9   5624934.45245  24468400.931    24468400.8484   24468407.5754
        -0.000          -0.000
 -11655254.305 9  -9062712.51848  20798762.492    20798762.4764   20798767.3894
        -0.000          -0.000
  -4549707.705 9  -3295553.55545  24441570.248    24441569.5234   24441576.1834
        -0.000          -0.000
 -11886106.105 9  -8653998.85647  22496029.805    22496029.5034   22496036.3634
        -0.000          -0.000
   5262808.794 9   4100014.27548  21452012.481    21452011.6814   21452016.9734
        -0.000          -0.000
 -12580333.906 9  -9785621.57148  21927167.771    21927167.4284   21927172.3794
        -0.000          -0.000
 97  3 14 22 24 30.0000000  0  7  2 26  4  5 24  7  9                0.000000052
   3799174.461 9   2960138.30047  22273773.664    22273772.8884   22273778.7714
        -0.000          -0.000
   7290980.249 9   5678162.13245  24481399.596    24481399.5704   24481406.4924
        -0.000          -0.000
 -11699392.057 9  -9097105.54848  20790363.316    20790363.3214   20790368.2674
        -0.000          -0.000
  -4631314.528 8  -3359143.20845  24426040.972    24426040.2054   24426046.8944
        -0.000          -0.000
 -11983114.582 9  -8729589.82147  22477569.761    22477569.4124   22477576.2414
        -0.000          -0.000
   5319139.944 9   4143908.66748  21462731.918    21462731.0904   21462736.3784
        -0.000          -0.000
 -12638837.830 9  -9831209.03148  21916034.872    21916034.5154   21916039.3814
        -0.000          -0.000
 97  3 14 22 25  0.0000000  0  7  2 26  4  5 24  7  9                0.000000039
   3847174.566 9   2997540.94747  22282907.780    22282906.9854   22282912.9764
        -0.000          -0.000
   7359324.538 9   5731417.34145  24494405.155    24494405.1364   24494412.0284
        -0.000          -0.000
 -11742993.423 9  -9131080.61248  20782066.262    20782066.2454   20782071.2134
        -0.000          -0.000
  -4712988.232 8  -3422784.96645  24410498.710    24410498.0344   24410504.6094
        -0.000          -0.000
 -12079848.854 9  -8804967.13347  22459161.858    22459161.4564   22459168.2514
        -0.000          -0.000
   5375579.041 9   4187887.18348  21473471.825    21473471.0454   21473476.3834
        -0.000          -0.000
 -12696907.201 9  -9876457.87648  21904984.643    21904984.2854   21904989.0774
        -0.000          -0.000
 97  3 14 22 25 30.0000000  0  7  2 26  4  5 24  7  9                0.000000031
   3895455.450 9   3035162.39247  22292095.262    22292094.4644   22292100.5794
        -0.000          -0.000
   7427729.313 9   5784719.71346  24507422.242    24507422.2054   24507429.1114
        -0.000          -0.000
 -11786012.277 9  -9164601.78148  20773880.024    20773880.0124   20773884.9654
        -0.000          -0.000
  -4794674.441 8  -3486436.49345  24394954.106    24394953.4054   24394960.0084
        -0.000          -0.000
 -12176269.703 9  -8880100.20047  22440813.558    22440813.1684   22440819.9514
        -0.000          -0.000
   5432165.612 9   4231980.60948  21484239.850    21484239.0714   21484244.4534
        -0.000          -0.000
 -12754489.450 9  -9921327.15248  21894027.035    21894026.7114   21894031.4874
        -0.000          -0.000
 97  3 14 22 26  0.0000000  0  7  2 26  4  5 24  7  9               -0.000000003
   3943974.126 9   3072969.12647  22301328.093    22301327.2924   22301333.3984
        -0.000          -0.000
   7496139.969 9   5838026.66346  24520440.454    24520440.4224   24520447.4844
        -0.000          -0.000
 -11828489.634 9  -9197701.00648  20765796.829    20765796.8284   20765801.7754
        -0.000          -0.000
  -4876428.454 8  -3550140.86545  24379396.752    24379396.0054   24379402.8384
        -0.000          -0.000
 -12272435.761 9  -8955034.74547  22422513.732    22422513.2974   22422520.1054
        -0.000          -0.000
   5488849.567 9   4276149.91248  21495026.522    21495025.7234   21495031.1184
        -0.000          -0.000
 -12811646.344 9  -9965864.98448  21883150.469    21883150.1314   21883154.8884
        -0.000          -0.000
 97  3 14 22 26 30.0000000  0  7  2 26  4  5 24  7  9               -0.000000009
   3992827.382 9   3111036.57247  22310624.537    22310623.7764   22310629.8304
        -0.000          -0.000
   7564606.568 9   5891377.20545  24533469.278    24533469.2034   24533476.3744
        -0.000          -0.000
 -11870347.374 9  -9230317.41048  20757831.532    20757831.5424   20757836.5104
        -0.000          -0.000
  -4958183.910 8  -3613846.34645  24363838.993    24363838.4064   24363845.3844
        -0.000          -0.000
 -12368299.925 9  -9029734.03747  22404271.327    22404270.8774   22404277.7484
        -0.000          -0.000
   5545690.897 9   4320441.84548  21505843.054    21505842.2654   21505847.7034
        -0.000          -0.000
 -12868325.306 9 -10010030.40148  21872364.794    21872364.4574   21872369.2274
        -0.000          -0.000
 97  3 14 22 27  0.0000000  0  7  2 26  4  5 24  7  9               -0.000000001
   4041989.560 9   3149344.73847  22319979.801    22319979.0504   22319985.0894
        -0.000          -0.000
   7633081.525 9   5944734.26945  24546499.732    24546499.7124   24546506.7924
        -0.000          -0.000
 -11911627.203 9  -9262483.49748  20749976.167    20749976.2104   20749981.2294
        -0.000          -0.000
  -5039966.262 8  -3677572.76945  24348276.100    24348275.4404   24348282.6504
        -0.000          -0.000
 -12463917.338 9  -9104241.06547  22386075.739    22386075.3534   22386082.2744
        -0.000          -0.000
   5602675.258 9   4364845.23748  21516686.812    21516686.0584   21516691.5074
        -0.000          -0.000
 -12924557.551 9 -10053847.71648  21861664.098    21861663.7854   21861668.5994
        -0.000          -0.000
 97  3 14 22 27 30.0000000  0  7  2 26  4  5 24  7  9               -0.000000008
   4091400.681 9   3187846.88847  22329382.430    22329381.6914   22329387.7384
        -0.000          -0.000
   7701539.871 9   5998078.37645  24559527.019    24559526.9934   24559534.0354
        -0.000          -0.000
 -11952393.837 9  -9294249.69148  20742218.492    20742218.5514   20742223.5854
        -0.000          -0.000
  -5121837.252 8  -3741368.25445  24332696.266    24332695.5364   24332702.9804
        -0.000          -0.000
 -12559329.274 9  -9178587.98447  22367919.296    22367919.0024   22367925.9584
        -0.000          -0.000
   5659757.098 9   4409324.57848  21527549.208    21527548.4184   21527553.8514
        -0.000          -0.000
 -12980390.610 9 -10097353.99048  21851039.418    21851039.1004   21851043.9224
        -0.000          -0.000
 97  3 14 22 28  0.0000000  0  7  2 26  4  5 24  7  9                0.000000016
   4141125.757 9   3226593.67247  22338844.784    22338844.0804   22338850.1434
        -0.000          -0.000
   7770060.350 9   6051470.90145  24572566.077    24572566.0864   24572573.0134
        -0.000          -0.000
 -11992584.215 9  -9325566.84848  20734570.496    20734570.5564   20734575.5884
        -0.000          -0.000
  -5203734.399 8  -3805184.13845  24317111.557    24317110.8654   24317118.2874
        -0.000          -0.000
 -12654460.522 9  -9252716.18247  22349816.297    22349816.0654   22349823.0334
        -0.000          -0.000
   5716993.030 9   4453924.00348  21538440.876    21538440.0884   21538445.5654
        -0.000          -0.000
 -13035756.817 9 -10140496.47448  21840503.573    21840503.2544   21840508.0694
        -0.000          -0.000
 97  3 14 22 28 30.0000000  0  7  2 26  4  5 24  7  9                0.000000029
   4191103.731 9   3265537.52147  22348355.227    22348354.5564   22348360.7074
        -0.000          -0.000
   7838598.539 9   6104877.22845  24585608.439    24585608.4984   24585615.2544
        -0.000          -0.000
 -12032237.879 9  -9356465.78848  20727024.675    20727024.7194   20727029.7014
        -0.000          -0.000
  -5285694.046 8  -3869048.73245  24301515.061    24301514.2224   24301521.7614
        -0.000          -0.000
 -12749357.509 9  -9326661.84547  22331757.972    22331757.7464   22331764.6524
        -0.000          -0.000
   5774321.188 9   4498595.28548  21549350.055    21549349.2464   21549354.7834
        -0.000          -0.000
 -13090678.706 9 -10183292.74648  21830052.249    21830051.9304   21830056.7764
        -0.000          -0.000
 97  3 14 22 29  0.0000000  0  7  2 26  4  5 24  7  9                0.000000025
   4241321.282 9   3304668.05047  22357911.283    22357910.5914   22357916.8754
        -0.000          -0.000
   7907178.114 9   6158315.81645  24598658.671    24598658.7324   24598665.7274
        -0.000          -0.000
 -12071346.791 9  -9386940.24248  20719582.472    20719582.5024   20719587.4924
        -0.000          -0.000
  -5367714.724 8  -3932960.88345  24285906.912    24285906.1974   24285913.7034
        -0.000          -0.000
 -12843983.238 9  -9400396.14447  22313751.310    22313751.0824   22313757.9264
        -0.000          -0.000
   5831739.342 9   4543336.69848  21560276.327    21560275.5624   21560281.1104
        -0.000          -0.000
 -13145137.734 9 -10225728.33948  21819688.997    21819688.6744   21819693.5794
        -0.000          -0.000
 97  3 14 22 29 30.0000000  0  7  2 26  4  5 24  7  9                0.000000008
   4291792.582 9   3343996.29447  22367515.736    22367515.0114   22367521.3234
        -0.000          -0.000
   7975810.638 9   6211795.65445  24611719.169    24611719.2404   24611725.9844
        -0.000          -0.000
 -12109887.159 9  -9416971.67648  20712248.471    20712248.5294   20712253.5174
        -0.000          -0.000
  -5449782.666 8  -3996909.85445  24270289.877    24270289.2184   24270296.5574
        -0.000          -0.000
 -12938301.379 9  -9473890.76647  22295803.109    22295802.8774   22295809.6654
        -0.000          -0.000
   5889256.049 9   4588154.90348  21571221.426    21571220.6644   21571226.1604
        -0.000          -0.000
 -13199111.409 9 -10267785.73848  21809418.101    21809417.8044   21809422.7884
        -0.000          -0.000
 97  3 14 22 30  0.0000000  0  7  2 26  4  5 24  7  9               -0.000000020
   4342541.525 9   3383540.90747  22377173.044    22377172.3064   22377178.5794
        -0.000          -0.000
   8044491.314 9   6265312.99145  24624788.927    24624788.9034   24624795.6614
        -0.000          -0.000
 -12147826.602 9  -9446534.85749  20705028.852    20705028.8974   20705033.8584
        -0.000          -0.000
  -5531866.840 8  -4060871.49045  24254669.862    24254669.2324   24254676.3524
        -0.000          -0.000
 -13032300.340 9  -9547136.67247  22277915.684    22277915.4304   22277922.2424
        -0.000          -0.000
   5946900.263 9   4633072.47048  21582190.785    21582190.0414   21582195.4604
        -0.000          -0.000
 -13252559.758 9 -10309433.78848  21799247.251    21799246.9064   21799251.9424
        -0.000          -0.000
 97  3 14 22 30 30.0000000  0  7  2 26  4  5 24  7  9               -0.000000058
   4393563.479 9   3423298.24947  22386882.210    22386881.4754   22386887.7584
        -0.000          -0.000
   8113212.702 9   6318862.05345  24637866.232    24637866.3404   24637872.8474
        -0.000          -0.000
 -12185172.241 9  -9475635.33649  20697922.251    20697922.2774   20697927.1754
        -0.000          -0.000
  -5613977.336 8  -4124853.61545  24239044.871    24239044.3184   24239051.1834
        -0.000          -0.000
 -13125986.968 9  -9620139.20347  22260087.663    22260087.4024   22260094.2084
        -0.000          -0.000
   6004682.245 9   4678097.39548  21593186.345    21593185.5794   21593190.9454
        -0.000          -0.000
 -13305491.812 9 -10350679.53448  21789174.553    21789174.1994   21789179.2734
        -0.000          -0.000
 97  3 14 22 31  0.0000000  0  7  2 26  4  5 24  7  9               -0.000000094
   4444866.600 9   3463274.69247  22396644.817    22396644.1564   22396650.4074
        -0.000          -0.000
   8181960.569 9   6372431.73645  24650948.533    24650948.6434   24650955.0684
        -0.000          -0.000
 -12221944.545 9  -9504289.06049  20690924.726    20690924.7214   20690929.6074
        -0.000          -0.000
  -5696126.457 9  -4188865.84245  24223412.426    24223411.8704   24223418.7024
        -0.000          -0.000
 -13219362.587 9  -9692899.38147  22242318.861    22242318.5634   22242325.3954
        -0.000          -0.000
   6062610.585 9   4723236.35548  21604209.726    21604208.9874   21604214.3454
        -0.000          -0.000
 -13357933.526 9 -10391543.19048  21779195.162    21779194.8174   21779199.9564
        -0.000          -0.000
 97  3 14 22 31 30.0000000  0  7  2 26  4  5 24  7  9               -0.000000115
   4496461.028 9   3503478.11247  22406462.987    22406462.2994   22406468.5114
        -0.000          -0.000
   8250725.832 9   6426014.98945  24664034.126    24664034.1654   24664040.6484
        -0.000          -0.000
 -12258140.159 9  -9532493.41049  20684036.922    20684036.9294   20684041.8174
        -0.000          -0.000
  -5778292.657 9  -4252891.38345  24207776.823    24207776.1654   24207782.8564
        -0.000          -0.000
 -13312452.377 9  -9765436.84447  22224604.463    22224604.1774   22224611.0124
        -0.000          -0.000
   6120699.689 9   4768500.58848  21615263.715    21615262.9654   21615268.3474
        -0.000          -0.000
 -13409880.328 9 -10432021.20548  21769310.001    21769309.6714   21769314.7694
        -0.000          -0.000
 97  3 14 22 32  0.0000000  0  7  2 26  4  5 24  7  9               -0.000000133
   4548317.720 9   3543885.89947  22416331.020    22416330.3174   22416336.5314
        -0.000          -0.000
   8319489.827 8   6479597.25845  24677119.458    24677119.5564   24677126.2054
        -0.000          -0.000
 -12293784.178 9  -9560267.95149  20677254.068    20677254.0754   20677258.9624
        -0.000          -0.000
  -5860503.906 9  -4316952.03145  24192132.714    24192132.0854   24192138.5484
        -0.000          -0.000
 -13405287.316 9  -9837775.72547  22206938.514    22206938.2474   22206945.0954
        -0.000          -0.000
   6178914.572 9   4813862.83648  21626341.610    21626340.8664   21626346.2904
        -0.000          -0.000
 -13461373.861 9 -10472146.01848  21759511.103    21759510.7844   21759515.8564
        -0.000          -0.000
 97  3 14 22 32 30.0000000  0  7  2 26  4  5 24  7  9               -0.000000138
   4600444.594 9   3584504.21747  22426250.421    22426249.7104   22426255.9054
        -0.000          -0.000
   8388260.439 8   6533184.67145  24690206.021    24690206.0064   24690213.0114
        -0.000          -0.000
 -12328871.473 9  -9587608.68649  20670577.155    20670577.1974   20670582.0574
        -0.000          -0.000
  -5942757.423 9  -4381045.61245  24176480.506    24176479.9514   24176486.2814
        -0.000          -0.000
 -13497859.874 9  -9909910.14947  22189322.529    22189322.3124   22189329.1264
        -0.000          -0.000
   6237235.544 9   4859307.74448  21637439.764    21637439.0224   21637444.4164
        -0.000          -0.000
 -13512432.424 9 -10511931.90548  21749795.022    21749794.6904   21749799.7044
        -0.000          -0.000
 97  3 14 22 33  0.0000000  0  7  2 26  4  5 24  7  9               -0.000000134
   4652837.240 9   3625329.62847  22436220.482    22436219.7284   22436225.9224
        -0.000          -0.000
   8457024.298 8   6586766.80445  24703291.434    24703291.5464   24703298.4704
        -0.000          -0.000
 -12363397.313 9  -9614511.91549  20664007.110    20664007.1264   20664011.9824
        -0.000          -0.000
  -6025043.778 9  -4445164.76945  24160822.037    24160821.3424   24160827.6494
        -0.000          -0.000
 -13590174.654 9  -9981843.70847  22171755.651    22171755.4134   22171762.1894
        -0.000          -0.000
   6295659.044 9   4904832.55048  21648557.493    21648556.6864   21648562.0714
        -0.000          -0.000
 -13563047.305 9 -10551372.05548  21740163.311    21740162.9784   21740167.9734
        -0.000          -0.000
 97  3 14 22 33 30.0000000  0  7  2 26  4  5 24  7  9               -0.000000128
   4705496.861 9   3666363.07047  22446241.331    22446240.5814   22446246.7534
        -0.000          -0.000
   8525787.943 8   6640348.79145  24716376.997    24716376.9084   24716383.8494
        -0.000          -0.000
 -12397334.405 9  -9640956.38449  20657549.073    20657549.0774   20657553.9124
        -0.000          -0.000
  -6107350.103 9  -4509299.49445  24145159.686    24145158.9544   24145165.2714
        -0.000          -0.000
 -13682225.080 9 -10053571.29247  22154239.081    22154238.8004   22154245.5254
        -0.000          -0.000
   6354178.694 9   4950432.26848  21659693.397    21659692.5774   21659697.9994
        -0.000          -0.000
 -13613200.733 9 -10590452.64048  21730619.380    21730619.0564   21730624.0244
        -0.000          -0.000
 97  3 14 22 34  0.0000000  0  7  2 26  4  5 24  7  9               -0.000000128
   4758421.823 9   3707603.28247  22456312.589    22456311.8584   22456318.0624
        -0.000          -0.000
   8594561.317 8   6693938.37045  24729464.011    24729464.0784   24729470.9414
        -0.000          -0.000
 -12430672.812 9  -9666934.34449  20651204.940    20651204.9584   20651209.7884
        -0.000          -0.000
  -6189691.613 9  -4573461.63845  24129490.574    24129489.8824   24129496.2984
        -0.000          -0.000
 -13773986.398 9 -10125073.57247  22136777.469    22136777.2084   22136783.9254
        -0.000          -0.000
   6412785.859 9   4996100.18548  21670845.954    21670845.1464   21670850.5794
        -0.000          -0.000
 -13662889.594 9 -10629171.22648  21721163.888    21721163.5914   21721168.5714
        -0.000          -0.000
 97  3 14 22 34 30.0000000  0  7  2 26  4  5 24  7  9               -0.000000107
   4811659.623 9   3749087.25747  22466443.424    22466442.6464   22466448.9194
        -0.000          -0.000
   8663375.864 8   6747559.98245  24742558.886    24742559.0234   24742566.1044
        -0.000          -0.000
 -12463376.739 9  -9692417.90949  20644981.580    20644981.6074   20644986.4334
        -0.000          -0.000
  -6272025.493 9  -4637617.84145  24113822.749    24113822.0694   24113828.5304
        -0.000          -0.000
 -13865419.944 9 -10196320.46347  22119378.228    22119377.9534   22119384.6764
        -0.000          -0.000
   6471520.879 9   5041867.72148  21682022.803    21682022.0194   21682027.4594
        -0.000          -0.000
 -13712059.898 9 -10667485.74848  21711807.121    21711806.7994   21711811.7674
        -0.000          -0.000
 97  3 14 22 35  0.0000000  0  7  2 26  4  5 24  7  9               -0.000000088
   4865174.901 9   3790787.44247  22476626.991    22476626.2654   22476632.6004
        -0.000          -0.000
   8732196.175 8   6801186.11345  24755654.880    24755655.0474   24755662.1204
        -0.000          -0.000
 -12495493.211 9  -9717443.70949  20638869.996    20638870.0284   20638874.8334
        -0.000          -0.000
  -6354391.661 9  -4701799.19245  24098148.829    24098148.1494   24098154.7554
        -0.000          -0.000
 -13956551.295 9 -10267331.87847  22102036.549    22102036.2884   22102042.9044
        -0.000          -0.000
   6530355.561 9   5087712.91848  21693218.608    21693217.8884   21693223.3194
        -0.000          -0.000
 -13760732.895 9 -10705412.74948  21702545.002    21702544.6614   21702549.6334
        -0.000          -0.000
 97  3 14 22 35 30.0000000  0  7  2 26  4  5 24  7  9               -0.000000065
   4918975.656 9   3832710.08347  22486864.984    22486864.2184   22486870.6434
        -0.000          -0.000
   8801024.177 8   6854818.24745  24768752.427    24768752.5794   24768759.8264
        -0.000          -0.000
 -12527027.239 9  -9742015.66149  20632869.265    20632869.2924   20632874.0984
        -0.000          -0.000
  -6436785.344 8  -4766002.00245  24082469.591    24082468.9054   24082475.5844
        -0.000          -0.000
 -14047344.394 9 -10338079.70847  22084759.211    22084758.9294   22084765.4894
        -0.000          -0.000
   6589276.733 9   5133625.50748  21704430.938    21704430.1964   21704435.6674
        -0.000          -0.000
 -13808901.355 9 -10742946.61048  21693378.860    21693378.5274   21693383.5324
        -0.000          -0.000
 97  3 14 22 36  0.0000000  0  7  2 26  4  5 24  7  9               -0.000000041
   4973050.030 9   3874845.92747  22497154.959    22497154.2044   22497160.6744
        -0.000          -0.000
   8869835.497 8   6908437.36245  24781846.988    24781847.0944   24781854.1924
        -0.000          -0.000
 -12558022.125 9  -9766167.50149  20626971.100    20626971.1254   20626975.9704
        -0.000          -0.000
  -6519223.922 9  -4830239.77945  24066781.721    24066781.0164   24066787.9494
        -0.000          -0.000
 -14137806.745 9 -10408569.82647  22067544.728    22067544.4574   22067551.0004
        -0.000          -0.000
   6648273.053 9   5179596.65448  21715657.537    21715656.8044   21715662.2684
        -0.000          -0.000
 -13856586.754 9 -10780104.05348  21684304.540    21684304.2194   21684309.3284
        -0.000          -0.000
 97  3 14 22 36 30.0000000  0  7  2 26  4  5 24  7  9               -0.000000018
   5027392.817 9   3917190.92847  22507496.008    22507495.3054   22507501.7564
        -0.000          -0.000
   8938596.451 9   6962017.25745  24794931.954    24794931.9154   24794939.1394
        -0.000          -0.000
 -12588490.550 9  -9789909.11849  20621173.129    20621173.1694   20621178.0124
        -0.000          -0.000
  -6601700.800 9  -4894507.44145  24051086.837    24051086.2104   24051092.8504
        -0.000          -0.000
 -14227949.907 9 -10478811.21547  22050391.010    22050390.7224   22050397.2864
        -0.000          -0.000
   6707340.497 9   5225623.21948  21726897.709    21726896.9524   21726902.4054
        -0.000          -0.000
 -13903805.548 9 -10816897.91548  21675318.973    21675318.6994   21675323.9234
        -0.000          -0.000
 97  3 14 22 37  0.0000000  0  7  2 26  4  5 24  7  9               -0.000000025
   5081961.894 9   3959712.26647  22517880.217    22517879.5164   22517885.8964
        -0.000          -0.000
   9007261.106 9   7015522.09145  24807998.611    24807998.6594   24808005.7204
        -0.000          -0.000
 -12618454.760 9  -9813257.82949  20615471.158    20615471.1764   20615475.9704
        -0.000          -0.000
  -6684245.450 9  -4958827.90845  24035379.204    24035378.5744   24035384.9754
        -0.000          -0.000
 -14317800.010 9 -10548824.25047  22033293.040    22033292.7494   22033299.3974
        -0.000          -0.000
   6766444.586 9   5271678.34148  21738144.814    21738144.0764   21738149.5664
        -0.000          -0.000
 -13950599.417 9 -10853360.66148  21666414.433    21666414.1534   21666419.4204
        -0.000          -0.000
 97  3 14 22 37 30.0000000  0  7  2 26  4  5 24  7  9               -0.000000043
   5136786.428 9   4002432.65047  22528313.117    22528312.3644   22528318.6814
        -0.000          -0.000
   9075867.532 9   7068981.57545  24821054.027    24821053.9924   24821061.1914
        -0.000          -0.000
 -12647853.235 9  -9836165.71749  20609876.847    20609876.8494   20609881.6024
        -0.000          -0.000
  -6766809.209 9  -5023163.23645  24019667.827    24019667.1604   24019673.5514
        -0.000          -0.000
 -14407330.795 9 -10618588.46347  22016255.811    22016255.5444   22016262.2144
        -0.000          -0.000
   6825631.510 9   5317798.01247  21749407.631    21749406.8794   21749412.4474
        -0.000          -0.000
 -13996931.088 9 -10889463.25348  21657597.867    21657597.5774   21657602.8294
        -0.000          -0.000
 97  3 14 22 38  0.0000000  0  7  2 26  4  5 24  7  9               -0.000000063
   5191873.155 9   4045357.34847  22538795.846    22538795.0474   22538801.3844
        -0.000          -0.000
   9144430.268 9   7122407.02845  24834101.105    24834101.0604   24834108.2834
        -0.000          -0.000
 -12676659.344 9  -9858612.01449  20604395.167    20604395.1844   20604399.9334
        -0.000          -0.000
  -6849386.224 9  -5087508.87845  24003953.832    24003953.2204   24003959.7424
        -0.000          -0.000
 -14496569.841 9 -10688125.35347  21999274.147    21999273.8804   21999280.5664
        -0.000          -0.000
   6884928.611 9   5364003.53147  21760691.392    21760690.7074   21760696.3314
        -0.000          -0.000
 -14042795.500 9 -10925201.75148  21648870.171    21648869.8794   21648875.0764
        -0.000          -0.000
 97  3 14 22 38 30.0000000  0  7  2 26  4  5 24  7  9               -0.000000071
   5247245.696 9   4088504.75347  22549332.913    22549332.1224   22549338.4544
        -0.000          -0.000
   9212985.578 8   7175826.66445  24847146.864    24847146.7884   24847154.0384
        -0.000          -0.000
 -12704823.788 9  -9880558.31249  20599035.635    20599035.6544   20599040.4204
        -0.000          -0.000
  -6931944.997 9  -5151840.32645  23988243.347    23988242.7154   23988249.2044
        -0.000          -0.000
 -14585490.849 9 -10757414.42047  21982353.008    21982352.7344   21982359.3944
        -0.000          -0.000
   6944364.069 9   5410316.86747  21772001.582    21772000.8874   21772006.5174
        -0.000          -0.000
 -14088160.937 9 -10960551.43448  21640237.439    21640237.1064   21640242.3304
        -0.000          -0.000
 97  3 14 22 39  0.0000000  0  7  2 26  4  5 24  7  9               -0.000000074
   5302882.510 9   4131858.08747  22559920.266    22559919.5034   22559925.8124
        -0.000          -0.000
   9281533.266 8   7229240.37945  24860191.092    24860190.9584   24860198.1704
        -0.000          -0.000
 -12732374.226 9  -9902026.16249  20593792.923    20593792.9544   20593797.7564
        -0.000          -0.000
  -7014516.305 9  -5216181.54045  23972530.525    23972529.9134   23972536.2794
        -0.000          -0.000
 -14674109.536 9 -10826467.91247  21965489.373    21965489.0994   21965495.7824
        -0.000          -0.000
   7003918.565 9   5456722.95647  21783334.526    21783333.8124   21783339.3884
        -0.000          -0.000
 -14133032.788 9 -10995516.50848  21631698.575    21631698.2574   21631703.4334
        -0.000          -0.000
 97  3 14 22 39 30.0000000  0  7  2 26  4  5 24  7  9               -0.000000062
   5358794.505 9   4175425.83747  22570560.053    22570559.3074   22570565.5434
        -0.000          -0.000
   9350084.646 8   7282656.98845  24873235.957    24873235.7674   24873243.1814
        -0.000          -0.000
 -12759331.546 9  -9923031.84849  20588663.066    20588663.0954   20588667.9444
        -0.000          -0.000
  -7097111.043 9  -5280541.02245  23956813.328    23956812.7644   23956818.9764
        -0.000          -0.000
 -14762417.032 9 -10895278.91347  21948684.974    21948684.7524   21948691.4004
        -0.000          -0.000
   7063594.594 9   5503223.74947  21794690.613    21794689.8304   21794695.3814
        -0.000          -0.000
 -14177403.325 9 -11030090.94348  21623255.146    21623254.8224   21623259.9554
        -0.000          -0.000
 97  3 14 22 40  0.0000000  0  7  2 26  4  5 24  7  9               -0.000000038
   5414991.369 9   4219215.56447  22581254.036    22581253.3034   22581259.4144
        -0.000          -0.000
   9418610.214 8   7336053.45845  24886275.877    24886275.8304   24886283.4794
        -0.000          -0.000
 -12785727.641 9  -9943600.21749  20583640.090    20583640.1124   20583644.9164
        -0.000          -0.000
  -7179746.427 9  -5344932.15545  23941088.318    23941087.8204   23941094.0534
        -0.000          -0.000
 -14850400.013 9 -10963837.03447  21931942.311    21931942.1124   21931948.7734
        -0.000          -0.000
   7123370.252 9   5549802.18147  21806065.527    21806064.7654   21806070.3434
        -0.000          -0.000
 -14221285.504 9 -11064284.84448  21614904.700    21614904.3934   21614909.4464
        -0.000          -0.000
 97  3 14 22 40 30.0000000  0  7  2 26  4  5 24  7  9               -0.000000021
   5471463.634 9   4263219.90147  22592000.383    22591999.6144   22592005.7514
        -0.000          -0.000
   9487080.772 9   7389407.04345  24899305.487    24899305.4794   24899313.2474
        -0.000          -0.000
 -12811585.692 9  -9963749.33449  20578719.463    20578719.4794   20578724.2304
        -0.000          -0.000
  -7262442.959 9  -5409370.91845  23925351.416    23925350.9554   23925357.4094
        -0.000          -0.000
 -14938040.274 9 -11032128.10947  21915264.905    21915264.7184   21915271.3204
        -0.000          -0.000
   7183206.399 9   5596427.74547  21817451.976    21817451.2234   21817456.7844
        -0.000          -0.000
 -14264684.989 9 -11098102.61248  21606646.118    21606645.7904   21606650.8134
        -0.000          -0.000
 97  3 14 22 41  0.0000000  0  7  2 26  4  5 24  7  9               -0.000000023
   5528216.840 9   4307443.14447  22602800.180    22602799.4174   22602805.5674
        -0.000          -0.000
   9555477.315 9   7442702.96245  24912321.125    24912321.1384   24912328.7764
        -0.000          -0.000
 -12836905.785 9  -9983479.27049  20573901.226    20573901.2454   20573906.0004
        -0.000          -0.000
  -7345212.708 9  -5473866.75846  23909600.725    23909600.3284   23909606.8254
        -0.000          -0.000
 -15025340.935 9 -11100154.57047  21898652.205    21898651.9794   21898658.4644
        -0.000          -0.000
   7243088.865 9   5643089.40247  21828847.282    21828846.5044   21828852.0884
        -0.000          -0.000
 -14307587.345 9 -11131533.01348  21598482.062    21598481.7424   21598486.7284
        -0.000          -0.000
 97  3 14 22 41 30.0000000  0  6  2  4  5 24  7  9                  -0.000000002
   5585231.343 9   4351869.99647  22613649.674    22613648.9264   22613655.1034
        -0.000          -0.000
 -12861691.876 9 -10002793.09349  20569184.562    20569184.6004   20569189.3464
        -0.000          -0.000
  -7428064.037 9  -5538426.17946  23893834.754    23893834.2524   23893840.7174
        -0.000          -0.000
 -15112328.706 9 -11167937.21447  21882099.030    21882098.7884   21882105.1574
        -0.000          -0.000
   7302988.717 9   5689764.60647  21840245.852    21840245.0824   21840250.6934
        -0.000          -0.000
 -14350008.806 9 -11164588.69348  21590409.564    21590409.2514   21590414.1824
        -0.000          -0.000
 97  3 14 22 42  0.0000000  0  6  2  4  5 24  7  9                  -0.000000030
   5642498.207 9   4396493.50147  22624547.266    22624546.4824   22624552.6394
        -0.000          -0.000
 -12885907.656 9 -10021662.51149  20564576.421    20564576.4504   20564581.2114
        -0.000          -0.000
  -7510979.785 9  -5603035.80046  23878056.573    23878056.0154   23878062.2764
        -0.000          -0.000
 -15199004.927 9 -11235477.08947  21865605.112    21865604.8374   21865611.1224
        -0.000          -0.000
   7362914.823 9   5736460.26847  21851649.477    21851648.7284   21851654.2914
        -0.000          -0.000
 -14391936.227 9 -11197259.40648  21582431.032    21582430.7244   21582435.6224
        -0.000          -0.000
 97  3 14 22 42 30.0000000  0  6  2  4  5 24  7  9                  -0.000000075
   5700059.736 9   4441346.61447  22635500.866    22635500.0804   22635506.2544
        -0.000          -0.000
 -12909479.922 9 -10040030.49549  20560090.693    20560090.7264   20560095.4804
        -0.000          -0.000
  -7593896.775 9  -5667646.37746  23862278.081    23862277.4594   23862283.5814
        -0.000          -0.000
 -15285334.949 9 -11302747.20347  21849177.060    21849176.7904   21849183.0774
        -0.000          -0.000
   7422930.146 9   5783225.44647  21863070.087    21863069.3324   21863074.7964
        -0.000          -0.000
 -14433302.409 9 -11229492.78848  21574559.334    21574559.0044   21574563.9114
        -0.000          -0.000
 97  3 14 22 43  0.0000000  0  6  2  4  5 24  7  9                  -0.000000112
   5757951.079 9   4486456.71647  22646517.199    22646516.4134   22646522.6114
        -0.000          -0.000
 -12932367.850 9 -10057865.22549  20555735.217    20555735.2904   20555740.0434
        -0.000          -0.000
  -7676766.872 9  -5732220.42046  23846508.311    23846507.7664   23846513.8184
        -0.000          -0.000
 -15371290.603 9 -11369725.59247  21832820.197    21832819.9334   21832826.2834
        -0.000          -0.000
   7483091.973 9   5830104.79147  21874518.539    21874517.7364   21874523.1814
        -0.000          -0.000
 -14474076.935 9 -11261265.14648  21566800.216    21566799.8854   21566804.7454
        -0.000          -0.000
 97  3 14 22 43 30.0000000  0  6  2  4  5 24  7  9                  -0.000000130
   5816150.037 9   4531806.52647  22657592.063    22657591.2864   22657597.5074
        -0.000          -0.000
 -12954589.385 9 -10075180.68149  20551506.617    20551506.6484   20551511.3974
        -0.000          -0.000
  -7759581.536 9  -5796751.25546  23830749.063    23830748.5064   23830754.7214
        -0.000          -0.000
 -15456861.938 9 -11436404.51847  21816536.469    21816536.2164   21816542.6464
        -0.000          -0.000
   7543398.736 9   5877097.06547  21885994.531    21885993.7124   21885999.1714
        -0.000          -0.000
 -14514288.898 9 -11292599.13548  21559148.154    21559147.8034   21559152.6614
        -0.000          -0.000
 97  3 14 22 44  0.0000000  0  6  2  4  5 24  7  9                  -0.000000132
   5874641.870 9   4577384.55547  22668722.773    22668721.9614   22668728.1164
        -0.000          -0.000
 -12976168.955 9 -10091995.90849  20547400.151    20547400.1914   20547404.9814
        -0.000          -0.000
  -7842366.789 9  -5861259.19246  23814995.590    23814994.9734   23815001.1854
        -0.000          -0.000
 -15542057.365 9 -11502790.53047  21800324.296    21800324.0204   21800330.4894
        -0.000          -0.000
   7603836.682 9   5924191.54947  21897495.507    21897494.6704   21897500.0944
        -0.000          -0.000
 -14553971.880 9 -11323520.94248  21551596.668    21551596.3304   21551601.1604
        -0.000          -0.000
 97  3 14 22 44 30.0000000  0  6  2  4  5 24  7  9                  -0.000000097
   5933445.656 9   4623205.66847  22679912.834    22679912.0634   22679918.1724
        -0.000          -0.000
 -12997130.432 9 -10108329.50149  20543411.325    20543411.3624   20543416.1664
        -0.000          -0.000
  -7925124.094 9  -5925745.35346  23799247.435    23799246.8444   23799252.7574
        -0.000          -0.000
 -15626874.018 9 -11568881.38247  21784184.192    21784183.8934   21784190.3494
        -0.000          -0.000
   7664397.373 9   5971381.68947  21909019.795    21909018.9824   21909024.3894
        -0.000          -0.000
 -14593140.796 9 -11354042.16948  21544143.078    21544142.7504   21544147.5664
        -0.000          -0.000
 97  3 14 22 45  0.0000000  0  6  2  4  5 24  7  9                  -0.000000061
   5992485.677 9   4669210.84247  22691147.800    22691147.0554   22691153.1824
        -0.000          -0.000
 -13017548.101 9 -10124239.35249  20539525.946    20539525.9824   20539530.7614
        -0.000          -0.000
  -8007925.286 9  -5990265.70746  23783490.898    23783490.2434   23783496.2064
        -0.000          -0.000
 -15711354.839 9 -11634710.55647  21768108.003    21768107.6834   21768114.1164
        -0.000          -0.000
   7725010.911 9   6018613.00947  21920554.125    21920553.3274   21920558.7104
        -0.000          -0.000
 -14631875.045 9 -11384224.69548  21536772.186    21536771.8534   21536776.6614
        -0.000          -0.000
 97  3 14 22 45 30.0000000  0  6  2  4  5 24  7  9                  -0.000000022
   6051771.985 9   4715407.94147  22702429.638    22702428.9054   22702435.0854
        -0.000          -0.000
 -13037411.873 9 -10139717.59349  20535745.987    20535746.0394   20535750.7524
        -0.000          -0.000
  -8090759.399 9  -6054811.71946  23767728.088    23767727.3954   23767733.3634
        -0.000          -0.000
 -15795494.169 9 -11700273.62647  21752096.733    21752096.4474   21752102.8894
        -0.000          -0.000
   7785680.939 9   6065888.34747  21932099.301    21932098.4744   21932103.8094
        -0.000          -0.000
 -14670157.122 9 -11414054.87748  21529487.243    21529486.9264   21529491.8094
        -0.000          -0.000
 97  3 14 22 46  0.0000000  0  6  2  4  5 24  7  9                  -0.000000003
   6111291.163 9   4761786.49647  22713755.760    22713755.0254   22713761.2644
        -0.000          -0.000
 -13056746.714 9 -10154783.68049  20532066.662    20532066.7264   20532071.4334
        -0.000          -0.000
  -8173656.535 9  -6119406.83146  23751953.232    23751952.5064   23751958.6174
        -0.000          -0.000
 -15879333.405 9 -11765602.86847  21736142.568    21736142.3324   21736148.7834
        -0.000          -0.000
   7846383.371 9   6113188.93147  21943650.594    21943649.7584   21943655.1174
        -0.000          -0.000
 -14707993.039 9 -11443537.40948  21522287.272    21522286.9514   21522291.9074
        -0.000          -0.000
 97  3 14 22 46 30.0000000  0  6  2  4  5 24  7  9                   0.000000016
   6171074.952 9   4808371.22647  22725132.268    22725131.4994   22725137.7984
        -0.000          -0.000
 -13075510.789 9 -10169405.01449  20528495.978    20528496.0484   20528500.7524
        -0.000          -0.000
  -8256572.721 9  -6184016.77346  23736174.670    23736174.0584   23736180.2824
        -0.000          -0.000
 -15962820.325 9 -11830657.57747  21720255.470    21720255.2204   21720261.6684
        -0.000          -0.000
   7907155.228 9   6160543.62047  21955215.068    21955214.3014   21955219.6704
        -0.000          -0.000
 -14745320.129 9 -11472623.45148  21515184.077    21515183.7584   21515188.7654
        -0.000          -0.000
 97  3 14 22 47  0.0000000  0  6  2  4  5 24  7  9                   0.000000018
   6231121.724 9   4855160.88947  22736558.817    22736558.0684   22736564.3794
        -0.000          -0.000
 -13093679.904 9 -10183562.74649  20525038.507    20525038.5524   20525043.2574
        -0.000          -0.000
  -8339510.084 9  -6248643.23746  23720392.181    23720391.5954   23720397.8364
        -0.000          -0.000
 -16045933.277 9 -11895420.87548  21704439.585    21704439.3104   21704445.7204
        -0.000          -0.000
   7968002.856 9   6207957.34247  21966794.014    21966793.1954   21966798.6264
        -0.000          -0.000
 -14782111.127 9 -11501291.75548  21508182.989    21508182.6854   21508187.6434
        -0.000          -0.000
 97  3 14 22 47 30.0000000  0  6  2  4  5 24  7  9                   0.000000011
   6291446.424 9   4902167.11647  22748038.273    22748037.5314   22748043.8244
        -0.000          -0.000
 -13111260.573 9 -10197261.95649  20521693.014    20521693.0584   20521697.7594
        -0.000          -0.000
  -8422469.468 9  -6313286.87946  23704605.518    23704604.9534   23704611.2234
        -0.000          -0.000
 -16128679.423 9 -11959898.35248  21688693.479    21688693.2304   21688699.6374
        -0.000          -0.000
   8028927.254 9   6255430.88447  21978387.577    21978386.7694   21978392.2154
        -0.000          -0.000
 -14818355.489 9 -11529534.10848  21501285.922    21501285.6104   21501290.5784
        -0.000          -0.000
 97  3 14 22 48  0.0000000  0  6  2  4  5 24  7  9                   0.000000004
   6352063.776 9   4949401.38347  22759573.405    22759572.6064   22759578.9434
        -0.000          -0.000
 -13128241.209 9 -10210493.60649  20518461.677    20518461.7154   20518466.4124
        -0.000          -0.000
  -8505440.673 9  -6377939.72446  23688816.613    23688816.0344   23688822.2624
        -0.000          -0.000
 -16211028.830 9 -12024066.68748  21673022.835    21673022.5894   21673029.0384
        -0.000          -0.000
   8089942.896 9   6302975.52047  21989998.472    21989997.6514   21990003.1814
        -0.000          -0.000
 -14854038.276 9 -11557338.87848  21494495.785    21494495.4504   21494500.4074
        -0.000          -0.000
 97  3 14 22 48 30.0000000  0  6  2  4  5 24  7  9                  -0.000000018
   6412951.600 9   4996846.41047  22771160.001    22771159.2244   22771165.5014
        -0.000          -0.000
 -13144632.200 9 -10223265.78849  20515342.573    20515342.6044   20515347.3004
        -0.000          -0.000
  -8588451.242 9  -6442623.20846  23673020.155    23673019.5404   23673025.9084
        -0.000          -0.000
 -16292996.223 9 -12087937.34548  21657424.946    21657424.6674   21657431.1424
        -0.000          -0.000
   8151018.293 9   6350566.72947  22001620.729    22001619.9154   22001625.5354
        -0.000          -0.000
 -14889193.424 9 -11584732.49848  21487806.051    21487805.7124   21487810.6774
        -0.000          -0.000
 97  3 14 22 49  0.0000000  0  6  2  4  5 24  7  9                  -0.000000050
   6474118.044 9   5044508.53547  22782799.642    22782798.8574   22782805.0934
        -0.000          -0.000
 -13160425.697 9 -10235572.38749  20512337.166    20512337.1944   20512341.8754
        -0.000          -0.000
  -8671488.966 9  -6507327.86746  23657218.587    23657217.9594   23657224.4144
        -0.000          -0.000
 -16374584.620 9 -12151512.69148  21641899.151    21641898.8854   21641905.3464
        -0.000          -0.000
   8212161.457 9   6398210.74547  22013255.880    22013255.0804   22013260.7624
        -0.000          -0.000
 -14923824.374 9 -11611717.64848  21481215.966    21481215.6344   21481220.6214
        -0.000          -0.000
 97  3 14 22 49 30.0000000  0  6  2  4  5 24  7  9                  -0.000000055
   6535604.896 9   5092420.34847  22794500.163    22794499.4064   22794505.6324
        -0.000          -0.000
 -13175582.258 9 -10247382.68149  20509452.929    20509452.9614   20509457.6054
        -0.000          -0.000
  -8754489.304 9  -6572003.41746  23641424.075    23641423.4144   23641429.8684
        -0.000          -0.000
 -16455769.820 9 -12214773.85848  21626450.108    21626449.8704   21626456.2744
        -0.000          -0.000
   8273408.906 9   6445936.01747  22024910.873    22024910.1024   22024915.7534
        -0.000          -0.000
 -14957890.013 9 -11638262.29448  21474733.432    21474733.1024   21474738.1204
        -0.000          -0.000
 97  3 14 22 50  0.0000000  0  6  2  4  5 24  7  9                  -0.000000070
   6597370.507 9   5140549.35047  22806253.740    22806253.0394   22806259.3074
        -0.000          -0.000
 -13190117.722 9 -10258709.00749  20506686.975    20506686.9864   20506691.5784
        -0.000          -0.000
  -8837488.595 9  -6636678.14546  23625629.786    23625629.1184   23625635.5424
        -0.000          -0.000
 -16536598.480 9 -12277757.19648  21611069.004    21611068.7384   21611075.1014
        -0.000          -0.000
   8334709.668 9   6493702.83847  22036576.007    22036575.2464   22036580.9064
        -0.000          -0.000
 -14991432.577 9 -11664399.35548  21468350.468    21468350.1514   21468355.1254
        -0.000          -0.000
 97  3 14 22 50 30.0000000  0  6  2  4  5 24  7  9                  -0.000000084
   6659433.243 9   5188909.89346  22818063.865    22818063.1244   22818069.4784
        -0.000          -0.000
 -13204010.038 9 -10269534.17549  20504043.329    20504043.3264   20504047.9094
        -0.000          -0.000
  -8920467.090 9  -6701336.65546  23609839.555    23609838.8384   23609845.2124
        -0.000          -0.000
 -16617053.448 9 -12340449.34548  21595758.966    21595758.6384   21595765.0024
        -0.000          -0.000
   8396078.490 9   6541522.69447  22048254.043    22048253.3324   22048258.9834
        -0.000          -0.000
 -15024438.152 9 -11690117.98548  21462069.710    21462069.3794   21462074.3454
        -0.000          -0.000
 97  3 14 22 51  0.0000000  0  6  2  4  5 24  7  9                  -0.000000073
   6721809.594 9   5237514.80546  22829933.778    22829933.0064   22829939.3884
        -0.000          -0.000
 -13217258.319 9 -10279857.49949  20501522.225    20501522.2324   20501526.8504
        -0.000          -0.000
  -9003390.821 9  -6765952.49146  23594059.610    23594058.9934   23594065.2214
        -0.000          -0.000
 -16697115.114 9 -12402835.02648  21580523.720    21580523.3954   21580529.7974
        -0.000          -0.000
   8457550.655 9   6589423.07147  22059951.805    22059951.1044   22059956.7614
        -0.000          -0.000
 -15056878.309 9 -11715396.02948  21455896.468    21455896.1624   21455901.1344
        -0.000          -0.000
 97  3 14 22 51 30.0000000  0  6  2  4  5 24  7  9                  -0.000000067
   6784441.459 9   5286318.81646  22841852.244    22841851.4754   22841857.8544
        -0.000          -0.000
 -13229939.504 9 -10289738.92549  20499109.019    20499109.0524   20499113.7104
        -0.000          -0.000
  -9086323.469 9  -6830575.29846  23578278.058    23578277.4484   23578283.5004
        -0.000          -0.000
 -16776838.068 9 -12464956.77048  21565352.916    21565352.6274   21565359.0504
        -0.000          -0.000
   8519055.811 9   6637349.16047  22071655.931    22071655.2114   22071660.8394
        -0.000          -0.000
 -15088819.986 9 -11740285.64848  21449818.169    21449817.8704   21449822.8414
        -0.000          -0.000
 97  3 14 22 52  0.0000000  0  6  2  4  5 24  7  9                  -0.000000027
   6847383.206 9   5335364.30546  22853829.763    22853828.9444   22853835.2784
        -0.000          -0.000
 -13242009.356 9 -10299143.98449  20496812.177    20496812.2424   20496816.8994
        -0.000          -0.000
  -9169222.774 9  -6895172.10446  23562502.704    23562502.1004   23562508.1544
        -0.000          -0.000
 -16856145.979 9 -12526755.10848  21550261.116    21550260.8054   21550267.2504
        -0.000          -0.000
   8580653.804 9   6685347.58847  22083377.705    22083376.9464   22083382.5454
        -0.000          -0.000
 -15120215.635 9 -11764749.79148  21443843.783    21443843.4764   21443848.4404
        -0.000          -0.000
 97  3 14 22 52 30.0000000  0  6  2  4  5 24  7  9                   0.000000013
   6910571.396 9   5384601.81646  22865854.057    22865853.2494   22865859.6294
        -0.000          -0.000
 -13253546.424 9 -10308133.89249  20494616.723    20494616.7924   20494621.4694
        -0.000          -0.000
  -9252149.795 9  -6959790.51146  23546722.002    23546721.4454   23546727.5014
        -0.000          -0.000
 -16935085.177 9 -12588266.13748  21535239.438    21535239.1544   21535245.5504
        -0.000          -0.000
   8642291.568 9   6733377.00347  22095106.982    22095106.2264   22095111.8114
        -0.000          -0.000
 -15151111.053 9 -11788824.14448  21437964.599    21437964.3064   21437969.2164
        -0.000          -0.000
 97  3 14 22 53  0.0000000  0  6  2  4  5 24  7  9                   0.000000026
   6973969.503 9   5434002.90146  22877918.193    22877917.4774   22877923.9114
        -0.000          -0.000
 -13264579.643 9 -10316731.18949  20492517.180    20492517.2264   20492521.9204
        -0.000          -0.000
  -9335142.297 9  -7024459.94046  23530928.932    23530928.4174   23530934.4764
        -0.000          -0.000
 -17013691.625 9 -12649517.88048  21520281.112    21520280.8304   21520287.1994
        -0.000          -0.000
   8703925.206 9   6781403.20747  22106835.442    22106834.7074   22106840.3024
        -0.000          -0.000
 -15181535.875 9 -11812531.79548  21432174.959    21432174.6644   21432179.5474
        -0.000          -0.000
 97  3 14 22 53 30.0000000  0  6  2  4  5 24  7  9                   0.000000052
   7037672.241 9   5483641.37046  22890040.419    22890039.7454   22890046.2294
        -0.000          -0.000
 -13274990.878 9 -10324843.81849  20490535.980    20490536.0374   20490540.7424
        -0.000          -0.000
  -9418119.906 9  -7089117.76346  23515138.873    23515138.2194   23515144.2764
        -0.000          -0.000
 -17091866.629 9 -12710433.42448  21505404.823    21505404.5584   21505410.9664
        -0.000          -0.000
   8765638.070 9   6829491.14547  22118578.941    22118578.1874   22118583.8764
        -0.000          -0.000
 -15211386.291 9 -11835791.85248  21426494.640    21426494.3274   21426499.2014
        -0.000          -0.000
 97  3 14 22 54  0.0000000  0  6  2  4  5 24  7  9                   0.000000051
   7101636.367 9   5533483.50147  22902212.506    22902211.8084   22902218.2154
        -0.000          -0.000
 -13284801.539 9 -10332488.47649  20488669.046    20488669.1094   20488673.7904
        -0.000          -0.000
  -9501122.732 9  -7153795.24446  23499343.950    23499343.3034   23499349.2834
        -0.000          -0.000
 -17169647.734 9 -12771042.03948  21490603.594    21490603.3254   21490609.7354
        -0.000          -0.000
   8827404.260 9   6877620.62447  22130332.635    22130331.8704   22130337.6174
        -0.000          -0.000
 -15240696.707 9 -11858631.13748  21420917.054    21420916.7784   21420921.6374
        -0.000          -0.000
 97  3 14 22 54 30.0000000  0  6  2  4  5 24  7  9                   0.000000017
   7165865.039 9   5583531.78647  22914434.888    22914434.2574   22914440.6354
        -0.000          -0.000
 -13293979.457 9 -10339640.08749  20486922.528    20486922.5894   20486927.2394
        -0.000          -0.000
  -9584129.993 9  -7218476.17146  23483548.244    23483547.5884   23483553.5704
        -0.000          -0.000
 -17247025.363 9 -12831336.25248  21475879.099    21475878.8394   21475885.2574
        -0.000          -0.000
   8889245.100 9   6925808.28147  22142100.542    22142099.7934   22142105.5804
        -0.000          -0.000
 -15269448.469 9 -11881035.10848  21415445.791    21415445.4864   21415450.3504
        -0.000          -0.000
 97  3 14 22 55  0.0000000  0  6  2  4  5 24  7  9                  -0.000000022
   7230388.186 9   5633809.53646  22926713.260    22926712.6074   22926719.0304
        -0.000          -0.000
 -13302498.517 9 -10346278.29949  20485301.410    20485301.4614   20485306.0814
        -0.000          -0.000
  -9667101.137 9  -7283128.97446  23467759.313    23467758.6894   23467764.5424
        -0.000          -0.000
 -17323968.467 9 -12891291.88048  21461237.253    21461236.9954   21461243.4074
        -0.000          -0.000
   8951195.809 9   6974081.54547  22153889.481    22153888.6724   22153894.4404
        -0.000          -0.000
 -15297627.293 9 -11902992.63548  21410083.561    21410083.2484   21410088.0834
        -0.000          -0.000
 97  3 14 22 55 30.0000000  0  6  2  4  5 24  7  9                  -0.000000046
   7295212.787 9   5684322.17546  22939049.073    22939048.3374   22939054.7964
        -0.000          -0.000
 -13310365.012 9 -10352408.01849  20483804.471    20483804.5074   20483809.1044
        -0.000          -0.000
  -9750015.558 9  -7347737.58546  23451981.275    23451980.6924   23451986.3404
        -0.000          -0.000
 -17400465.349 9 -12950899.79848  21446680.353    21446680.0534   21446686.4714
        -0.000          -0.000
   9013266.308 9   7022448.15547  22165701.106    22165700.2854   22165706.0004
        -0.000          -0.000
 -15325226.539 9 -11924498.53448  21404831.593    21404831.2644   21404836.1414
        -0.000          -0.000
 97  3 14 22 56  0.0000000  0  6  2  4  5 24  7  9                  -0.000000051
   7360323.987 9   5735058.13546  22951439.316    22951438.6304   22951445.1104
        -0.000          -0.000
 -13317607.841 9 -10358051.76849  20482426.194    20482426.2414   20482430.8334
        -0.000          -0.000
  -9832880.203 9  -7412307.36646  23436212.667    23436211.8984   23436217.6884
        -0.000          -0.000
 -17476526.556 9 -13010168.23048  21432206.319    21432206.0234   21432212.4434
        -0.000          -0.000
   9075429.780 9   7070887.21547  22177530.365    22177529.5764   22177535.3014
        -0.000          -0.000
 -15352278.474 9 -11945577.96248  21399683.758    21399683.4284   21399688.3434
        -0.000          -0.000
 97  3 14 22 56 30.0000000  0  6  2  4  5 24  7  9                  -0.000000045
   7425707.061 9   5786005.96046  22963881.285    22963880.6274   22963887.0924
        -0.000          -0.000
 -13324264.898 9 -10363239.06849  20481159.378    20481159.4184   20481164.0244
        -0.000          -0.000
  -9915723.672 9  -7476860.65946  23420448.018    23420447.3024   23420453.0094
        -0.000          -0.000
 -17552185.992 9 -13069123.59348  21417808.734    21417808.4704   21417814.8484
        -0.000          -0.000
   9137646.474 9   7119367.74947  22189369.806    22189369.0794   22189374.7804
        -0.000          -0.000
 -15378802.672 9 -11966246.16548  21394636.289    21394635.9624   21394640.9144
        -0.000          -0.000
 97  3 14 22 57  0.0000000  0  6  2  4  5 24  7  9                  -0.000000042
   7491328.757 9   5837139.70646  22976368.736    22976368.0124   22976374.5274
        -0.000          -0.000
 -13330409.906 9 -10368027.37449  20479989.985    20479990.0284   20479994.6384
        -0.000          -0.000
  -9998607.496 9  -7541445.40346  23404675.708    23404674.9904   23404680.5524
        -0.000          -0.000
 -17627494.117 9 -13127805.20848  21403478.052    21403477.7714   21403484.1034
        -0.000          -0.000
   9199846.641 9   7167835.40047  22201206.121    22201205.3654   22201211.0874
        -0.000          -0.000
 -15404851.033 9 -11986543.59348  21389679.410    21389679.0934   21389684.0654
        -0.000          -0.000
 97  3 14 22 57 30.0000000  0  6  2  4  5 24  7  9                  -0.000000030
   7557233.662 9   5888494.14146  22988910.021    22988909.3394   22988915.8144
        -0.000          -0.000
 -13335985.705 9 -10372372.13949  20478928.935    20478928.9834   20478933.5594
        -0.000          -0.000
 -10081498.466 9  -7606035.72546  23388901.975    23388901.3104   23388906.8454
        -0.000          -0.000
 -17702407.729 9 -13186179.41148  21389222.421    21389222.1404   21389228.4264
        -0.000          -0.000
   9262072.430 9   7216323.01647  22213047.334    22213046.5584   22213052.3304
        -0.000          -0.000
 -15430376.882 9 -12006433.86548  21384822.004    21384821.7064   21384826.6394
        -0.000          -0.000
 97  3 14 22 58  0.0000000  0  6  2  4  5 24  7  9                  -0.000000024
   7623418.170 9   5940066.45146  23001504.417    23001503.8014   23001510.2594
        -0.000          -0.000
 -13340984.044 9 -10376266.93649  20477977.744    20477977.7914   20477982.3894
        -0.000          -0.000
 -10164406.448 9  -7670639.30246  23373125.122    23373124.4534   23373129.7324
        -0.000          -0.000
 -17776930.798 9 -13244249.29948  21375041.092    21375040.8174   21375047.0834
        -0.000          -0.000
   9324336.601 9   7264840.54347  22224895.733    22224894.9954   22224900.8394
        -0.000          -0.000
 -15455369.108 9 -12025908.32448  21380066.148    21380065.8194   21380070.7254
        -0.000          -0.000
 97  3 14 22 58 30.0000000  0  6  2  4  5 24  7  9                  -0.000000031
   7689883.691 9   5991857.73746  23014152.400    23014151.7544   23014158.2824
        -0.000          -0.000
 -13345402.518 9 -10379709.89149  20477136.943    20477137.0034   20477141.6084
        -0.000          -0.000
 -10247338.967 9  -7735261.99946  23357343.545    23357342.8294   23357348.1074
        -0.000          -0.000
 -17851065.992 9 -13302016.94748  21360933.635    21360933.3544   21360939.5864
        -0.000          -0.000
   9386651.073 9   7313397.25947  22236753.784    22236753.0664   22236758.8814
        -0.000          -0.000
 -15479817.714 9 -12044959.18448  21375413.691    21375413.3694   21375418.2644
        -0.000          -0.000
 97  3 14 22 59  0.0000000  0  6  2  4  5 24  7  9                  -0.000000038
   7756656.052 9   6043888.11146  23026858.754    23026858.1384   23026864.7334
        -0.000          -0.000
 -13349185.654 9 -10382657.77449  20476417.027    20476417.0914   20476421.7064
        -0.000          -0.000
 -10330253.217 9  -7799870.46146  23341565.409    23341564.7314   23341570.0274
        -0.000          -0.000
 -17924758.760 9 -13359439.85248  21346910.360    21346910.0724   21346916.2644
        -0.000          -0.000
   9449061.818 9   7362028.99747  22248630.197    22248629.4644   22248635.2874
        -0.000          -0.000
 -15503692.615 9 -12063563.00448  21370870.448    21370870.1344   21370875.0144
        -0.000          -0.000
 97  3 14 22 59 30.0000000  0  6  2  4  5 24  7  9                  -0.000000074
   7823696.505 9   6096127.38746  23039616.205    23039615.5064   23039622.1574
        -0.000          -0.000
 -13352350.940 9 -10385124.22149  20475814.725    20475814.7784   20475819.4024
        -0.000          -0.000
 -10413169.741 9  -7864480.70946  23325786.891    23325786.2244   23325791.5594
        -0.000          -0.000
 -17998039.119 9 -13416541.39648  21332965.593    21332965.3054   21332971.4504
        -0.000          -0.000
   9511540.579 9   7410713.73647  22260519.500    22260518.7444   22260524.5894
        -0.000          -0.000
 -15527013.663 9 -12081735.25248  21366432.595    21366432.2774   21366437.1604
        -0.000          -0.000
 97  3 14 23  0  0.0000000  0  6  2  4  5 24  7  9                  -0.000000116
   7891026.296 9   6148592.11346  23052428.691    23052427.9564   23052434.6884
        -0.000          -0.000
 -13354885.922 9 -10387099.52249  20475332.326    20475332.3924   20475336.9914
        -0.000          -0.000
 -10496061.688 9  -7929071.79746  23310012.919    23310012.2944   23310017.8894
        -0.000          -0.000
 -18070886.393 9 -13473305.47048  21319103.203    21319102.9124   21319109.0264
        -0.000          -0.000
   9574085.093 9   7459449.71347  22272421.358    22272420.5544   22272426.4204
        -0.000          -0.000
 -15549759.447 9 -12099459.23948  21362104.207    21362103.8934   21362108.7974
        -0.000          -0.000
 97  3 14 23  0 30.0000000  0  6  2  4  5 24  7  9                  -0.000000134
   7958675.700 9   6201305.88846  23065301.930    23065301.2334   23065307.9914
        -0.000          -0.000
 -13356763.345 9 -10388562.43949  20474975.079    20474975.1404   20474979.7094
        -0.000          -0.000
 -10578889.466 9  -7993612.88946  23294251.141    23294250.5664   23294256.1834
        -0.000          -0.000
 -18143258.862 9 -13529699.56048  21305331.132    21305330.8364   21305336.9614
        -0.000          -0.000
   9636705.233 9   7508244.61247  22284337.536    22284336.8044   22284342.6594
        -0.000          -0.000
 -15571921.991 9 -12116728.75348  21357886.844    21357886.5234   21357891.4774
        -0.000          -0.000
 97  3 14 23  1  0.0000000  0  6  2  4  5 24  7  9                  -0.000000134
   8026619.375 9   6254248.96346  23078231.154    23078230.4934   23078237.2834
        -0.000          -0.000
 -13358008.825 9 -10389532.93349  20474738.064    20474738.1044   20474742.6614
        -0.000          -0.000
 -10661657.998 9  -8058107.82646  23278500.792    23278500.1804   23278505.7954
        -0.000          -0.000
 -18215178.907 9 -13585741.11848  21291645.158    21291644.9014   21291651.0044
        -0.000          -0.000
   9699368.889 9   7557073.41847  22296262.088    22296261.3894   22296267.1584
        -0.000          -0.000
 -15593520.677 9 -12133558.89648  21353776.767    21353776.4484   21353781.4184
        -0.000          -0.000
 97  3 14 23  1 30.0000000  0  6  2  4  5 24  7  9                  -0.000000125
   8094826.588 9   6307397.39146  23091210.565    23091209.9084   23091216.7414
        -0.000          -0.000
 -13358678.090 9 -10390054.43049  20474610.749    20474610.7824   20474615.3174
        -0.000          -0.000
 -10744399.818 9  -8122581.94146  23262755.478    23262754.8604   23262760.5454
        -0.000          -0.000
 -18286695.850 9 -13641468.57548  21278035.888    21278035.6134   21278041.7074
        -0.000          -0.000
   9762029.614 9   7605899.94347  22308186.150    22308185.4044   22308191.0854
        -0.000          -0.000
 -15614582.961 9 -12149971.06548  21349768.740    21349768.4334   21349773.4384
        -0.000          -0.000
 97  3 14 23  2  0.0000000  0  6  2  4  5 24  7  9                  -0.000000098
   8163318.876 9   6360767.94946  23104244.151    23104243.5454   23104250.3854
        -0.000          -0.000
 -13358749.009 9 -10390109.67849  20474597.196    20474597.2414   20474601.8194
        -0.000          -0.000
 -10827097.363 9  -8187021.54646  23247018.666    23247018.0644   23247023.8404
        -0.000          -0.000
 -18357785.946 9 -13696863.41448  21264507.829    21264507.5784   21264513.5984
        -0.000          -0.000
   9824713.127 9   7654744.23447  22320114.476    22320113.7274   22320119.3304
        -0.000          -0.000
 -15635097.294 9 -12165956.25148  21345865.048    21345864.7554   21345869.7224
        -0.000          -0.000
 97  3 14 23  2 30.0000000  0  6  2  4  5 24  7  9                  -0.000000068
   8232073.703 9   6414343.10346  23117327.895    23117327.2574   23117333.9144
        -0.000          -0.000
 -13358253.540 9 -10389723.58749  20474691.449    20474691.5064   20474696.1034
        -0.000          -0.000
 -10909778.338 9  -8251448.24646  23231284.975    23231284.3564   23231290.2024
        -0.000          -0.000
 -18428471.519 9 -13751943.05048  21251056.814    21251056.5604   21251062.5034
        -0.000          -0.000
   9887418.847 9   7703605.81647  22332047.016    22332046.2764   22332051.8274
        -0.000          -0.000
 -15655077.380 9 -12181525.15148  21342063.033    21342062.7174   21342067.6804
        -0.000          -0.000
 97  3 14 23  3  0.0000000  0  6  2  4  5 24  7  9                  -0.000000033
   8301108.604 9   6468136.48746  23130464.968    23130464.2934   23130470.8444
        -0.000          -0.000
 -13357184.682 9 -10388890.70049  20474894.842    20474894.9054   20474899.4754
        -0.000          -0.000
 -10992450.503 9  -8315868.06046  23215552.946    23215552.2974   23215558.3514
        -0.000          -0.000
 -18498746.587 9 -13806702.80948  21237683.930    21237683.6584   21237689.5954
        -0.000          -0.000
   9950162.482 9   7752496.94947  22343986.790    22343986.0214   22343991.5814
        -0.000          -0.000
 -15674501.683 9 -12196660.96648  21338366.693    21338366.3774   21338371.3674
        -0.000          -0.000
 97  3 14 23  3 30.0000000  0  6  2  4  5 24  7  9                   0.000000008
   8370434.600 9   6522156.70146  23143657.271    23143656.5894   23143663.0224
        -0.000          -0.000
 -13355528.240 9 -10387599.95549  20475210.027    20475210.0774   20475214.6124
        -0.000          -0.000
 -11075107.366 9  -8380275.97046  23199823.874    23199823.2374   23199829.2764
        -0.000          -0.000
 -18568587.927 9 -13861124.59648  21224393.478    21224393.2284   21224399.1734
        -0.000          -0.000
  10012965.387 9   7801434.26647  22355937.761    22355936.9574   22355942.5494
        -0.000          -0.000
 -15693360.062 9 -12211355.80348  21334778.049    21334777.7514   21334782.6634
        -0.000          -0.000
 97  3 14 23  4  0.0000000  0  6  2  4  5 24  7  9                   0.000000036
   8440024.124 9   6576382.26646  23156899.630    23156899.0224   23156905.4534
        -0.000          -0.000
 -13353298.543 9 -10385862.52149  20475634.237    20475634.2944   20475638.8564
        -0.000          -0.000
 -11157770.873 9  -8444689.05846  23184093.550    23184092.8974   23184098.8364
        -0.000          -0.000
 -18638006.481 9 -13915216.94848  21211183.553    21211183.2934   21211189.2624
        -0.000          -0.000
  10075812.270 9   7850405.84747  22367897.057    22367896.2774   22367901.9554
        -0.000          -0.000
 -15711681.596 9 -12225632.31748  21331291.576    21331291.2644   21331296.1734
        -0.000          -0.000
 97  3 14 23  4 30.0000000  0  6  2  4  5 24  7  9                   0.000000054
   8509872.786 9   6630809.75546  23170191.464    23170190.8314   23170197.3104
        -0.000          -0.000
 -13350509.317 9 -10383689.07849  20476164.942    20476165.0164   20476169.6104
        -0.000          -0.000
 -11240445.741 9  -8509110.98746  23168361.062    23168360.3984   23168366.2714
        -0.000          -0.000
 -18706999.510 9 -13968977.71448  21198054.634    21198054.3724   21198060.3284
        -0.000          -0.000
  10138692.466 9   7899403.37947  22379862.776    22379861.9544   22379867.7304
        -0.000          -0.000
 -15729476.307 9 -12239498.31848  21327905.340    21327905.0294   21327909.9604
        -0.000          -0.000
 97  3 14 23  5  0.0000000  0  6  2  4  5 24  7  9                   0.000000061
   8579977.605 9   6685436.84446  23183532.100    23183531.4154   23183537.9234
        -0.000          -0.000
 -13347148.842 9 -10381070.50949  20476804.433    20476804.4834   20476809.1074
        -0.000          -0.000
 -11323119.061 9  -8573531.72346  23152628.863    23152628.2094   23152634.1264
        -0.000          -0.000
 -18775563.738 9 -14022404.35448  21185007.319    21185007.0654   21185013.0104
        -0.000          -0.000
  10201600.636 9   7948422.70847  22391833.733    22391832.9764   22391838.7784
        -0.000          -0.000
 -15746754.817 9 -12252962.09048  21324617.357    21324617.0454   21324621.9854
        -0.000          -0.000
 97  3 14 23  5 30.0000000  0  6  2  4  5 24  7  9                   0.000000058
   8650324.458 9   6740252.53146  23196918.755    23196917.9874   23196924.5964
        -0.000          -0.000
 -13343221.154 9 -10378009.95849  20477551.842    20477551.9164   20477556.5124
        -0.000          -0.000
 -11405770.070 9  -8637935.07146  23136900.870    23136900.2084   23136906.1164
        -0.000          -0.000
 -18843703.126 9 -14075499.94848  21172040.816    21172040.5314   21172046.4584
        -0.000          -0.000
  10264537.700 9   7997464.57747  22403810.234    22403809.5054   22403815.2784
        -0.000          -0.000
 -15763510.671 9 -12266018.59948  21321428.797    21321428.4824   21321433.4684
        -0.000          -0.000
 97  3 14 23  6  0.0000000  0  6  2  4  5 24  7  9                   0.000000058
   8720935.247 9   6795273.88946  23210355.595    23210354.7764   23210361.4724
        -0.000          -0.000
 -13338697.850 9 -10374485.28849  20478412.604    20478412.6504   20478417.2294
        -0.000          -0.000
 -11488371.751 9  -8702299.97646  23121182.224    23121181.6094   23121187.5414
        -0.000          -0.000
 -18911391.495 9 -14128244.09948  21159160.080    21159159.8094   21159165.7464
        -0.000          -0.000
  10327514.356 9   8046537.28747  22415794.306    22415793.6194   22415799.2334
        -0.000          -0.000
 -15779722.872 9 -12278651.48048  21318343.767    21318343.4584   21318348.4444
        -0.000          -0.000
 97  3 14 23  6 30.0000000  0  6  2  4  5 24  7  9                   0.000000053
   8791801.169 9   6850494.05646  23223840.870    23223840.1704   23223846.8384
        -0.000          -0.000
 -13333593.128 9 -10370507.56849  20479384.001    20479384.0574   20479388.6104
        -0.000          -0.000
 -11570939.061 9  -8766638.10646  23105470.176    23105469.6264   23105475.3184
        -0.000          -0.000
 -18978639.184 9 -14180644.86648  21146363.213    21146362.9684   21146368.9274
        -0.000          -0.000
  10390512.461 9   8095626.71847  22427782.440    22427781.7304   22427787.2824
        -0.000          -0.000
 -15795396.645 9 -12290864.80948  21315361.141    21315360.8334   21315365.7934
        -0.000          -0.000
 97  3 14 23  7  0.0000000  0  6  2  4  5 24  7  9                   0.000000052
   8862936.580 9   6905924.19646  23237377.489    23237376.7794   23237383.4734
        -0.000          -0.000
 -13327875.489 9 -10366052.25349  20480472.016    20480472.0944   20480476.6174
        -0.000          -0.000
 -11653436.797 9  -8830922.01746  23089771.361    23089770.7644   23089776.4604
        -0.000          -0.000
 -19045428.200 9 -14232688.22648  21133653.672    21133653.4064   21133659.3954
        -0.000          -0.000
  10453568.353 9   8144761.15447  22439781.670    22439780.8534   22439786.4084
        -0.000          -0.000
 -15810489.961 9 -12302625.83248  21312488.982    21312488.6614   21312493.6324
        -0.000          -0.000
 97  3 14 23  7 30.0000000  0  6  2  4  5 24  7  9                   0.000000045
   8934331.785 9   6961556.78146  23250963.470    23250962.7244   23250969.4794
        -0.000          -0.000
 -13321555.676 9 -10361127.70649  20481674.639    20481674.7124   20481679.2364
        -0.000          -0.000
 -11735882.386 9  -8895165.29546  23074082.447    23074081.8364   23074087.4634
        -0.000          -0.000
 -19111752.319 9 -14284369.32148  21121032.564    21121032.2944   21121038.3074
        -0.000          -0.000
  10516673.160 9   8193933.72447  22451790.118    22451789.3004   22451794.7874
        -0.000          -0.000
 -15824997.753 9 -12313930.60448  21309728.235    21309727.9224   21309732.8844
        -0.000          -0.000
 97  3 14 23  8  0.0000000  0  6  2  4  5 24  7  9                   0.000000029
   9005994.365 9   7017397.71346  23264600.356    23264599.6434   23264606.4414
        -0.000          -0.000
 -13314638.094 9 -10355737.36849  20482991.025    20482991.0904   20482995.6174
        -0.000          -0.000
 -11818294.647 9  -8959382.60346  23058399.758    23058399.2024   23058404.9354
        -0.000          -0.000
 -19177604.394 9 -14335682.59448  21108501.274    21108500.9894   21108507.0204
        -0.000          -0.000
  10579824.147 9   8243142.27447  22463807.219    22463806.4704   22463811.9574
        -0.000          -0.000
 -15838935.406 9 -12324791.11148  21307075.960    21307075.6584   21307080.6034
        -0.000          -0.000
 97  3 14 23  8 30.0000000  0  6  2  4  5 24  7  9                   0.000000010
   9077937.406 9   7073457.17646  23278290.561    23278289.8954   23278296.8224
        -0.000          -0.000
 -13307117.213 9 -10349876.93149  20484422.227    20484422.2904   20484426.7854
        -0.000          -0.000
 -11900670.693 9  -9023571.69246  23042724.191    23042723.5954   23042729.2864
        -0.000          -0.000
 -19242976.155 9 -14386621.60048  21096061.368    21096061.1314   21096067.1694
        -0.000          -0.000
  10643051.851 9   8292410.60247  22475839.040    22475838.3114   22475843.7904
        -0.000          -0.000
 -15852279.780 9 -12335189.32948  21304536.645    21304536.3364   21304541.2484
        -0.000          -0.000
 97  3 14 23  9  0.0000000  0  6  2  4  5 24  7  9                  -0.000000023
   9150136.044 9   7129715.80446  23292029.549    23292028.8944   23292035.8384
        -0.000          -0.000
 -13299017.649 9 -10343565.56849  20485963.499    20485963.5734   20485968.0454
        -0.000          -0.000
 -11983026.480 9  -9087745.01146  23027052.557    23027051.9134   23027057.4704
        -0.000          -0.000
 -19307890.707 9 -14437204.33348  21083708.566    21083708.3024   21083714.3534
        -0.000          -0.000
  10706332.466 9   8341720.14947  22487881.089    22487880.3144   22487885.7094
        -0.000          -0.000
 -15865057.231 9 -12345145.78448  21302105.211    21302104.8804   21302109.8084
        -0.000          -0.000
 97  3 14 23  9 30.0000000  0  6  2  4  5 24  7  9                  -0.000000059
   9222615.614 9   7186193.34246  23305822.038    23305821.4154   23305828.3624
        -0.000          -0.000
 -13290336.335 9 -10336800.88849  20487615.507    20487615.5894   20487620.0684
        -0.000          -0.000
 -12065365.344 9  -9151905.12447  23011384.052    23011383.4114   23011388.8604
        -0.000          -0.000
 -19372342.222 9 -14487426.26148  21071443.817    21071443.5534   21071449.5824
        -0.000          -0.000
  10769654.194 9   8391061.74747  22499930.866    22499930.0934   22499935.5554
        -0.000          -0.000
 -15877272.918 9 -12354664.49948  21299780.602    21299780.2694   21299785.1994
        -0.000          -0.000
 97  3 14 23 10  0.0000000  0  6  2  4  5 24  7  9                  -0.000000089
   9295380.003 9   7242892.82046  23319668.814    23319668.0304   23319675.0304
        -0.000          -0.000
 -13281072.991 9 -10329582.68349  20489378.272    20489378.3494   20489382.8284
        -0.000          -0.000
 -12147676.668 9  -9216043.79447  22995720.796    22995720.1344   22995725.4824
        -0.000          -0.000
 -19436341.999 9 -14537296.18448  21059265.052    21059264.7744   21059270.7954
        -0.000          -0.000
  10833007.289 9   8440427.77647  22511986.577    22511985.8264   22511991.2254
        -0.000          -0.000
 -15888923.529 9 -12363742.90248  21297563.551    21297563.2344   21297568.1334
        -0.000          -0.000
 97  3 14 23 10 30.0000000  0  6  2  4  5 24  7  9                  -0.000000105
   9368441.909 9   7299824.12846  23333572.249    23333571.3944   23333578.2584
        -0.000          -0.000
 -13271207.800 9 -10321895.51049  20491255.531    20491255.5994   20491260.0284
        -0.000          -0.000
 -12229932.635 9  -9280139.30947  22980067.894    22980067.2404   22980072.6754
        -0.000          -0.000
 -19499889.593 9 -14586813.75948  21047172.306    21047172.0364   21047178.0384
        -0.000          -0.000
  10896395.433 9   8489821.13247  22524048.925    22524048.1564   22524053.5174
        -0.000          -0.000
 -15899993.908 9 -12372369.18248  21295456.962    21295456.6324   21295461.5214
        -0.000          -0.000
 97  3 14 23 11  0.0000000  0  6  2  4  5 24  7  9                  -0.000000109
   9441792.162 9   7356980.12546  23347530.307    23347529.5114   23347536.4644
        -0.000          -0.000
 -13260767.340 9 -10313760.07549  20493242.308    20493242.3634   20493246.7254
        -0.000          -0.000
 -12312150.708 9  -9344205.30747  22964422.228    22964421.5824   22964427.0284
        -0.000          -0.000
 -19563011.865 9 -14635999.91748  21035160.488    21035160.2024   21035166.2054
        -0.000          -0.000
  10959771.183 9   8539204.81247  22536108.871    22536108.1674   22536113.4894
        -0.000          -0.000
 -15910523.622 9 -12380574.16248  21293453.284    21293452.9494   21293457.8464
        -0.000          -0.000
 97  3 14 23 11 30.0000000  0  6  2  4  5 24  7  9                  -0.000000094
   9515440.495 9   7414368.39046  23361545.060    23361544.3094   23361551.1844
        -0.000          -0.000
 -13249734.799 9 -10305163.27749  20495341.766    20495341.8004   20495346.1604
        -0.000          -0.000
 -12394315.768 9  -9408229.99247  22948786.809    22948786.0764   22948791.4994
        -0.000          -0.000
 -19625688.874 9 -14684839.11548  21023233.420    21023233.1684   21023239.1184
        -0.000          -0.000
  11023148.499 9   8588589.72847  22548169.232    22548168.5274   22548173.8514
        -0.000          -0.000
 -15920494.364 9 -12388343.57848  21291555.923    21291555.6034   21291560.4834
        -0.000          -0.000
 97  3 14 23 12  0.0000000  0  6  2  4  5 24  7  9                  -0.000000074
   9589362.710 9   7471970.07846  23375611.930    23375611.3214   23375618.1434
        -0.000          -0.000
 -13238116.115 9 -10296109.74549  20497552.679    20497552.7204   20497557.1334
        -0.000          -0.000
 -12476426.616 9  -9472212.43347  22933161.588    22933160.8934   22933166.3244
        -0.000          -0.000
 -19687921.407 9 -14733331.97748  21011390.943    21011390.7074   21011396.5884
        -0.000          -0.000
  11086532.736 9   8637980.02447  22560230.927    22560230.1484   22560235.4844
        -0.000          -0.000
 -15929919.230 9 -12395687.63448  21289762.478    21289762.1544   21289766.9894
        -0.000          -0.000
 97  3 14 23 12 30.0000000  0  6  2  4  5 24  7  9                  -0.000000043
   9663580.875 9   7529802.37946  23389735.161    23389734.6644   23389741.3784
        -0.000          -0.000
 -13225885.664 9 -10286579.51249  20499880.023    20499880.0684   20499884.5344
        -0.000          -0.000
 -12558467.194 9  -9536140.11447  22917549.751    22917549.0614   22917554.3964
        -0.000          -0.000
 -19749676.264 9 -14781452.62048  20999639.379    20999639.1424   20999645.0374
        -0.000          -0.000
  11149962.281 9   8687405.62547  22572301.146    22572300.3824   22572305.7674
        -0.000          -0.000
 -15938788.420 9 -12402598.70248  21288074.701    21288074.3634   21288079.1364
        -0.000          -0.000
 97  3 14 23 13  0.0000000  0  6  2  4  5 24  7  9                  -0.000000031
   9738044.948 9   7587826.28746  23403905.253    23403904.7944   23403911.4034
        -0.000          -0.000
 -13213077.109 9 -10276598.80749  20502317.330    20502317.4014   20502321.9184
        -0.000          -0.000
 -12640472.566 9  -9600040.36147  22901944.674    22901943.9844   22901949.2154
        -0.000          -0.000
 -19810959.876 9 -14829206.06248  20987977.498    20987977.2264   20987983.1594
        -0.000          -0.000
  11213420.998 9   8736853.96547  22584376.955    22584376.2214   22584381.5694
        -0.000          -0.000
 -15947121.800 9 -12409092.25048  21286488.869    21286488.5514   21286493.3394
        -0.000          -0.000
 97  3 14 23 13 30.0000000  0  6  2  4  5 24  7  9                  -0.000000036
   9812755.282 9   7646042.07746  23418122.232    23418121.6514   23418128.3424
        -0.000          -0.000
 -13199665.272 9 -10266148.01249  20504869.537    20504869.5944   20504874.0964
        -0.000          -0.000
 -12722406.622 9  -9663885.04847  22886353.103    22886352.5084   22886357.5734
        -0.000          -0.000
 -19871741.274 9 -14876568.16148  20976411.175    20976410.9234   20976416.8674
        -0.000          -0.000
  11276953.369 9   8786359.68647  22596466.760    22596466.0324   22596471.4294
        -0.000          -0.000
 -15954890.821 9 -12415146.04548  21285010.489    21285010.1844   21285014.9484
        -0.000          -0.000
 97  3 14 23 14  0.0000000  0  6  2  4  5 24  7  9                  -0.000000049
   9887725.329 9   7704460.25346  23432388.601    23432388.0464   23432394.7354
        -0.000          -0.000
 -13185650.777 9 -10255227.61349  20507536.407    20507536.4384   20507540.9524
        -0.000          -0.000
 -12804265.729 9  -9727671.33247  22870775.840    22870775.1624   22870780.1574
        -0.000          -0.000
 -19932024.718 9 -14923542.25148  20964939.630    20964939.3354   20964945.2614
        -0.000          -0.000
  11340558.650 9   8835922.22547  22608570.492    22608569.7434   22608575.1704
        -0.000          -0.000
 -15962097.928 9 -12420761.97948  21283639.039    21283638.7044   21283643.5274
        -0.000          -0.000
 97  3 14 23 14 30.0000000  0  6  2  4  5 24  7  9                  -0.000000057
   9962963.964 9   7763087.69446  23446706.214    23446705.6334   23446712.1664
        -0.000          -0.000
 -13171049.864 9 -10243850.26349  20510314.802    20510314.8654   20510319.4344
        -0.000          -0.000
 -12886055.674 9  -9791403.70147  22855211.703    22855211.0274   22855216.1304
        -0.000          -0.000
 -19991806.914 9 -14970125.75548  20953563.435    20953563.1404   20953569.0504
        -0.000          -0.000
  11404228.615 9   8885535.17247  22620686.447    22620685.6954   22620691.3144
        -0.000          -0.000
 -15968738.736 9 -12425936.64448  21282375.308    21282374.9894   21282379.8194
        -0.000          -0.000
 97  3 14 23 15  0.0000000  0  6  2  4  5 24  7  9                  -0.000000063
  10038451.948 9   7821909.45646  23461071.355    23461070.6694   23461077.1244
        -0.000          -0.000
 -13155905.602 9 -10232049.53049  20513196.678    20513196.7294   20513201.2894
        -0.000          -0.000
 -12967796.330 9  -9855097.69047  22839656.970    22839656.3454   22839661.4094
        -0.000          -0.000
 -20051123.733 9 -15016346.63048  20942275.796    20942275.5144   20942281.3954
        -0.000          -0.000
  11467916.715 9   8935162.24247  22632805.819    22632805.1354   22632810.9004
        -0.000          -0.000
 -15974845.605 9 -12430695.25448  21281213.201    21281212.9034   21281217.7254
        -0.000          -0.000
 97  3 14 23 15 30.0000000  0  6  2  4  5 24  7  9                  -0.000000055
  10114207.511 9   7880939.72146  23475487.268    23475486.5594   23475492.9614
        -0.000          -0.000
 -13140227.001 9 -10219832.42749  20516180.218    20516180.2544   20516184.8104
        -0.000          -0.000
 -13049493.990 9  -9918758.17847  22824110.400    22824109.7784   22824114.7784
        -0.000          -0.000
 -20110000.163 9 -15062224.34248  20931071.975    20931071.7214   20931077.5964
        -0.000          -0.000
  11531595.859 9   8984782.33847  22644923.574    22644922.8964   22644928.7254
        -0.000          -0.000
 -15980429.438 9 -12435046.29348  21280150.697    21280150.3594   21280155.1814
        -0.000          -0.000
 97  3 14 23 16  0.0000000  0  6  2  4  5 24  7  9                  -0.000000041
  10190240.222 9   7940185.94646  23489955.837    23489955.1124   23489961.6764
        -0.000          -0.000
 -13124014.087 9 -10207198.97849  20519265.438    20519265.4484   20519269.9944
        -0.000          -0.000
 -13131172.478 9  -9982403.72047  22808567.441    22808566.8784   22808571.9504
        -0.000          -0.000
 -20168437.735 9 -15107760.09248  20919951.627    20919951.3494   20919957.2444
        -0.000          -0.000
  11595259.550 9   9034390.38747  22657038.474    22657037.7794   22657043.6234
        -0.000          -0.000
 -15985484.389 9 -12438985.22248  21279188.750    21279188.4144   21279193.2364
        -0.000          -0.000
 97  3 14 23 16 30.0000000  0  6  2  4  5 24  7  9                  -0.000000028
  10266536.553 9   7999637.59346  23504474.382    23504473.7814   23504480.5264
        -0.000          -0.000
 -13107268.468 9 -10194150.42849  20522452.006    20522452.0324   20522456.5694
        -0.000          -0.000
 -13212833.749 9 -10046035.84447  22793027.727    22793027.1764   22793032.3364
        -0.000          -0.000
 -20226430.153 9 -15152948.97148  20908915.999    20908915.7594   20908921.6304
        -0.000          -0.000
  11658916.628 9   9083993.29447  22669151.999    22669151.3144   22669157.2104
        -0.000          -0.000
 -15990006.629 9 -12442509.05148  21278328.188    21278327.8804   21278332.7314
        -0.000          -0.000
 97  3 14 23 17  0.0000000  0  6  2  4  5 24  7  9                  -0.000000026
  10343087.493 9   8059287.63746  23519041.356    23519040.7574   23519047.7934
        -0.000          -0.000
 -13089963.200 9 -10180665.78549  20525745.103    20525745.1224   20525749.6494
        -0.000          -0.000
 -13294456.503 9 -10109637.95547  22777495.368    22777494.8294   22777500.0424
        -0.000          -0.000
 -20283968.780 9 -15197784.24648  20897966.756    20897966.5194   20897972.3924
        -0.000          -0.000
  11722570.902 9   9133594.00747  22681265.053    22681264.2974   22681270.2394
        -0.000          -0.000
 -15993968.449 9 -12445596.19148  21277574.267    21277573.9524   21277578.8444
        -0.000          -0.000
 97  3 14 23 17 30.0000000  0  6  2  4  5 24  7  9                  -0.000000036
  10419899.200 9   8119140.85046  23533658.105    23533657.5174   23533664.7954
        -0.000          -0.000
 -13072060.116 9 -10166715.31749  20529151.924    20529151.9644   20529156.4964
        -0.000          -0.000
 -13376013.750 9 -10173189.01547  22761975.476    22761974.9234   22761980.2364
        -0.000          -0.000
 -20341026.604 9 -15242244.86548  20887109.025    20887108.7764   20887114.6324
        -0.000          -0.000
  11786262.122 9   9183223.50547  22693385.074    22693384.3174   22693390.2944
        -0.000          -0.000
 -15997329.117 9 -12448214.89648  21276934.761    21276934.4354   21276939.3384
        -0.000          -0.000
 97  3 14 23 18  0.0000000  0  6  2  4  5 24  7  9                  -0.000000049
  10496967.011 9   8179193.64546  23548323.710    23548323.1154   23548330.4444
        -0.000          -0.000
 -13053558.303 9 -10152298.30749  20532672.657    20532672.6874   20532677.2224
        -0.000          -0.000
 -13457481.129 9 -10236670.05547  22746472.725    22746472.1754   22746477.4254
        -0.000          -0.000
 -20397583.817 9 -15286315.39748  20876346.512    20876346.2564   20876352.0994
        -0.000          -0.000
  11850014.505 9   9232900.67347  22705516.637    22705515.9084   22705521.9744
        -0.000          -0.000
 -16000081.358 9 -12450359.49948  21276410.967    21276410.6774   21276415.5754
        -0.000          -0.000
 97  3 14 23 18 30.0000000  0  6  2  4  5 24  7  9                  -0.000000064
  10574279.177 9   8239436.83446  23563035.839    23563035.1904   23563042.5274
        -0.000          -0.000
 -13034464.636 9 -10137420.11449  20536306.064    20536306.1014   20536310.5904
        -0.000          -0.000
 -13538840.302 9 -10300066.79047  22730990.605    22730989.9934   22730995.2124
        -0.000          -0.000
 -20453639.795 9 -15329995.35848  20865679.362    20865679.1214   20865684.9454
        -0.000          -0.000
  11913804.648 9   9282607.25047  22717655.547    22717654.7754   22717660.7994
        -0.000          -0.000
 -16002241.406 9 -12452042.65748  21275999.946    21275999.6524   21276004.5484
        -0.000          -0.000
 97  3 14 23 19  0.0000000  0  6  2  4  5 24  7  9                  -0.000000075
  10651857.333 9   8299887.29946  23577798.577    23577797.8914   23577805.2364
        -0.000          -0.000
 -13014756.697 9 -10122063.26349  20540056.340    20540056.3654   20540060.8334
        -0.000          -0.000
 -13620083.173 9 -10363372.88947  22715530.505    22715529.9164   22715535.1764
        -0.000          -0.000
 -20509190.453 9 -15373281.55548  20855108.426    20855108.1794   20855114.0074
        -0.000          -0.000
  11977640.236 9   9332349.25947  22729803.076    22729802.2754   22729808.2094
        -0.000          -0.000
 -16003803.873 9 -12453260.16248  21275702.647    21275702.3484   21275707.2334
        -0.000          -0.000
 97  3 14 23 19 30.0000000  0  7  2  4  5 24  7  9 16               -0.000000090
  10729755.968 9   8360587.48046  23592622.279    23592621.6184   23592628.8354
        -0.000          -0.000
 -12994403.151 9 -10106203.34849  20543929.460    20543929.5044   20543933.9644
        -0.000          -0.000
 -13701191.982 9 -10426574.53247  22700095.967    22700095.3814   22700100.6414
        -0.000          -0.000
 -20564203.902 9 -15416149.15548  20844639.726    20844639.4764   20844645.2844
        -0.000          -0.000
  12041576.655 9   9382169.84247  22741969.728    22741969.0624   22741974.8534
        -0.000          -0.000
 -16004750.288 9 -12453997.63348  21275522.573    21275522.2724   21275527.1374
        -0.000          -0.000
  -4115116.06818  -3198923.22255  24671205.935    24671205.0505   24671212.3225
        -0.000          -0.000
 97  3 14 23 20  0.0000000  0  7  2  4  5 24  7  9 16               -0.000000090
  10807914.591 9   8421490.25846  23607495.431    23607494.7514   23607501.8954
        -0.000          -0.000
 -12973468.220 9 -10089890.40649  20547913.268    20547913.2964   20547917.7784
        -0.000          -0.000
 -13782242.300 9 -10489730.59047  22684672.597    22684672.0084   22684677.2014
        -0.000          -0.000
 -20618738.602 9 -15458643.70048  20834262.108    20834261.8614   20834267.6884
        -0.000          -0.000
  12105536.589 9   9432008.72346  22754140.976    22754140.2664   22754145.9504
        -0.000          -0.000
 -16005149.192 9 -12454308.46648  21275446.645    21275446.3554   21275451.2654
        -0.000          -0.000
  -4120697.732 9  -3203272.52345  24670143.888    24670142.8854   24670150.1734
        -0.000          -0.000
 97  3 14 23 20 30.0000000  0  7  2  4  5 24  7  9 16               -0.000000112
  10886348.891 9   8482607.85246  23622420.969    23622420.2294   23622427.5034
        -0.000          -0.000
 -12951925.910 9 -10073104.17649  20552012.584    20552012.6184   20552017.1554
        -0.000          -0.000
 -13863244.766 9 -10552849.35647  22669258.309    22669257.7004   22669262.9454
        -0.000          -0.000
 -20672783.126 9 -15500756.28948  20823977.794    20823977.5604   20823983.3574
        -0.000          -0.000
  12169528.971 9   9481872.91246  22766318.340    22766317.6464   22766323.2364
        -0.000          -0.000
 -16004983.303 9 -12454179.20648  21275478.187    21275477.8934   21275482.8084
        -0.000          -0.000
  -4125795.510 8  -3207244.75645  24669173.759    24669172.8374   24669179.9544
        -0.000          -0.000
 97  3 14 23 21  0.0000000  0  7  2  4  5 24  7  9 16               -0.000000121
  10965104.959 9   8543976.16246  23637407.675    23637407.0344   23637414.4474
        -0.000          -0.000
 -12929744.250 9 -10055819.75249  20556233.596    20556233.6564   20556238.1814
        -0.000          -0.000
 -13944161.958 9 -10615901.68547  22653860.221    22653859.6794   22653864.9084
        -0.000          -0.000
 -20726298.060 9 -15542456.21248  20813794.178    20813793.9304   20813799.7554
        -0.000          -0.000
  12233604.531 9   9531801.90446  22778511.536    22778510.8454   22778516.4364
        -0.000          -0.000
 -16004197.306 9 -12453566.74448  21275627.711    21275627.4104   21275632.3484
        -0.000          -0.000
  -4130366.739 8  -3210806.72145  24668303.844    24668303.0394   24668310.1474
        -0.000          -0.000
 97  3 14 23 21 30.0000000  0  7  2  4  5 24  7  9 16               -0.000000112
  11044154.915 9   8605573.46346  23652450.523    23652449.7904   23652457.1574
        -0.000          -0.000
 -12906964.292 9 -10038069.12049  20560568.483    20560568.5154   20560573.0474
        -0.000          -0.000
 -14024992.527 9 -10678886.51547  22638478.679    22638478.0884   22638483.3484
        -0.000          -0.000
 -20779288.880 9 -15583747.73748  20803710.302    20803710.0714   20803715.9204
        -0.000          -0.000
  12297733.000 9   9581772.11846  22790714.721    22790714.0074   22790719.6934
        -0.000          -0.000
 -16002807.837 9 -12452484.03948  21275892.070    21275891.7774   21275896.7224
        -0.000          -0.000
  -4134425.172 9  -3213969.09345  24667531.590    24667530.7734   24667537.8454
        -0.000          -0.000
 97  3 14 23 22  0.0000000  0  7  2  4  5 24  7  9 16               -0.000000088
  11123471.533 9   8667378.56646  23667543.901    23667543.1514   23667550.6084
        -0.000          -0.000
 -12883624.023 9 -10019881.88049  20565010.004    20565010.0404   20565014.5484
        -0.000          -0.000
 -14105738.536 9 -10741805.45047  22623113.157    22623112.6154   22623117.8484
        -0.000          -0.000
 -20831772.631 9 -15624644.14348  20793722.982    20793722.7454   20793728.5644
        -0.000          -0.000
  12361864.763 9   9631744.90946  22802918.640    22802917.8884   22802923.5694
        -0.000          -0.000
 -16000849.690 9 -12450958.21548  21276264.678    21276264.3894   21276269.2994
        -0.000          -0.000
  -4137998.206 8  -3216753.27845  24666851.587    24666850.8354   24666858.0274
        -0.000          -0.000
 97  3 14 23 22 30.0000000  0  7  2  4  5 24  7  9 16               -0.000000052
  11203031.030 9   8729372.91246  23682683.550    23682682.8904   23682690.2794
        -0.000          -0.000
 -12859754.647 9 -10001282.35449  20569552.218    20569552.2454   20569556.7184
        -0.000          -0.000
 -14186401.181 9 -10804659.43147  22607763.529    22607762.9414   22607768.1804
        -0.000          -0.000
 -20883761.777 9 -15665155.14448  20783829.772    20783829.5144   20783835.3324
        -0.000          -0.000
  12425984.078 9   9681707.99646  22815120.261    22815119.5024   22815125.0914
        -0.000          -0.000
 -15998350.890 9 -12449011.10348  21276740.177    21276739.8804   21276744.7944
        -0.000          -0.000
  -4141101.085 8  -3219171.06745  24666261.157    24666260.5034   24666267.5534
        -0.000          -0.000
 97  3 14 23 23  0.0000000  0  7  2  4  5 24  7  9 16               -0.000000011
  11282798.284 9   8791529.16946  23697862.902    23697862.2014   23697869.5274
        -0.000          -0.000
 -12835393.850 9  -9982299.90249  20574187.942    20574187.9564   20574192.4574
        -0.000          -0.000
 -14266977.502 9 -10867446.14447  22592430.422    22592429.8074   22592435.0064
        -0.000          -0.000
 -20935275.853 9 -15705295.96248  20774026.930    20774026.7014   20774032.5354
        -0.000          -0.000
  12490065.966 9   9731641.92546  22827314.745    22827313.9294   22827319.5424
        -0.000          -0.000
 -15995342.417 9 -12446666.84648  21277312.626    21277312.3434   21277317.2974
        -0.000          -0.000
  -4143764.856 8  -3221246.73445  24665754.395    24665753.7744   24665760.8034
        -0.000          -0.000
 97  3 14 23 23 30.0000000  0  7  2  4  5 24  7  9 16                0.000000023
  11362777.536 9   8853850.61146  23713082.615    23713081.9244   23713089.0894
        -0.000          -0.000
 -12810533.089 9  -9962927.87449  20578918.765    20578918.7914   20578923.3224
        -0.000          -0.000
 -14347463.219 9 -10930162.27447  22577114.520    22577113.9094   22577119.1304
        -0.000          -0.000
 -20986298.698 9 -15745054.00248  20764317.579    20764317.3524   20764323.2114
        -0.000          -0.000
  12554123.946 9   9781557.21746  22839504.489    22839503.7314   22839509.3724
        -0.000          -0.000
 -15991830.857 9 -12443930.57748  21277980.894    21277980.6114   21277985.6264
        -0.000          -0.000
  -4146001.428 9  -3222989.46245  24665329.012    24665328.2194   24665335.2284
        -0.000          -0.000
 97  3 14 23 24  0.0000000  0  7  2  4  5 24  7  9 16                0.000000035
  11442966.785 9   8916335.70246  23728342.266    23728341.6004   23728348.7134
        -0.000          -0.000
 -12785165.922 9  -9943161.23549  20583745.918    20583745.9694   20583750.5024
        -0.000          -0.000
 -14427874.379 9 -10992820.29847  22561812.732    22561812.0834   22561817.3274
        -0.000          -0.000
 -21036840.347 9 -15784437.07848  20754699.787    20754699.5404   20754705.4174
        -0.000          -0.000
  12618161.184 9   9831456.35446  22851690.300    22851689.5454   22851695.3124
        -0.000          -0.000
 -15987814.481 9 -12440800.93748  21278745.187    21278744.9014   21278749.9044
        -0.000          -0.000
  -4147822.344 8  -3224408.34245  24664982.482    24664981.6504   24664988.7044
        -0.000          -0.000
 97  3 14 23 24 30.0000000  0  7  2  4  5 24  7  9 16                0.000000041
  11523402.738 9   8979013.01646  23743648.851    23743648.2744   23743655.0844
        -0.000          -0.000
 -12759246.042 9  -9922963.91449  20588678.314    20588678.3554   20588682.8324
        -0.000          -0.000
 -14508186.066 9 -11055400.79447  22546529.862    22546529.2424   22546534.5344
        -0.000          -0.000
 -21086859.690 9 -15823413.16248  20745181.453    20745181.2004   20745187.0494
        -0.000          -0.000
  12682228.571 9   9881378.97946  22863881.938    22863881.1754   22863886.9314
        -0.000          -0.000
 -15983236.671 9 -12437233.81848  21279616.357    21279616.0784   21279621.0944
        -0.000          -0.000
  -4149185.323 9  -3225470.37645  24664723.030    24664722.1784   24664729.2554
        -0.000          -0.000
 97  3 14 23 25  0.0000000  0  7  2  4  5 24  7  9 16                0.000000041
  11604095.696 9   9041890.60946  23759004.334    23759003.7244   23759010.4614
        -0.000          -0.000
 -12732786.932 9  -9902346.42049  20593713.308    20593713.3494   20593717.7724
        -0.000          -0.000
 -14588424.710 9 -11117924.39747  22531260.876    22531260.2334   22531265.5324
        -0.000          -0.000
 -21136380.068 9 -15862000.45048  20735758.022    20735757.7844   20735763.5914
        -0.000          -0.000
  12746310.404 9   9931312.84346  22876076.499    22876075.5924   22876081.3014
        -0.000          -0.000
 -15978103.683 9 -12433234.09448  21280593.173    21280592.8924   21280597.9314
        -0.000          -0.000
  -4150098.885 9  -3226182.22045  24664549.205    24664548.4584   24664555.3354
        -0.000          -0.000
 97  3 14 23 25 30.0000000  0  7  2  4  5 24  7  9 16                0.000000046
  11685076.190 9   9104992.24146  23774414.458    23774413.8154   23774420.5354
        -0.000          -0.000
 -12705773.719 9  -9881297.15449  20598853.716    20598853.7704   20598858.2084
        -0.000          -0.000
 -14668595.943 9 -11180395.47147  22516004.717    22516004.1254   22516009.4124
        -0.000          -0.000
 -21185399.952 9 -15900197.73748  20726429.816    20726429.5814   20726435.3784
        -0.000          -0.000
  12810414.876 9   9981264.36246  22888275.316    22888274.4174   22888280.0004
        -0.000          -0.000
 -15972397.750 9 -12428787.91848  21281678.989    21281678.7104   21281683.7534
        -0.000          -0.000
  -4150544.544 9  -3226529.46945  24664464.554    24664463.6964   24664470.6294
        -0.000          -0.000
 97  3 14 23 26  0.0000000  0  7  2  4  5 24  7  9 16                0.000000057
  11766328.273 9   9168305.49445  23789876.226    23789875.5924   23789882.2804
        -0.000          -0.000
 -12678220.650 9  -9859827.22349  20604096.913    20604096.9614   20604101.4054
        -0.000          -0.000
 -14748712.936 9 -11242824.27247  22500758.876    22500758.2504   22500763.6194
        -0.000          -0.000
 -21233944.880 9 -15938024.92848  20717192.019    20717191.7774   20717197.5544
        -0.000          -0.000
  12874522.476 9  10031218.30346  22900474.588    22900473.6924   22900479.2704
        -0.000          -0.000
 -15966125.656 9 -12423900.58648  21282872.567    21282872.2644   21282877.2864
        -0.000          -0.000
  -4150503.479 9  -3226497.47245  24664472.721    24664471.8414   24664478.5714
        -0.000          -0.000
 97  3 14 23 26 30.0000000  0  7  2  4  5 24  7  9 16                0.000000067
  11847834.647 9   9231816.88245  23805386.491    23805385.8754   23805392.3094
        -0.000          -0.000
 -12650149.124 9  -9837953.29749  20609438.707    20609438.7624   20609443.2254
        -0.000          -0.000
 -14828787.500 9 -11305220.04247  22485521.066    22485520.4984   22485525.7734
        -0.000          -0.000
 -21282024.381 9 -15975489.44848  20708042.766    20708042.5114   20708048.3074
        -0.000          -0.000
  12938615.968 9  10081161.25646  22912671.123    22912670.2894   22912675.8424
        -0.000          -0.000
 -15959304.866 9 -12418585.68848  21284170.491    21284170.2164   21284175.2314
        -0.000          -0.000
  -4149986.871 9  -3226094.91445  24664570.914    24664570.1444   24664576.7844
        -0.000          -0.000
 97  3 14 23 27  0.0000000  0  7  2  4  5 24  7  9 16                0.000000084
  11929596.438 9   9295527.30345  23820945.532    23820944.6634   23820951.1154
        -0.000          -0.000
 -12621542.568 9  -9815662.46649  20614882.339    20614882.3844   20614886.8694
        -0.000          -0.000
 -14908789.649 9 -11367559.34147  22470297.140    22470296.5674   22470301.9274
        -0.000          -0.000
 -21329629.747 9 -16012584.51848  20698983.712    20698983.4624   20698989.2874
        -0.000          -0.000
  13002716.516 9  10131109.73046  22924868.943    22924868.1844   22924873.7684
        -0.000          -0.000
 -15951920.944 9 -12412831.98948  21285575.624    21285575.3434   21285580.3294
        -0.000          -0.000
  -4148981.445 9  -3225311.45645  24664762.175    24664761.4714   24664768.0664
        -0.000          -0.000
 97  3 14 23 27 30.0000000  0  7  2  4  5 24  7  9 16                0.000000088
  12011583.129 9   9359412.98245  23836547.094    23836546.2124   23836552.7774
        -0.000          -0.000
 -12592389.782 9  -9792945.99549  20620429.931    20620429.9834   20620434.4644
        -0.000          -0.000
 -14988707.956 9 -11429833.35647  22455089.263    22455088.6864   22455093.8964
        -0.000          -0.000
 -21376760.698 9 -16049309.90548  20690014.928    20690014.6814   20690020.4994
        -0.000          -0.000
  13066840.376 9  10181076.35246  22937071.198    22937070.4864   22937076.1334
        -0.000          -0.000
 -15943974.182 9 -12406639.71448  21287087.863    21287087.5564   21287092.5494
        -0.000          -0.000
  -4147484.828 9  -3224145.24345  24665047.095    24665046.2644   24665052.8224
        -0.000          -0.000
 97  3 14 23 28  0.0000000  0  7  2  4  5 24  7  9 16                0.000000086
  12093802.266 9   9423479.78445  23852192.765    23852191.8014   23852198.6654
        -0.000          -0.000
 -12562662.697 9  -9769782.02349  20626086.762    20626086.8374   20626091.3104
        -0.000          -0.000
 -15068509.051 9 -11492015.99547  22439903.633    22439903.0084   22439908.3714
        -0.000          -0.000
 -21423378.212 9 -16085635.21648  20681143.865    20681143.6424   20681149.4664
        -0.000          -0.000
  13131032.228 9  10231095.96246  22949286.510    22949285.7404   22949291.4564
        -0.000          -0.000
 -15935436.736 9 -12399987.16248  21288712.461    21288712.1614   21288717.1504
        -0.000          -0.000
  -4145470.053 8  -3222575.27845  24665430.501    24665429.6084   24665436.3414
        -0.000          -0.000
 97  3 14 23 28 30.0000000  0  7  2  4  5 24  7  9 16                0.000000063
  12176247.572 9   9487722.82545  23867881.542    23867880.6094   23867887.6014
        -0.000          -0.000
 -12532367.024 9  -9746174.99949  20631851.827    20631851.9064   20631856.3654
        -0.000          -0.000
 -15148204.007 9 -11554115.96747  22424738.245    22424737.6374   22424742.8464
        -0.000          -0.000
 -21469478.852 9 -16121557.77048  20672371.179    20672370.9454   20672376.7694
        -0.000          -0.000
  13195286.709 9  10281164.37146  22961513.668    22961512.9354   22961518.6294
        -0.000          -0.000
 -15926325.089 9 -12392887.18548  21290446.400    21290446.0914   21290451.0744
        -0.000          -0.000
  -4142971.768 8  -3220628.53045  24665905.912    24665905.1194   24665911.5474
        -0.000          -0.000
 97  3 14 23 29  0.0000000  0  7  2  4  5 24  7  9 16                0.000000023
  12258934.952 8   9552154.50745  23883616.281    23883615.4074   23883622.4314
        -0.000          -0.000
 -12501494.880 9  -9722118.77149  20637726.659    20637726.7194   20637731.1544
        -0.000          -0.000
 -15227783.813 9 -11616126.17747  22409594.681    22409594.0714   22409599.3574
        -0.000          -0.000
 -21515054.503 9 -16157071.23948  20663698.413    20663698.1694   20663703.9904
        -0.000          -0.000
  13259620.812 9  10331294.82746  22973756.003    22973755.3004   22973761.1124
        -0.000          -0.000
 -15916644.747 9 -12385344.06948  21292288.500    21292288.2154   21292293.1674
        -0.000          -0.000
  -4139977.485 8  -3218295.31445  24666475.594    24666474.7954   24666481.4054
        -0.000          -0.000
 97  3 14 23 29 30.0000000  0  7  2  4  5 24  7  9 16               -0.000000023
  12341882.003 9   9616788.50645  23899400.319    23899399.7404   23899406.8024
        -0.000          -0.000
 -12470058.092 9  -9697622.56049  20643708.917    20643708.9584   20643713.3994
        -0.000          -0.000
 -15307254.450 9 -11678051.33647  22394472.024    22394471.3904   22394476.6444
        -0.000          -0.000
 -21560091.056 9 -16192164.63648  20655128.189    20655127.9534   20655133.7654
        -0.000          -0.000
  13324019.974 9  10381475.96146  22986010.736    22986010.0464   22986015.9264
        -0.000          -0.000
 -15906412.352 9 -12377370.78348  21294235.700    21294235.3984   21294240.3284
        -0.000          -0.000
  -4136479.661 8  -3215569.71845  24667141.115    24667140.3644   24667146.7074
        -0.000          -0.000
 97  3 14 23 30  0.0000000  0  7  2  4  5 24  7  9 16               -0.000000066
  12425101.186 9   9681634.56745  23915236.297    23915235.9074   23915242.9704
        -0.000          -0.000
 -12438081.452 9  -9672705.68449  20649793.867    20649793.9054   20649798.3284
        -0.000          -0.000
 -15386624.476 9 -11739898.10447  22379368.431    22379367.8164   22379372.9444
        -0.000          -0.000
 -21604577.637 9 -16226829.47948  20646662.652    20646662.4234   20646668.2324
        -0.000          -0.000
  13388446.389 9  10431678.34146  22998270.677    22998269.9694   22998275.9154
        -0.000          -0.000
 -15895644.529 9 -12368980.27748  21296284.754    21296284.4594   21296289.3914
        -0.000          -0.000
  -4132488.303 8  -3212459.55545  24667900.519    24667899.7784   24667906.2354
        -0.000          -0.000
 97  3 14 23 30 30.0000000  0  7  2  4  5 24  7  9 16               -0.000000087
  12508612.679 9   9746708.42145  23931128.224    23931127.5954   23931134.7244
        -0.000          -0.000
 -12405563.048 9  -9647366.66249  20655981.961    20655981.9814   20655986.3994
        -0.000          -0.000
 -15465871.281 9 -11801648.83347  22364288.344    22364287.6964   22364292.8514
        -0.000          -0.000
 -21648515.658 9 -16261066.87548  20638301.538    20638301.2914   20638307.1144
        -0.000          -0.000
  13452875.990 9  10481883.19346  23010531.312    23010530.5914   23010536.5454
        -0.000          -0.000
 -15884343.931 9 -12360174.62648  21298435.196    21298434.8814   21298439.7844
        -0.000          -0.000
  -4127996.203 8  -3208959.19845  24668755.308    24668754.5774   24668761.0624
        -0.000          -0.000
 97  3 14 23 31  0.0000000  0  7  2  4  5 24  7  9 16               -0.000000086
  12592398.026 9   9811995.64945  23947072.200    23947071.5184   23947078.6364
        -0.000          -0.000
 -12372519.139 9  -9621618.15949  20662269.992    20662270.0184   20662274.4114
        -0.000          -0.000
 -15544986.308 9 -11863296.90247  22349233.290    22349232.6284   22349237.6864
        -0.000          -0.000
 -21691931.467 9 -16294897.35448  20630039.786    20630039.5414   20630045.3534
        -0.000          -0.000
  13517291.584 9  10532077.12946  23022789.367    23022788.5854   23022794.4584
        -0.000          -0.000
 -15872513.690 9 -12350956.26148  21300686.409    21300686.1124   21300690.9974
        -0.000          -0.000
  -4123006.647 8  -3205071.21045  24669704.689    24669703.8894   24669710.3194
        -0.000          -0.000
 97  3 14 23 31 30.0000000  0  7  2  4  5 24  7  9 16               -0.000000070
  12676432.294 9   9877476.83845  23963063.447    23963062.9464   23963070.0144
        -0.000          -0.000
 -12338973.504 9  -9595478.69849  20668653.440    20668653.4894   20668657.8814
        -0.000          -0.000
 -15623986.987 9 -11924855.83947  22334199.885    22334199.2064   22334204.4054
        -0.000          -0.000
 -21734847.753 9 -16328338.59249  20621873.109    20621872.8454   20621878.6244
        -0.000          -0.000
  13581661.489 9  10582235.46346  23035038.683    23035037.8244   23035043.6534
        -0.000          -0.000
 -15860150.225 9 -12341322.40048  21303039.117    21303038.7934   21303043.6924
        -0.000          -0.000
  -4117550.618 9  -3200819.74245  24670742.802    24670742.0804   24670748.5664
        -0.000          -0.000
 97  3 14 23 32  0.0000000  0  7  2  4  5 24  7  9 16               -0.000000045
  12760703.352 8   9943142.53845  23979099.735    23979099.1764   23979106.3774
        -0.000          -0.000
 -12304929.955 9  -9568951.24649  20675131.709    20675131.7444   20675136.1324
        -0.000          -0.000
 -15702875.541 9 -11986327.43447  22319187.829    22319187.2184   22319192.3324
        -0.000          -0.000
 -21777279.074 9 -16361401.93649  20613798.695    20613798.4244   20613804.1824
        -0.000          -0.000
  13645987.503 9  10632359.59046  23047279.543    23047278.7514   23047284.5054
        -0.000          -0.000
 -15847237.379 9 -12331260.45248  21305496.301    21305495.9924   21305500.9124
        -0.000          -0.000
  -4111642.888 8  -3196216.30245  24671867.177    24671866.4824   24671872.8844
        -0.000          -0.000
 97  3 14 23 32 30.0000000  0  7  2  4  5 24  7  9 16               -0.000000018
  12845197.924 9  10008982.40645  23995178.583    23995177.9144   23995185.1734
        -0.000          -0.000
 -12270389.152 9  -9542036.32949  20681704.582    20681704.6344   20681709.0214
        -0.000          -0.000
 -15781660.362 9 -12047718.18847  22304195.448    22304194.8874   22304200.0544
        -0.000          -0.000
 -21819247.488 9 -16394104.57749  20605812.340    20605812.0734   20605817.8244
        -0.000          -0.000
  13710283.930 9  10682460.67846  23059514.719    23059514.0114   23059519.8644
        -0.000          -0.000
 -15833771.336 9 -12320767.44348  21308058.807    21308058.5084   21308063.4374
        -0.000          -0.000
  -4105290.632 9  -3191266.49045  24673076.026    24673075.1164   24673081.8954
        -0.000          -0.000
 97  3 14 23 33  0.0000000  0  7  2  4  5 24  7  9 16               -0.000000005
  12929904.169 8  10074987.21845  24011297.650    24011296.9954   24011304.1734
        -0.000          -0.000
 -12235350.159 9  -9514733.21449  20688372.238    20688372.2984   20688376.6754
        -0.000          -0.000
 -15860359.841 9 -12109042.44547  22289219.442    22289218.8154   22289224.0464
        -0.000          -0.000
 -21860741.964 9 -16426437.91749  20597916.163    20597915.9104   20597921.6684
        -0.000          -0.000
  13774562.514 9  10732547.86046  23071746.602    23071745.8924   23071751.6804
        -0.000          -0.000
 -15819745.034 9 -12309837.87348  21310727.948    21310727.6404   21310732.5654
        -0.000          -0.000
  -4098501.602 8  -3185976.30345  24674367.923    24674367.1024   24674373.6414
        -0.000          -0.000
 97  3 14 23 33 30.0000000  0  7  2  4  5 24  7  9 16               -0.000000002
  13014840.545 8  10141171.35645  24027460.401    24027459.8054   24027466.9744
        -0.000          -0.000
 -12199793.785 9  -9487026.94349  20695138.382    20695138.4344   20695142.8114
        -0.000          -0.000
 -15938964.359 9 -12170292.70647  22274261.451    22274260.8504   22274266.0834
        -0.000          -0.000
 -21901722.710 9 -16458370.94049  20590117.712    20590117.4684   20590123.2264
        -0.000          -0.000
  13838841.980 9  10782635.72046  23083978.672    23083977.9254   23083983.7164
        -0.000          -0.000
 -15805146.924 9 -12298462.72848  21313505.864    21313505.5674   21313510.4904
        -0.000          -0.000
  -4091252.196 8  -3180327.41445  24675747.418    24675746.5374   24675752.9624
        -0.000          -0.000
 97  3 14 23 34  0.0000000  0  7  2  4  5 24  7  9 16               -0.000000017
  13100003.941 8  10207532.39545  24043666.320    24043665.8074   24043672.9814
        -0.000          -0.000
 -12163697.023 9  -9458899.59249  20702007.332    20702007.3894   20702011.7734
        -0.000          -0.000
 -16017456.795 9 -12231455.62547  22259324.846    22259324.2214   22259329.5184
        -0.000          -0.000
 -21942176.834 9 -16489893.61149  20582419.583    20582419.3284   20582425.0614
        -0.000          -0.000
  13903143.088 9  10832740.44446  23096214.806    23096214.0244   23096219.8454
        -0.000          -0.000
 -15789994.225 9 -12286655.43648  21316389.312    21316389.0114   21316393.9574
        -0.000          -0.000
  -4083519.468 9  -3174301.90245  24677218.742    24677217.9074   24677224.4694
        -0.000          -0.000
 97  3 14 23 34 30.0000000  0  6  2  4  5 24  7  9                  -0.000000081
  13185441.743 9  10274107.24345  24059924.675    24059924.1914   24059931.4494
        -0.000          -0.000
 -12126993.204 9  -9430299.21049  20708991.851    20708991.8934   20708996.2744
        -0.000          -0.000
 -16095776.212 9 -12292483.73647  22244421.192    22244420.5684   22244425.7624
        -0.000          -0.000
 -21982044.994 9 -16520959.68549  20574832.992    20574832.7404   20574838.4244
        -0.000          -0.000
  13967521.487 9  10882905.40646  23108465.510    23108464.7834   23108470.6544
        -0.000          -0.000
 -15774250.091 9 -12274387.28948  21319385.317    21319385.0374   21319389.9404
        -0.000          -0.000
 97  3 14 23 35  0.0000000  0  6  2  4  5 24  7  9                  -0.000000096
  13271124.803 9  10340873.20145  24076229.770    24076229.2134   24076236.3284
        -0.000          -0.000
 -12089709.841 9  -9401247.23549  20716086.691    20716086.7124   20716091.1184
        -0.000          -0.000
 -16173932.877 9 -12353385.00347  22229548.432    22229547.8344   22229553.0664
        -0.000          -0.000
 -22021345.185 9 -16551583.18949  20567354.397    20567354.1374   20567359.7884
        -0.000          -0.000
  14031943.816 9  10933104.59546  23120724.535    23120723.8974   23120729.7854
        -0.000          -0.000
 -15757945.552 9 -12261682.46048  21322488.008    21322487.7194   21322492.6104
        -0.000          -0.000
 97  3 14 23 35 30.0000000  0  6  2  4  5 24  7  9                  -0.000000101
  13357066.129 9  10407840.41045  24092584.139    24092583.3724   24092590.4964
        -0.000          -0.000
 -12051848.723 9  -9371745.06249  20723291.409    20723291.4444   20723295.8664
        -0.000          -0.000
 -16251905.348 9 -12414142.76247  22214710.836    22214710.2164   22214715.3654
        -0.000          -0.000
 -22060077.857 9 -16581764.46549  20559983.843    20559983.5804   20559989.2314
        -0.000          -0.000
  14096420.626 9  10983346.24246  23132994.189    23132993.4224   23132999.2784
        -0.000          -0.000
 -15741075.455 9 -12248536.93748  21325698.276    21325697.9764   21325702.9344
        -0.000          -0.000
 97  3 14 23 36  0.0000000  0  6  2  4  5 24  7  9                  -0.000000092
  13443260.094 9  10475004.46645  24108986.440    24108985.6664   24108992.7734
        -0.000          -0.000
 -12013440.627 9  -9341816.67049  20730600.228    20730600.2544   20730604.6664
        -0.000          -0.000
 -16329709.604 9 -12474769.43547  22199905.113    22199904.5264   22199909.7674
        -0.000          -0.000
 -22098281.247 9 -16611533.31649  20552713.958    20552713.7024   20552719.3824
        -0.000          -0.000
  14160935.796 9  11033617.77946  23145271.067    23145270.2724   23145276.0874
        -0.000          -0.000
 -15723651.669 9 -12234959.96648  21329013.901    21329013.6014   21329018.6004
        -0.000          -0.000
 97  3 14 23 36 30.0000000  0  6  2  4  5 24  7  9                  -0.000000067
  13529695.589 9  10542356.73745  24125434.655    24125433.9194   24125440.9004
        -0.000          -0.000
 -11974539.382 9  -9311504.00749  20738002.866    20738002.8994   20738007.2874
        -0.000          -0.000
 -16407390.249 9 -12535299.79247  22185122.948    22185122.3304   22185127.5984
        -0.000          -0.000
 -22135992.980 9 -16640919.05649  20545537.631    20545537.3904   20545543.0754
        -0.000          -0.000
  14225446.572 9  11083885.89646  23157547.137    23157546.2744   23157552.0254
        -0.000          -0.000
 -15705686.219 9 -12220960.91848  21332432.588    21332432.2944   21332437.3364
        -0.000          -0.000
 97  3 14 23 37  0.0000000  0  6  2  4  5 24  7  9                  -0.000000030
  13616355.655 9  10609884.00345  24141925.671    24141924.7934   24141931.8964
        -0.000          -0.000
 -11935190.552 9  -9280842.57549  20745490.654    20745490.6964   20745495.0744
        -0.000          -0.000
 -16484976.049 9 -12595756.24247  22170358.803    22170358.2014   22170363.5094
        -0.000          -0.000
 -22173238.613 9 -16669941.60049  20538449.988    20538449.7274   20538455.4204
        -0.000          -0.000
  14289939.719 9  11134140.27446  23169819.720    23169818.8484   23169824.6754
        -0.000          -0.000
 -15687198.333 9 -12206554.78148  21335950.728    21335950.4394   21335955.4904
        -0.000          -0.000
 97  3 14 23 37 30.0000000  0  6  2  4  5 24  7  9                   0.000000002
  13703227.232 9  10677576.06745  24158456.717    24158455.9294   24158463.0984
        -0.000          -0.000
 -11895400.570 9  -9249837.38849  20753062.452    20753062.5044   20753066.8744
        -0.000          -0.000
 -16562498.526 9 -12656163.35147  22155606.712    22155606.1134   22155611.4404
        -0.000          -0.000
 -22210027.287 9 -16698608.07349  20531449.285    20531449.0344   20531454.7224
        -0.000          -0.000
  14354422.660 9  11184386.69446  23182090.393    23182089.4634   23182095.3624
        -0.000          -0.000
 -15668199.885 9 -12191750.80048  21339566.031    21339565.7364   21339570.7774
        -0.000          -0.000
 97  3 14 23 38  0.0000000  0  6  2  4  5 24  7  9                   0.000000023
  13790319.837 9  10745440.36845  24175029.812    24175029.1054   24175036.3154
        -0.000          -0.000
 -11855143.830 9  -9218468.50149  20760723.088    20760723.1204   20760727.5084
        -0.000          -0.000
 -16639952.601 9 -12716517.16247  22140867.718    22140867.1074   22140872.3804
        -0.000          -0.000
 -22246340.183 9 -16726903.81449  20524539.147    20524538.8974   20524544.5864
        -0.000          -0.000
  14418906.518 9  11234633.83646  23194361.219    23194360.3894   23194366.2334
        -0.000          -0.000
 -15648686.362 9 -12176545.46748  21343279.337    21343279.0364   21343284.0604
        -0.000          -0.000
 97  3 14 23 38 30.0000000  0  6  2  4  5 24  7  9                   0.000000018
  13877630.773 8  10813474.80645  24191644.535    24191643.8834   24191651.1214
        -0.000          -0.000
 -11814392.333 9  -9186714.08949  20768477.857    20768477.8724   20768482.2414
        -0.000          -0.000
 -16717325.391 9 -12776807.63447  22126144.146    22126143.5304   22126148.8434
        -0.000          -0.000
 -22282152.005 9 -16754809.10949  20517724.348    20517724.0854   20517729.7504
        -0.000          -0.000
  14483408.783 9  11284895.31946  23206635.703    23206634.8814   23206640.6094
        -0.000          -0.000
 -15628660.553 9 -12160940.95248  21347090.108    21347089.8174   21347094.7794
        -0.000          -0.000
 97  3 14 23 39  0.0000000  0  6  2  4  5 24  7  9                  -0.000000008
  13965173.787 8  10881690.07845  24208303.406    24208302.7314   24208310.3024
        -0.000          -0.000
 -11773098.366 9  -9154536.96949  20776335.767    20776335.8024   20776340.1974
        -0.000          -0.000
 -16794568.387 9 -12836996.97247  22111445.316    22111444.7254   22111449.9584
        -0.000          -0.000
 -22317417.187 9 -16782288.44849  20511013.572    20511013.3114   20511018.9864
        -0.000          -0.000
  14547955.150 9  11335191.17146  23218918.497    23218917.6584   23218923.3924
        -0.000          -0.000
 -15608104.693 9 -12144923.40748  21351001.807    21351001.4994   21351006.4174
        -0.000          -0.000
 97  3 14 23 39 30.0000000  0  6  2  4  5 24  7  9                  -0.000000049
  14052964.695 8  10950098.52245  24225009.560    24225008.7954   24225016.5404
        -0.000          -0.000
 -11731232.834 9  -9121914.47849  20784302.466    20784302.5274   20784306.9694
        -0.000          -0.000
 -16871648.268 9 -12897059.19447  22096777.486    22096776.9194   22096782.1584
        -0.000          -0.000
 -22352113.999 9 -16809324.90349  20504410.953    20504410.7224   20504416.3904
        -0.000          -0.000
  14612535.904 9  11385513.80346  23231207.872    23231207.0504   23231212.8194
        -0.000          -0.000
 -15586996.691 9 -12128475.62448  21355018.521    21355018.2084   21355023.1284
        -0.000          -0.000
 97  3 14 23 40  0.0000000  0  6  2  4  5 24  7  9                  -0.000000071
  14141027.499 8  11018718.83045  24241767.385    24241766.6744   24241774.6404
        -0.000          -0.000
 -11688796.877 9  -9088847.50049  20792377.701    20792377.7964   20792382.2154
        -0.000          -0.000
 -16948517.560 9 -12956957.34047  22082149.757    22082149.1464   22082154.3534
        -0.000          -0.000
 -22386221.984 9 -16835902.53349  20497920.432    20497920.1954   20497925.8434
        -0.000          -0.000
  14677158.048 9  11435868.70946  23243505.027    23243504.1374   23243510.0524
        -0.000          -0.000
 -15565311.690 9 -12111578.23048  21359145.018    21359144.6924   21359149.6624
        -0.000          -0.000
 97  3 14 23 40 30.0000000  0  6  2  4  5 24  7  9                  -0.000000075
  14229328.889 8  11087525.05045  24258570.734    24258569.9014   24258577.8224
        -0.000          -0.000
 -11645844.503 9  -9055378.11949  20800551.268    20800551.3584   20800555.7934
        -0.000          -0.000
 -17025191.845 9 -13016703.51947  22067559.134    22067558.5274   22067563.7414
        -0.000          -0.000
 -22419779.009 9 -16862050.84749  20491534.741    20491534.4964   20491540.1144
        -0.000          -0.000
  14741787.918 9  11486229.62446  23255803.667    23255802.8524   23255808.7684
        -0.000          -0.000
 -15543076.181 9 -12094251.86248  21363376.198    21363375.9034   21363380.9014
        -0.000          -0.000
 97  3 14 23 41  0.0000000  0  7  2  4  5 24  7  9 30               -0.000000036
  14317852.371 8  11156504.32145  24275416.349    24275415.5504   24275423.1794
        -0.000          -0.000
 -11602413.703 9  -9021535.94049  20808815.913    20808815.9874   20808820.4124
        -0.000          -0.000
 -17101688.115 9 -13076310.99247  22053002.391    22053001.7354   22053006.9174
        -0.000          -0.000
 -22452806.134 9 -16887786.25149  20485249.862    20485249.6274   20485255.2224
        -0.000          -0.000
  14806398.738 9  11536575.70046  23268098.683    23268097.9414   23268103.8734
        -0.000          -0.000
 -15520300.002 9 -12076504.20148  21367710.370    21367710.0824   21367715.1304
        -0.000          -0.000
  -5155004.19719  -3745495.40455  24590093.525    24590093.5225   24590099.9855
        -0.000          -0.000
 97  3 14 23 41 30.0000000  0  7  2  4  5 24  7  9 30               -0.000000047
  14406570.005 8  11225634.86845  24292298.690    24292298.0424   24292305.8744
        -0.000          -0.000
 -11558554.081 9  -8987359.61449  20817162.100    20817162.1884   20817166.5854
        -0.000          -0.000
 -17178043.729 9 -13135808.85947  22038472.362    22038471.7344   22038476.9124
        -0.000          -0.000
 -22485344.450 9 -16913140.76249  20479057.953    20479057.7234   20479063.3564
        -0.000          -0.000
  14870982.271 9  11586900.50046  23280388.474    23280387.7634   23280393.7074
        -0.000          -0.000
 -15497007.689 9 -12058354.35348  21372142.765    21372142.4744   21372147.5624
        -0.000          -0.000
  -5252268.790 9  -3821285.96245  24571584.825    24571584.7364   24571591.1074
        -0.000          -0.000
 97  3 14 23 42  0.0000000  0  8 10  2  4  5 24  7  9 30            -0.000000052
  -5988830.66619  -4179110.33555  24632312.352    24632311.7855   24632320.0165
        -0.000          -0.000
  14495530.867 8  11294954.95145  24309227.142    24309226.7424   24309234.5594
        -0.000          -0.000
 -11514227.921 9  -8952819.75049  20825597.079    20825597.1694   20825601.5574
        -0.000          -0.000
 -17254229.779 9 -13195174.58847  22023974.643    22023974.0204   22023979.1834
        -0.000          -0.000
 -22517347.318 9 -16938078.04449  20472967.982    20472967.7594   20472973.4074
        -0.000          -0.000
  14935599.714 9  11637251.72446  23292684.946    23292684.1794   23292690.0594
        -0.000          -0.000
 -15473161.636 9 -12039773.02248  21376680.521    21376680.2424   21376685.3424
        -0.000          -0.000
  -5349553.919 9  -3897092.50845  24553072.172    24553072.1614   24553078.3554
        -0.000          -0.000
 97  3 14 23 42 30.0000000  0  8 10  2  4  5 24  7  9 30            -0.000000055
  -6079666.958 9  -4249891.79345  24615026.875    24615026.1724   24615034.3414
        -0.000          -0.000
  14584705.801 8  11364441.85345  24326196.600    24326196.0864   24326203.9554
        -0.000          -0.000
 -11469440.601 9  -8917920.54549  20834119.830    20834119.9394   20834124.3414
        -0.000          -0.000
 -17330289.823 9 -13254442.14547  22009500.887    22009500.2504   22009505.4114
        -0.000          -0.000
 -22548835.097 9 -16962613.95749  20466976.065    20466975.8474   20466981.4514
        -0.000          -0.000
  15000214.691 9  11687601.02046  23304980.922    23304980.1284   23304985.9274
        -0.000          -0.000
 -15448801.010 9 -12020790.72748  21381316.224    21381315.9634   21381321.0604
        -0.000          -0.000
  -5446881.232 8  -3972931.94145  24534551.406    24534551.2854   24534557.4284
        -0.000          -0.000
 97  3 14 23 43  0.0000000  0  8 10  2  4  5 24  7  9 30            -0.000000052
  -6170584.604 9  -4320736.63145  24597725.911    24597725.0594   24597732.9264
        -0.000          -0.000
  14674095.164 8  11434095.82845  24343206.852    24343206.3294   24343214.1404
        -0.000          -0.000
 -11424174.180 9  -8882648.01149  20842733.776    20842733.8754   20842738.2634
        -0.000          -0.000
 -17406231.440 9 -13313617.41348  21995049.642    21995049.0544   21995054.1734
        -0.000          -0.000
 -22579783.305 9 -16986729.42749  20461086.814    20461086.5754   20461092.1224
        -0.000          -0.000
  15064826.045 9  11737947.49946  23317276.091    23317275.2564   23317281.0644
        -0.000          -0.000
 -15423919.807 9 -12001402.78848  21386050.973    21386050.6954   21386055.7614
        -0.000          -0.000
  -5544223.300 8  -4048782.86245  24516027.795    24516027.4174   24516033.6814
        -0.000          -0.000
 97  3 14 23 43 30.0000000  0  8 10  2  4  5 24  7  9 30            -0.000000045
  -6261592.129 8  -4391651.51545  24580407.860    24580406.9984   24580414.8324
        -0.000          -0.000
  14763698.772 8  11503916.74845  24360258.006    24360257.4054   24360265.0534
        -0.000          -0.000
 -11378426.613 9  -8847000.55549  20851439.288    20851439.3694   20851443.7814
        -0.000          -0.000
 -17482057.212 9 -13372702.41148  21980620.504    21980619.8834   21980624.9814
        -0.000          -0.000
 -22610195.348 9 -17010427.09849  20455299.568    20455299.3214   20455304.8414
        -0.000          -0.000
  15129429.224 9  11788287.60446  23329569.681    23329568.8264   23329574.7454
        -0.000          -0.000
 -15398521.893 9 -11981612.21348  21390884.049    21390883.7894   21390888.8194
        -0.000          -0.000
  -5641574.564 9  -4124640.97645  24497502.501    24497502.3924   24497508.4044
        -0.000          -0.000
 97  3 14 23 44  0.0000000  0  8 10  2  4  5 24  7  9 30            -0.000000032
  -6352676.031 9  -4462625.92145  24563075.093    24563074.0684   24563081.9084
        -0.000          -0.000
  14853530.554 8  11573915.47545  24377352.630    24377351.7114   24377359.7594
        -0.000          -0.000
 -11332168.185 9  -8810955.03449  20860241.958    20860242.0454   20860246.4714
        -0.000          -0.000
 -17557737.844 9 -13431674.31448  21966218.990    21966218.3544   21966223.4044
        -0.000          -0.000
 -22640048.621 9 -17033689.37049  20449618.701    20449618.4444   20449623.9764
        -0.000          -0.000
  15194028.417 9  11838624.58446  23341862.400    23341861.5954   23341867.5084
        -0.000          -0.000
 -15372589.992 9 -11961405.54748  21395818.775    21395818.5134   21395823.5074
        -0.000          -0.000
  -5738923.916 8  -4200497.57145  24478977.471    24478977.3684   24478983.2004
        -0.000          -0.000
 97  3 14 23 44 30.0000000  0  8 10  2  4  5 24  7  9 30            -0.000000017
  -6443826.970 9  -4533652.56445  24545729.628    24545728.6664   24545736.4964
        -0.000          -0.000
  14943574.375 8  11644079.43345  24394487.539    24394486.7384   24394494.4724
        -0.000          -0.000
 -11285397.438 9  -8774510.30249  20869142.086    20869142.1744   20869146.6214
        -0.000          -0.000
 -17633260.813 9 -13490523.37548  21951847.401    21951846.7834   21951851.8134
        -0.000          -0.000
 -22669358.634 9 -17056528.31949  20444041.161    20444040.9054   20444046.4474
        -0.000          -0.000
  15258620.702 9  11888956.21546  23354153.836    23354153.0574   23354159.0874
        -0.000          -0.000
 -15346125.842 9 -11940784.14148  21400854.838    21400854.5664   21400859.5144
        -0.000          -0.000
  -5836289.129 9  -4276366.53045  24460449.328    24460449.4044   24460454.9754
        -0.000          -0.000
 97  3 14 23 45  0.0000000  0  7 10  4  5 24  7  9 30                0.000000003
  -6535067.486 9  -4604749.01045  24528367.051    24528366.0964   24528373.9834
        -0.000          -0.000
 -11238129.878 9  -8737678.44149  20878136.823    20878136.9164   20878141.3594
        -0.000          -0.000
 -17708621.394 9 -13549245.88848  21937506.758    21937506.1114   21937511.1774
        -0.000          -0.000
 -22698146.439 9 -17078960.35249  20438563.010    20438562.7674   20438568.3294
        -0.000          -0.000
  15323218.033 9  11939291.75046  23366446.216    23366445.3774   23366451.6334
        -0.000          -0.000
 -15319127.639 9 -11919746.58948  21405992.477    21405992.1804   21405997.1464
        -0.000          -0.000
  -5933690.791 9  -4352263.90645  24441914.522    24441914.5854   24441919.9634
        -0.000          -0.000
 97  3 14 23 45 30.0000000  0  7 10  4  5 24  7  9 30                0.000000015
  -6626425.532 8  -4675937.04345  24510982.162    24510981.1714   24510989.0454
        -0.000          -0.000
 -11190363.540 9  -8700457.92349  20887226.472    20887226.5544   20887230.9844
        -0.000          -0.000
 -17783804.797 9 -13607830.34948  21923199.736    21923199.1554   21923204.1904
        -0.000          -0.000
 -22726430.262 9 -17100999.67649  20433180.737    20433180.4844   20433186.0614
        -0.000          -0.000
  15387833.730 9  11989641.61446  23378741.936    23378741.1744   23378747.5754
        -0.000          -0.000
 -15291592.940 9 -11898290.99748  21411232.151    21411231.8634   21411236.8674
        -0.000          -0.000
  -6031147.768 9  -4428204.35845  24423369.108    24423369.1734   24423374.5354
        -0.000          -0.000
 97  3 14 23 46  0.0000000  0  7 10  4  5 24  7  9 30                0.000000008
  -6717907.779 8  -4747221.83245  24493573.318    24493572.3234   24493580.4024
        -0.000          -0.000
 -11142096.436 9  -8662847.19749  20896411.399    20896411.4554   20896415.9094
        -0.000          -0.000
 -17858803.354 9 -13666270.76448  21908927.939    21908927.3254   21908932.4204
        -0.000          -0.000
 -22754203.905 9 -17122641.46249  20427895.588    20427895.3524   20427900.9474
        -0.000          -0.000
  15452471.481 9  12040008.65446  23391042.030    23391041.4284   23391047.7224
        -0.000          -0.000
 -15263522.208 9 -11876417.71448  21416573.825    21416573.5554   21416578.5874
        -0.000          -0.000
  -6128659.694 9  -4504187.60545  24404813.218    24404813.3194   24404818.6784
        -0.000          -0.000
 97  3 14 23 46 30.0000000  0  7 10  4  5 24  7  9 30               -0.000000005
  -6809499.575 8  -4818591.99045  24476143.821    24476142.7894   24476151.1484
        -0.000          -0.000
 -11093330.151 9  -8624847.49649  20905691.295    20905691.3514   20905695.8374
        -0.000          -0.000
 -17933613.324 9 -13724564.24348  21894692.010    21894691.4214   21894696.4724
        -0.000          -0.000
 -22781446.223 9 -17143869.22349  20422711.519    20422711.2814   20422716.8854
        -0.000          -0.000
  15517133.506 9  12090394.60546  23403347.015    23403346.3104   23403352.5734
        -0.000          -0.000
 -15234909.135 9 -11854121.82148  21422018.660    21422018.3654   21422023.4124
        -0.000          -0.000
  -6226201.289 9  -4580194.00145  24386251.786    24386251.8394   24386257.0164
        -0.000          -0.000
 97  3 14 23 47  0.0000000  0  7 10  4  5 24  7  9 30               -0.000000022
  -6901202.842 8  -4890049.00345  24458693.119    24458692.2594   24458700.7314
        -0.000          -0.000
 -11044067.328 9  -8586460.88849  20915065.687    20915065.7514   20915070.2334
        -0.000          -0.000
 -18008227.750 9 -13782705.34148  21880493.285    21880492.7504   21880497.8054
        -0.000          -0.000
 -22808133.900 9 -17164664.79849  20417633.008    20417632.7474   20417638.3554
        -0.000          -0.000
  15581830.416 9  12140807.74146  23415658.462    23415657.7774   23415664.0344
        -0.000          -0.000
 -15205730.733 9 -11831385.42248  21427571.091    21427570.8114   21427575.8754
        -0.000          -0.000
  -6323745.140 9  -4656202.14145  24367689.716    24367689.7104   24367694.8794
        -0.000          -0.000
 97  3 14 23 47 30.0000000  0  7 10  4  5 24  7  9 30               -0.000000033
  -6993006.682 9  -4961584.38045  24441223.429    24441222.5434   24441231.1334
        -0.000          -0.000
 -10994332.147 9  -8547706.21249  20924530.003    20924530.0894   20924534.5544
        -0.000          -0.000
 -18082653.084 9 -13840699.09248  21866330.560    21866330.0054   21866335.1044
        -0.000          -0.000
 -22834268.455 9 -17185029.37449  20412659.754    20412659.5104   20412665.0894
        -0.000          -0.000
  15646554.363 9  12191241.95346  23427975.076    23427974.4114   23427980.6634
        -0.000          -0.000
 -15175998.406 9 -11808217.39248  21433228.967    21433228.6844   21433233.7544
        -0.000          -0.000
  -6421273.106 9  -4732197.90845  24349130.631    24349130.8184   24349135.8964
        -0.000          -0.000
 97  3 14 23 48  0.0000000  0  7 10  4  5 24  7  9 30               -0.000000042
  -7084903.804 9  -5033192.41745  24423735.904    24423735.1404   24423743.5864
        -0.000          -0.000
 -10944146.394 9  -8508600.43849  20934080.109    20934080.1884   20934084.6064
        -0.000          -0.000
 -18156902.679 9 -13898555.90648  21852201.382    21852200.7964   21852205.9134
        -0.000          -0.000
 -22859847.503 9 -17204961.08249  20407792.206    20407791.9604   20407797.5064
        -0.000          -0.000
  15711288.917 9  12241684.41046  23440293.763    23440293.0224   23440299.2274
        -0.000          -0.000
 -15145734.317 9 -11784634.99548  21438988.066    21438987.7584   21438992.8694
        -0.000          -0.000
  -6518794.596 9  -4808188.63745  24330572.745    24330572.8254   24330577.9044
        -0.000          -0.000
 97  3 14 23 48 30.0000000  0  7 10  4  5 24  7  9 30               -0.000000053
  -7176901.945 9  -5104879.17345  24406229.237    24406228.4994   24406236.7704
        -0.000          -0.000
 -10893526.524 9  -8469156.39448  20943712.750    20943712.8194   20943717.2274
        -0.000          -0.000
 -18230987.135 9 -13956284.04348  21838103.549    21838102.9864   21838108.1464
        -0.000          -0.000
 -22884906.363 9 -17224487.45549  20403023.690    20403023.4514   20403028.9884
        -0.000          -0.000
  15776024.564 9  12292127.74546  23452612.663    23452611.9444   23452618.0894
        -0.000          -0.000
 -15114961.305 9 -11760656.03448  21444843.947    21444843.6744   21444848.8024
        -0.000          -0.000
  -6616326.338 8  -4884187.33745  24312012.848    24312012.8844   24312018.2774
        -0.000          -0.000
 97  3 14 23 49  0.0000000  0  7 10  4  5 24  7  9 30               -0.000000054
  -7268991.533 9  -5176637.20645  24388705.258    24388704.3614   24388712.4374
        -0.000          -0.000
 -10842459.784 9  -8429364.13348  20953430.413    20953430.4924   20953434.8784
        -0.000          -0.000
 -18304896.317 9 -14013875.60548  21824039.061    21824038.5124   21824043.6584
        -0.000          -0.000
 -22909456.082 9 -17243617.09349  20398352.027    20398351.7954   20398357.3474
        -0.000          -0.000
  15840792.851 9  12342596.49946  23464937.854    23464937.0924   23464943.1094
        -0.000          -0.000
 -15083685.822 9 -11736285.53348  21450795.475    21450795.2034   21450800.3334
        -0.000          -0.000
  -6713858.481 8  -4960186.33545  24293452.890    24293452.9934   24293458.5774
        -0.000          -0.000
 97  3 14 23 49 30.0000000  0  7 10  4  5 24  7  9 30               -0.000000059
  -7361173.355 9  -5248467.09745  24371163.712    24371162.7054   24371170.5454
        -0.000          -0.000
 -10790953.865 9  -8389229.66248  20963231.677    20963231.7574   20963236.1114
        -0.000          -0.000
 -18378648.987 9 -14071345.19748  21810004.416    21810003.8394   21810009.1214
        -0.000          -0.000
 -22933512.839 9 -17262362.60649  20393774.178    20393773.9244   20393779.5084
        -0.000          -0.000
  15905566.520 9  12393069.46446  23477263.880    23477263.1084   23477269.0094
        -0.000          -0.000
 -15051952.295 9 -11711558.12148  21456834.109    21456833.8634   21456838.9934
        -0.000          -0.000
  -6811417.936 9  -5036206.65145  24274887.848    24274887.9554   24274893.3684
        -0.000          -0.000
 97  3 14 23 50  0.0000000  0  7 10  4  5 24  7  9 30               -0.000000066
  -7453420.118 9  -5320347.58945  24353609.796    24353608.7874   24353616.3804
        -0.000          -0.000
 -10738970.603 9  -8348723.22648  20973123.813    20973123.8884   20973128.2344
        -0.000          -0.000
 -18452220.229 9 -14128673.43648  21796004.363    21796003.7914   21796008.9134
        -0.000          -0.000
 -22957047.059 9 -17280700.94649  20389295.698    20389295.4554   20389301.0354
        -0.000          -0.000
  15970356.857 9  12443555.40746  23489593.041    23489592.3144   23489598.0824
        -0.000          -0.000
 -15019741.624 9 -11686458.90548  21462963.618    21462963.3794   21462968.5014
        -0.000          -0.000
  -6909005.286 8  -5112248.68845  24256317.528    24256317.6214   24256323.2274
        -0.000          -0.000
 97  3 14 23 50 30.0000000  0  7 10  4  5 24  7  9 30               -0.000000064
  -7545716.554 9  -5392266.78745  24336046.254    24336045.4874   24336052.8114
        -0.000          -0.000
 -10686521.950 9  -8307854.15448  20983104.522    20983104.5794   20983108.8884
        -0.000          -0.000
 -18525613.909 9 -14185863.29348  21782038.044    21782037.4994   21782042.6504
        -0.000          -0.000
 -22980066.569 9 -17298638.21449  20384915.221    20384914.9874   20384920.5504
        -0.000          -0.000
  16035166.913 9  12494056.72146  23501926.141    23501925.4054   23501930.9954
        -0.000          -0.000
 -14987043.714 9 -11660980.02648  21469185.859    21469185.6124   21469190.7314
        -0.000          -0.000
  -7006607.503 8  -5188302.31645  24237744.326    24237744.5394   24237750.2464
        -0.000          -0.000
 97  3 14 23 51  0.0000000  0  7 10  4  5 24  7  9 30               -0.000000063
  -7638063.405 8  -5464225.26445  24318473.095    24318472.2724   24318479.7324
        -0.000          -0.000
 -10633630.271 9  -8266639.86148  20993169.501    20993169.5414   20993173.8884
        -0.000          -0.000
 -18598855.335 9 -14242934.52748  21768100.761    21768100.1584   21768105.1804
        -0.000          -0.000
 -23002558.393 9 -17316164.29749  20380635.200    20380634.9304   20380640.5054
        -0.000          -0.000
  16099976.030 9  12544557.31846  23514258.980    23514258.2574   23514263.7374
        -0.000          -0.000
 -14953866.075 9 -11635127.33048  21475499.434    21475499.1814   21475504.2484
        -0.000          -0.000
  -7104236.388 8  -5264376.72045  24219166.033    24219166.2304   24219172.1494
        -0.000          -0.000
 97  3 14 23 51 30.0000000  0  7 10  4  5 24  7  9 30               -0.000000064
  -7730446.924 8  -5536212.30545  24300892.946    24300892.0634   24300899.8514
        -0.000          -0.000
 -10580289.823 9  -8225075.88448  21003319.821    21003319.8844   21003324.2594
        -0.000          -0.000
 -18671929.580 9 -14299875.48148  21754195.274    21754194.6344   21754199.6374
        -0.000          -0.000
 -23024508.028 9 -17333267.89449  20376458.277    20376458.0224   20376463.6184
        -0.000          -0.000
  16164771.906 9  12595047.58146  23526589.415    23526588.6924   23526594.1454
        -0.000          -0.000
 -14920184.804 9 -11608882.19848  21481908.803    21481908.5244   21481913.5584
        -0.000          -0.000
  -7201883.742 8  -5340465.51045  24200584.124    24200584.3654   24200590.4504
        -0.000          -0.000
 97  3 14 23 52  0.0000000  0  7 10  4  5 24  7  9 30               -0.000000057
  -7822868.828 8  -5608229.26645  24283305.554    24283304.5694   24283312.5854
        -0.000          -0.000
 -10526504.836 9  -8183165.50948  21013554.739    21013554.7994   21013559.2344
        -0.000          -0.000
 -18744822.609 9 -14356675.23948  21740324.204    21740323.5874   21740328.4994
        -0.000          -0.000
 -23045914.692 9 -17349948.39749  20372384.725    20372384.4924   20372390.0584
        -0.000          -0.000
  16229566.659 9  12645536.97346  23538919.504    23538918.8464   23538924.2664
        -0.000          -0.000
 -14885984.398 9 -11582232.54148  21488416.928    21488416.6494   21488421.6704
        -0.000          -0.000
  -7299525.555 9  -5416549.97045  24182003.402    24182003.6184   24182009.8454
        -0.000          -0.000
 97  3 14 23 52 30.0000000  0  7 10  4  5 24  7  9 30               -0.000000044
  -7915344.725 8  -5680288.30645  24265707.693    24265706.7614   24265714.8534
        -0.000          -0.000
 -10472291.112 9  -8140921.05248  21023871.271    21023871.3274   21023875.7764
        -0.000          -0.000
 -18817536.490 9 -14413335.38648  21726487.105    21726486.4964   21726491.4634
        -0.000          -0.000
 -23066782.194 9 -17366208.77849  20368413.752    20368413.5114   20368419.0494
        -0.000          -0.000
  16294361.883 9  12696026.72746  23551249.554    23551248.9004   23551254.4364
        -0.000          -0.000
 -14851278.867 9 -11555189.28048  21495021.203    21495020.9274   21495025.8934
        -0.000          -0.000
  -7397151.277 9  -5492621.92045  24163426.002    24163426.1084   24163432.4334
        -0.000          -0.000
 97  3 14 23 53  0.0000000  0  7 10  4  5 24  7  9 30               -0.000000033
  -8007882.203 8  -5752395.31545  24248098.068    24248097.2624   24248105.4294
        -0.000          -0.000
 -10417634.996 9  -8098331.87448  21034271.992    21034272.0474   21034276.5144
        -0.000          -0.000
 -18890060.997 9 -14469847.97548  21712686.079    21712685.4614   21712690.4474
        -0.000          -0.000
 -23087098.475 9 -17382039.63349  20364547.722    20364547.4774   20364552.9724
        -0.000          -0.000
  16359149.645 9  12746510.65346  23563578.199    23563577.5454   23563583.2274
        -0.000          -0.000
 -14816070.343 9 -11527754.07948  21501721.173    21501720.8884   21501725.8534
        -0.000          -0.000
  -7494761.907 9  -5568682.11046  24144851.538    24144851.5174   24144857.5714
        -0.000          -0.000
 97  3 14 23 53 30.0000000  0  7 10  4  5 24  7  9 30               -0.000000030
  -8100488.211 8  -5824555.73445  24230475.633    24230474.7414   24230482.8644
        -0.000          -0.000
 -10362535.840 9  -8055397.47748  21044756.951    21044757.0084   21044761.5424
        -0.000          -0.000
 -18962378.383 9 -14526199.17148  21698924.518    21698923.8984   21698928.9514
        -0.000          -0.000
 -23106869.419 9 -17397445.55149  20360785.422    20360785.1624   20360790.6304
        -0.000          -0.000
  16423924.938 9  12796984.86446  23575904.467    23575903.8014   23575909.5504
        -0.000          -0.000
 -14780361.686 9 -11499929.16548  21508516.312    21508516.0244   21508520.9844
        -0.000          -0.000
  -7592358.288 9  -5644731.20046  24126279.570    24126279.6244   24126285.5754
        -0.000          -0.000
 97  3 14 23 54  0.0000000  0  7 10  4  5 24  7  9 30               -0.000000022
  -8193134.878 8  -5896747.84745  24212845.596    24212844.7474   24212852.6954
        -0.000          -0.000
 -10306981.764 9  -8012108.59248  21055328.502    21055328.5694   21055333.1384
        -0.000          -0.000
 -19034457.234 9 -14582364.49648  21685208.284    21685207.7034   21685212.8214
        -0.000          -0.000
 -23126055.246 9 -17412395.53349  20357134.420    20357134.1894   20357139.6514
        -0.000          -0.000
  16488724.473 9  12847477.97546  23588235.354    23588234.6154   23588240.6394
        -0.000          -0.000
 -14744136.213 9 -11471701.53748  21515409.732    21515409.4524   21515414.4874
        -0.000          -0.000
  -7689928.364 9  -5720759.78146  24107712.517    24107712.5884   24107718.5774
        -0.000          -0.000
 97  3 14 23 54 30.0000000  0  7 10  4  5 24  7  9 30               -0.000000011
  -8285813.830 9  -5968965.11045  24195209.417    24195208.4854   24195216.4044
        -0.000          -0.000
 -10250963.077 9  -7968457.67148  21065988.518    21065988.5704   21065993.1324
        -0.000          -0.000
 -19106293.540 9 -14638340.82448  21671538.274    21671537.6574   21671542.8434
        -0.000          -0.000
 -23144660.744 9 -17426893.31149  20353593.930    20353593.6904   20353599.1434
        -0.000          -0.000
  16553554.497 9  12897994.85646  23600572.048    23600571.3954   23600577.4634
        -0.000          -0.000
 -14707373.689 9 -11443055.42648  21522405.401    21522405.1194   21522410.2054
        -0.000          -0.000
  -7787482.027 9  -5796775.56646  24089148.583    24089148.6004   24089154.6304
        -0.000          -0.000
 97  3 14 23 55  0.0000000  0  7 10  4  5 24  7  9 30                0.000000003
  -8378520.374 9  -6041203.88245  24177567.974    24177567.1084   24177574.9154
        -0.000          -0.000
 -10194476.678 9  -7924442.30048  21076737.484    21076737.5784   21076742.1274
        -0.000          -0.000
 -19177904.704 9 -14694141.71948  21657911.100    21657910.4914   21657915.7664
        -0.000          -0.000
 -23162711.378 9 -17440958.73149  20350158.968    20350158.7384   20350164.1754
        -0.000          -0.000
  16618398.293 9  12948522.44046  23612911.422    23612910.8124   23612916.9024
        -0.000          -0.000
 -14670073.913 9 -11413990.68348  21529503.284    21529503.0354   21529508.1744
        -0.000          -0.000
  -7885022.521 9  -5872781.09346  24070587.230    24070587.2294   24070593.0774
        -0.000          -0.000
 97  3 14 23 55 30.0000000  0  7 10  4  5 24  7  9 30                0.000000007
  -8471282.909 9  -6113486.28546  24159915.840    24159914.9204   24159922.6484
        -0.000          -0.000
 -10137555.818 9  -7880088.39248  21087569.162    21087569.2504   21087573.8464
        -0.000          -0.000
 -19249312.566 9 -14749784.20348  21644322.611    21644321.9984   21644327.2794
        -0.000          -0.000
 -23180251.734 9 -17454626.53049  20346821.154    20346820.9294   20346826.3484
        -0.000          -0.000
  16683244.580 9  12999051.97846  23625251.438    23625250.7894   23625256.8424
        -0.000          -0.000
 -14632267.912 9 -11384531.47848  21536697.524    21536697.2854   21536702.4644
        -0.000          -0.000
  -7982577.049 9  -5948797.57946  24052023.279    24052023.2114   24052028.8424
        -0.000          -0.000
 97  3 14 23 56  0.0000000  0  7 10  4  5 24  7  9 30                0.000000013
  -8564088.768 8  -6185802.43346  24142255.317    24142254.3854   24142262.1694
        -0.000          -0.000
 -10080193.146 9  -7835390.21948  21098484.897    21098485.0234   21098489.6314
        -0.000          -0.000
 -19320516.824 9 -14805268.02948  21630772.834    21630772.2484   21630777.6074
        -0.000          -0.000
 -23197286.537 9 -17467900.39449  20343579.550    20343579.3234   20343584.7304
        -0.000          -0.000
  16748116.364 9  13049601.37846  23637596.221    23637595.5334   23637601.5644
        -0.000          -0.000
 -14593950.484 9 -11354673.76048  21543989.132    21543988.8774   21543994.0434
        -0.000          -0.000
  -8080127.746 9  -6024811.07346  24033459.871    24033459.8424   24033465.4974
        -0.000          -0.000
 97  3 14 23 56 30.0000000  0  7 10  4  5 24  7  9 30                0.000000025
  -8656951.440 9  -6258162.84746  24124583.950    24124583.0794   24124590.8434
        -0.000          -0.000
 -10022398.827 9  -7790355.69248  21109482.799    21109482.8994   21109487.5224
        -0.000          -0.000
 -19391536.255 9 -14860607.83148  21617258.184    21617257.6144   21617263.0064
        -0.000          -0.000
 -23213844.912 9 -17480803.01249  20340428.563    20340428.3454   20340433.7334
        -0.000          -0.000
  16812996.446 9  13100157.25046  23649942.476    23649941.8164   23649947.9004
        -0.000          -0.000
 -14555133.241 9 -11324426.57648  21551375.804    21551375.5234   21551380.7164
        -0.000          -0.000
  -8177660.155 9  -6100810.30345  24014900.041    24014900.0714   24014905.6414
        -0.000          -0.000
 97  3 14 23 57  0.0000000  0  7 10  4  5 24  7  9 30                0.000000030
  -8749881.932 9  -6330576.11746  24106899.795    24106898.9214   24106906.4894
        -0.000          -0.000
  -9964201.575 9  -7745007.19648  21120557.364    21120557.4524   21120562.0854
        -0.000          -0.000
 -19462377.340 9 -14915808.66448  21603777.513    21603776.9664   21603782.3974
        -0.000          -0.000
 -23229933.758 9 -17493339.76249  20337366.924    20337366.7044   20337372.1164
        -0.000          -0.000
  16877867.056 9  13150705.74546  23662286.826    23662286.2504   23662292.5164
        -0.000          -0.000
 -14515859.123 9 -11293823.38548  21558849.398    21558849.1394   21558854.3484
        -0.000          -0.000
  -8275190.413 9  -6176807.90145  23996340.549    23996340.6894   23996346.0644
        -0.000          -0.000
 97  3 14 23 57 30.0000000  0  7 10  4  5 24  7  9 30                0.000000024
  -8842876.569 9  -6403039.37746  24089203.420    24089202.5024   24089210.0964
        -0.000          -0.000
  -9905618.478 9  -7699358.04048  21131705.332    21131705.4554   21131710.0514
        -0.000          -0.000
 -19533015.137 9 -14970851.09148  21590335.618    21590335.0424   21590340.4424
        -0.000          -0.000
 -23245534.080 9 -17505495.84849  20334398.249    20334398.0594   20334403.4604
        -0.000          -0.000
  16942738.931 9  13201255.23146  23674631.609    23674630.9344   23674637.2904
        -0.000          -0.000
 -14476131.781 9 -11262867.03248  21566409.216    21566408.9364   21566414.1874
        -0.000          -0.000
  -8372733.519 9  -6252815.47945  23977778.625    23977778.8794   23977784.2584
        -0.000          -0.000
 97  3 14 23 58  0.0000000  0  7 10  4  5 24  7  9 30                0.000000026
  -8935895.539 9  -6475521.59446  24071502.580    24071501.5864   24071509.1994
        -0.000          -0.000
  -9846621.791 9  -7653386.60548  21142932.067    21142932.1734   21142936.7314
        -0.000          -0.000
 -19603429.979 9 -15025719.79448  21576936.146    21576935.5584   21576940.8664
        -0.000          -0.000
 -23260609.100 9 -17517242.60949  20331529.615    20331529.4154   20331534.7924
        -0.000          -0.000
  17007623.608 9  13251814.68646  23686978.802    23686978.0874   23686984.5714
        -0.000          -0.000
 -14435931.971 9 -11231542.52548  21574058.984    21574058.7404   21574064.0324
        -0.000          -0.000
  -8470253.863 9  -6328805.31745  23959221.111    23959221.2864   23959226.7994
        -0.000          -0.000
 97  3 14 23 58 30.0000000  0  7 10  4  5 24  7  9 30                0.000000024
  -9028931.149 9  -6548016.79246  24053798.508    24053797.5124   24053805.0764
        -0.000          -0.000
  -9787218.420 9  -7607098.27148  21154236.165    21154236.2774   21154240.7604
        -0.000          -0.000
 -19673616.644 9 -15080410.69548  21563580.138    21563579.5244   21563584.7624
        -0.000          -0.000
 -23275156.992 9 -17528578.62249  20328761.229    20328761.0124   20328766.4304
        -0.000          -0.000
  17072498.552 9  13302366.55745  23699324.127    23699323.3804   23699329.8744
        -0.000          -0.000
 -14395270.137 9 -11199857.99348  21581796.720    21581796.4534   21581801.7574
        -0.000          -0.000
  -8567765.719 9  -6404788.54545  23940665.232    23940665.4224   23940670.9534
        -0.000          -0.000
 97  3 14 23 59  0.0000000  0  7 10  4  5 24  7  9 30                0.000000020
  -9121966.279 9  -6620511.59746  24036094.523    24036093.6194   24036100.9544
        -0.000          -0.000
  -9727396.769 9  -7560484.00748  21165619.825    21165619.9464   21165624.4084
        -0.000          -0.000
 -19743573.834 9 -15134922.78448  21550267.765    21550267.1314   21550272.2844
        -0.000          -0.000
 -23289170.285 9 -17539498.06449  20326094.566    20326094.3684   20326099.7844
        -0.000          -0.000
  17137370.293 9  13352915.94145  23711668.822    23711668.1634   23711674.6194
        -0.000          -0.000
 -14354143.846 9 -11167811.55148  21589622.789    21589622.5154   21589627.8204
        -0.000          -0.000
  -8665274.161 9  -6480769.10145  23922110.023    23922110.1384   23922115.8004
        -0.000          -0.000
